[[{"header":{"parameterUnit":"m.s-1","parameterCategory":1,"la1":30.6,"la2":29.2853,"lo1":-89.7004,"lo2":-87.6739,"dx":0.0162,"dy":0.0183,"nx":112,"ny":82,"refTime":"2022-12-31T06:00:00:Z","depth":0,"parameterNumber":2,"parameterNumberName":"U-component_of_WINDS"},"data":[0.0,0.0,0.0,0.0,0.0,0.0,0.0,0.0,0.0,0.0,0.0,0.0,0.0,0.0,0.0,0.0,0.0,0.0,0.0,0.0,0.0,0.0,0.0,0.0,0.0,0.0,0.0,0.0,0.0,0.0,0.0,0.0,0.0,0.0,0.0,0.0,0.0,0.0,0.0,0.0,0.0,0.0,0.0,0.0,0.0,0.0,0.0,0.0,0.0,0.0,0.0,0.0,0.0,0.0,0.0,0.0,0.0,0.0,0.0,0.0,0.0,0.0,0.0,0.0,0.0,0.0,0.0,0.0,0.0,0.0,0.0,0.0,0.0,0.0,0.0,0.0,0.0,0.0,0.0,0.0,0.0,0.0,0.0,0.0,0.0,0.0,0.0,0.0,0.0,0.0,0.6583,0.7021,0.8345,0.8664,0.7496,0.8105,0.6245,0.0821,0.0,0.0,0.0,0.0,0.0,0.0,0.0,0.0,0.0,0.0,0.0,0.0,0.0,0.0,0.0,0.0,0.0,0.0,0.0,0.0,0.0,0.0,0.0,0.0,0.0,0.0,0.0,0.0,0.0,0.0,0.0,0.0,0.0,0.0,0.0,0.0,0.0,0.0,0.0,0.0,0.0,0.0,0.0,0.0,0.0,0.0,0.0,0.0,0.0,0.0,0.0,0.0,0.0,0.0,0.0,0.0,0.0,0.0,0.0,0.0,0.0,0.0,0.0,0.0,0.0,0.0,0.0,0.0,0.0,0.0,0.0,0.0,0.0,0.0,0.0,0.0,0.0,0.0,0.0,0.0,0.0,0.0,0.0,0.0,0.0,0.0,0.0,0.0,0.0,0.0,0.0,0.0,0.0,0.0,0.0,0.0,0.0,0.0,0.0,0.0,0.0,0.0,0.0,0.0,0.6969,0.7115,0.7347,0.7782,0.8544,0.7863,0.5109,-0.0241,0.0,0.0,0.0,0.0,0.0,0.0,0.0,0.0,0.0,0.0,0.0,0.0,0.0,0.0,0.0,0.0,0.0,0.0,0.0,0.0,0.0,0.0,0.0,0.0,0.0,0.0,0.0,0.0,0.0,0.0,0.0,0.0,0.0,0.0,0.0,0.0,0.0,0.0,0.0,0.0,0.0,0.0,0.0,0.0,0.0,0.0,0.0,0.0,0.0,0.0,0.0,0.0,0.0,0.0,0.0,0.0,0.0,0.0,0.0,0.0,0.0,0.0,0.0,0.0,0.0,0.0,0.0,0.0,0.0,0.0,0.0,0.0,0.0,0.0,0.0,0.0,0.0,0.0,0.0,0.0,0.0,0.0,0.0,0.0,0.0,0.0,0.0,0.0,0.0,0.0,0.0,0.0,0.0,0.0,0.0,0.0,0.0,0.0,0.0,0.0,0.0,0.0,0.0,0.3564,0.5705,0.6966,0.7694,0.8025,0.7929,0.8216,0.5362,-0.1857,-0.6264,0.0,0.0,0.0,0.0,0.0,0.0,0.0,0.0,0.0,0.0,0.0,0.0,0.0,0.0,0.0,0.0,0.0,0.0,0.0,0.0,0.0,0.0,0.0,0.0,0.0,0.0,0.0,0.0,0.0,0.0,0.0,0.0,0.0,0.0,0.0,0.0,0.0,0.0,0.0,0.0,0.0,0.0,0.0,0.0,0.0,0.0,0.0,0.0,0.0,0.0,0.0,0.0,0.0,0.0,0.0,0.0,0.0,0.0,0.0,0.0,0.0,0.0,0.0,0.0,0.0,0.0,0.0,0.0,0.0,0.0,0.0,0.0,0.0,0.0,0.0,0.0,0.0,0.0,0.0,0.0,0.0,0.0,0.0,0.0,0.0,0.0,0.0,0.0,0.0,0.0,0.0,0.0,0.0,0.0,0.0,0.0,0.0,0.0,0.0,0.0,0.0,0.0,0.2104,0.4488,0.6808,0.7952,0.8105,0.7136,0.7577,0.4385,-0.3782,-0.9679,0.0,0.0,0.0,0.0,0.0,0.0,0.0,0.0,0.0,0.0,0.0,0.0,0.0,0.0,0.0,0.0,0.0,0.0,0.0,0.0,0.0,0.0,0.0,0.0,0.0,0.0,0.0,0.0,0.0,0.0,0.0,0.0,0.0,0.0,0.0,0.0,0.0,0.0,0.0,0.0,0.0,0.0,0.0,0.0,0.0,0.0,0.0,0.0,0.0,0.0,0.0,0.0,0.0,0.0,0.0,0.0,0.0,0.0,0.0,0.0,0.0,0.0,0.0,0.0,0.0,0.0,0.0,0.0,0.0,0.0,0.0,0.0,0.0,0.0,0.0,0.0,0.0,0.0,0.0,0.0,0.0,0.0,0.0,0.0,0.0,0.0,0.0,0.0,0.0,0.0,0.0,0.0,0.0,0.0,0.0,0.0,0.0,0.0,0.0,0.0,0.0,0.0,0.2117,0.4545,0.6828,0.7156,0.7231,0.7143,0.4537,0.0256,-0.6079,-1.3285,0.0,0.0,0.0,0.0,0.0,0.0,0.0,0.0,0.0,0.0,0.0,0.0,0.0,0.0,0.0,0.0,0.0,0.0,0.0,0.0,0.0,0.0,0.0,0.0,0.0,0.0,0.0,0.0,0.0,0.0,0.0,0.0,0.0,0.0,0.0,0.0,0.0,0.0,0.0,0.0,0.0,0.0,0.0,0.0,0.0,0.0,0.0,0.0,0.0,0.0,0.0,0.0,0.0,0.0,0.0,0.0,0.0,0.0,0.0,0.0,0.0,0.0,0.0,0.0,0.0,0.0,0.0,0.0,0.0,0.0,0.0,0.0,0.0,0.0,0.0,0.0,0.0,0.0,0.0,0.0,0.0,0.0,0.0,0.0,0.0,0.0,0.0,0.0,0.0,0.0,0.0,0.0,0.0,0.0,0.0,0.0,0.0,0.0,0.0,0.0,0.0,0.0,0.2068,0.4515,0.6808,0.7074,0.7054,0.7074,0.5991,0.1973,-0.5755,0.0,0.0,0.0,0.0,0.0,0.0,0.0,0.0,0.0,0.0,0.0,0.0,0.0,0.0,0.0,0.0,0.0,0.0,0.0,0.0,0.0,0.0,0.0,0.0,0.0,0.0,0.0,0.0,0.0,0.0,0.0,0.0,0.0,0.0,0.0,0.0,0.0,0.0,0.0,0.0,0.0,0.0,0.0,0.0,0.0,0.0,0.0,0.0,0.0,0.0,0.0,0.0,0.0,0.0,0.0,0.0,0.0,0.0,0.0,0.0,0.0,0.0,0.0,0.0,0.0,0.0,0.0,0.0,0.0,0.0,0.0,0.0,0.0,0.0,0.0,0.0,0.0,0.0,0.0,0.0,0.0,0.0,0.0,0.0,0.0,0.0,0.0,0.0,0.0,0.0,0.0,0.0,0.0,0.0,0.0,0.0,0.0,0.0,0.0,0.0,0.0,0.0,0.0159,0.1424,0.3685,0.6762,0.7138,0.7125,0.7138,0.6406,0.2982,-0.4166,0.0,0.0,0.0,0.0,0.0,0.0,0.0,0.0,0.0,0.0,0.0,0.0,0.0,0.0,0.0,0.0,0.0,0.0,0.0,0.0,0.0,0.0,0.0,0.0,0.0,0.0,0.0,0.0,0.0,0.0,0.0,0.0,0.0,0.0,0.0,0.0,0.0,0.0,0.0,0.0,0.0,0.0,0.0,0.0,0.0,0.0,0.0,0.0,0.0,0.0,0.0,0.0,0.0,0.0,0.0,0.0,0.0,0.0,0.0,0.0,0.0,0.0,0.0,0.0,0.0,0.0,0.0,0.0,0.0,0.0,0.0,0.0,0.0,0.0,0.0,0.0,0.0,0.0,0.0,0.0,0.0,0.0,0.0,0.0,0.0,0.0,0.0,0.0,0.0,0.0,0.0,0.0,0.0,0.0,0.0,0.0,0.0,0.0,0.0,0.0,0.0,0.0,-0.05,-0.0,0.1768,0.6501,0.7083,0.707,0.6969,0.4849,0.1998,0.0,0.0,0.0,0.0,0.0,0.0,0.0,0.0,0.0,0.0,0.0,0.0,0.0,0.0,0.0,0.0,0.0,0.0,0.0,0.0,0.0,0.0,0.0,0.0,0.0,0.0,0.0,0.0,0.0,0.0,0.0,0.0,0.0,0.0,0.0,0.0,0.0,0.0,0.0,0.0,0.0,0.0,0.0,0.0,0.0,0.0,0.0,0.0,0.0,0.0,0.0,0.0,0.0,0.0,0.0,0.0,0.0,0.0,0.0,0.0,0.0,0.0,0.0,0.0,0.0,0.0,0.0,0.0,0.0,0.0,0.0,0.0,0.0,0.0,0.0,0.0,0.0,0.0,0.0,0.0,0.0,0.0,0.0,0.0,0.0,0.0,0.0,0.0,0.0,0.0,0.0,0.0,0.0,0.0,0.0,0.0,0.0,0.0,0.0,0.0,0.0,0.0,0.0,-0.2249,-0.0798,0.0558,0.19,0.3613,0.3891,0.1989,0.1136,-0.1726,-0.7519,0.0,0.0,0.0,0.0,0.0,0.0,0.0,0.0,0.0,0.0,0.0,0.0,0.0,0.0,0.0,0.0,0.0,0.0,0.0,0.0,0.0,0.0,0.0,0.0,0.0,0.0,0.0,0.0,0.0,0.0,0.0,0.0,0.0,0.0,0.0,0.0,0.0,0.0,0.0,0.0,0.0,0.0,0.0,0.0,0.0,0.0,0.0,0.0,0.0,0.0,0.0,0.0,0.0,0.0,0.0,0.0,0.0,0.0,0.0,0.0,0.0,0.0,0.0,0.0,0.0,0.0,0.0,0.0,0.0,0.0,0.0,0.0,0.0,0.0,0.0,0.0,0.0,0.0,0.0,0.0,0.0,0.0,0.0,0.0,0.0,0.0,0.0,0.0,0.0,0.0,0.0,0.0,0.0,0.0,0.0,0.0,0.0,0.0,0.0,0.0,0.0,0.0,-0.4338,-0.1751,-0.0,-0.0,-0.0796,-0.2086,-0.3682,-0.3552,-0.5341,-0.9911,0.0,0.0,0.0,0.0,0.0,0.0,0.0,0.0,0.0,0.0,0.0,0.0,0.0,0.0,0.0,0.0,0.0,0.0,0.0,0.0,0.0,0.0,0.0,0.0,0.0,0.0,0.0,0.0,0.0,0.0,0.0,0.0,0.0,0.0,0.0,0.0,0.0,0.0,0.0,0.0,0.0,0.0,0.0,0.0,0.0,0.0,0.0,0.0,0.0,0.0,0.0,0.0,0.0,0.0,0.0,0.0,0.0,0.0,0.0,0.0,0.0,0.0,0.0,0.0,0.0,0.0,0.0,0.0,0.0,0.0,0.0,0.0,0.0,0.0,0.0,0.0,0.0,0.0,0.0,0.0,0.0,0.0,0.0,0.0,0.0,0.0,0.0,0.0,0.0,0.0,0.0,0.0,0.0,0.0,0.0,0.0,0.0,0.0,0.0,0.0,0.0,0.0,-0.5979,-0.244,-0.0,-0.0,-0.5341,-0.9019,-0.9231,-0.8744,-0.8787,-0.987,0.0,0.0,0.0,0.0,0.0,0.0,0.0,0.0,0.0,0.0,0.0,0.0,0.0,0.0,0.0,0.0,0.0,0.0,0.0,0.0,0.0,0.0,0.0,0.0,0.0,0.0,0.0,0.0,0.0,0.0,0.0,0.0,0.0,0.0,0.0,0.0,0.0,0.0,0.0,0.0,0.0,0.0,0.0,0.0,0.0,0.0,0.0,0.0,0.0,0.0,0.0,0.0,0.0,0.0,0.0,0.0,0.0,0.0,0.0,0.0,-0.8015,-0.6855,0.0,0.0,0.0,0.0,0.0,0.0,0.0,0.0,0.0,0.0,0.0,0.0,0.0,0.0,0.0,0.0,0.0,0.0,0.0,0.0,0.0,0.0,0.0,0.0,0.0,0.0,0.0,0.0,0.0,0.0,0.0,0.0,0.0,0.0,0.0,0.0,0.0,0.0,0.0,0.0,-0.3762,-0.1579,-0.0,-0.0,-0.5341,-0.9875,-1.2107,-1.1358,-1.086,-1.1238,-1.1081,0.0,0.0,0.0,0.0,0.0,0.0,0.0,0.0,0.0,0.0,0.0,0.0,0.0,0.0,0.0,0.0,0.0,0.0,0.0,0.0,0.0,0.0,0.0,0.0,0.0,0.0,0.0,0.0,0.0,0.0,0.0,0.0,0.0,0.0,0.0,0.0,0.0,0.0,0.0,0.0,0.0,0.0,0.0,0.0,0.0,0.0,0.0,0.0,0.0,0.0,0.0,0.0,0.0,0.0,0.0,0.0,0.0,0.0,0.0,-0.859,-0.741,0.0,0.0,0.0,0.0,0.0,0.0,0.0,0.0,0.0,0.0,0.0,0.0,0.0,0.0,0.0,0.0,0.0,0.0,0.0,0.0,0.0,0.0,0.0,0.0,0.0,0.0,0.0,0.0,0.0,0.0,0.0,0.0,0.0,0.0,0.0,0.0,0.0,0.0,0.0,0.0,-0.1792,-0.0712,-0.1073,-0.3929,-0.5796,-0.831,-1.2238,-1.1769,-1.1569,-1.2299,-1.1857,0.0,0.0,0.0,0.0,0.0,0.0,0.0,0.0,0.0,0.0,0.0,0.0,0.0,0.0,0.0,0.0,0.0,0.0,0.0,0.0,0.0,0.0,0.0,0.0,0.0,0.0,0.0,0.0,0.0,0.0,0.0,0.0,0.0,0.0,0.0,0.0,0.0,0.0,0.0,0.0,0.0,0.0,0.0,0.0,0.0,0.0,0.0,0.0,0.0,0.0,0.0,0.0,0.0,-1.5901,-1.5316,-1.4156,-1.328,-1.1661,-0.9697,-0.9458,-0.8365,-0.6566,-0.4344,0.0,0.0,0.0,0.0,0.0,0.0,0.0,0.0,0.0,0.0,0.0,0.0,0.0,0.0,0.0,0.0,0.0,0.0,0.0,0.0,0.0,0.0,0.833,0.8542,0.3866,-0.1087,-0.2736,0.0,0.0,0.0,0.0,0.0,0.0,0.0,0.0,0.0,0.0,0.0,0.0491,-0.0528,-0.3553,-0.8482,-0.6888,-0.7086,-1.1449,-1.1576,-1.1949,-1.3246,-1.294,-1.2554,0.0,0.0,0.0,0.0,0.0,0.0,0.0,0.0,0.0,0.0,0.0,0.0,0.0,0.0,0.0,0.0,0.0,0.0,0.0,0.0,0.0,0.0,0.0,0.0,0.0,0.0,0.0,0.0,0.0,0.0,0.0,0.0,-1.83,-1.7556,0.0,0.0,0.0,0.0,0.0,0.0,0.0,0.0,0.0,0.0,0.0,0.0,0.0,-1.6565,-1.6793,-1.735,-1.7624,-1.7569,-1.7252,-1.6493,-1.5442,-1.4337,-1.2612,-1.0399,-0.9723,0.0,-0.6736,-0.6531,0.0,0.0,0.0,0.0,0.0,0.0,0.0,0.0,0.0,0.0,0.0,0.0,0.0,0.0,0.0,0.0,0.0,0.0,0.0,0.0,0.0,0.0,0.8957,0.7636,0.2042,-0.4942,-1.1718,-1.1117,-0.9299,-0.9291,-0.8846,-0.7735,0.0,0.0,0.0,0.0,0.0,0.0,0.45,-0.2734,-0.8856,-0.9581,-0.9191,-0.9752,-1.188,-1.2682,-1.3563,-1.4641,-1.4815,-1.4542,-1.4052,-1.2664,0.0,0.0,0.0,0.0,0.0,0.0,0.0,0.0,0.0,0.0,0.0,0.0,0.0,0.0,0.0,0.0,0.0,0.0,0.0,0.0,0.0,0.0,0.0,0.0,0.0,0.0,0.0,0.0,0.0,-1.9951,-1.9156,-1.7904,-1.7817,-1.6797,0.0,0.0,0.0,0.0,0.0,0.0,0.0,0.0,0.0,-1.8054,-1.8317,-1.8762,-1.9464,-1.9939,-1.9958,-1.9393,-1.8601,-1.7301,-1.5636,-1.4476,-1.2565,-0.996,-1.0114,-0.8894,-0.6934,-0.7007,-0.7087,-0.6972,0.0,0.0,0.0,0.0,-0.2519,-0.1093,0.0688,0.2079,0.3376,0.6111,0.0,0.0,0.0,0.0,0.0,0.0,0.0,0.9752,0.9148,0.8543,0.7289,0.369,-0.0184,-0.5349,-1.3399,-1.4579,-1.3831,-1.3063,-1.2781,-1.181,-0.919,-0.8541,0.0,0.0,0.0,-0.3588,0.1586,-0.3136,-0.7696,-0.9463,-0.9511,-1.0532,-1.2928,-1.3463,-1.46,-1.6813,-1.7029,-1.7277,-1.7881,-1.6846,-1.6169,0.0,0.0,0.0,0.0,0.0,0.0,0.0,0.0,0.0,0.0,0.0,0.0,0.0,0.0,0.0,0.0,0.0,0.0,0.0,0.0,0.0,0.0,0.0,0.0,0.0,0.0,0.0,0.0,-2.1131,-2.0509,-1.9403,-1.8895,-1.761,0.0,0.0,0.0,0.0,0.0,0.0,-1.7241,-1.7169,-1.8171,-2.0485,-2.0585,-2.099,-2.1953,-2.1699,-2.1257,-2.0527,-1.8921,-1.7301,-1.5681,-1.4085,-1.2089,-0.9763,-0.9721,-0.8746,-0.7045,-0.5801,-0.5662,-0.6386,-0.6972,-0.7439,-0.767,-0.7278,-0.6051,-0.4347,-0.2433,-0.1083,0.0627,0.4789,0.6243,0.6165,0.5978,0.0,0.0,0.0,0.0,0.8765,0.8919,0.7554,0.5069,0.0661,-0.2831,-0.7143,-1.4345,-1.6785,-1.7249,-1.6345,-1.6263,-1.5624,-1.3213,-1.0686,0.0,-0.5985,-0.5902,-0.5354,-0.3416,-0.4943,-0.7087,-0.9352,-0.9621,-1.0654,-1.3222,-1.3784,-1.5128,-1.7798,-1.8255,-1.9016,-2.007,-1.9506,-1.9096,-1.8846,0.0,0.0,0.0,0.0,0.0,0.0,0.0,0.0,0.0,0.0,0.0,0.0,0.0,0.0,0.0,0.0,0.0,0.0,0.0,0.0,0.0,0.0,0.0,0.0,0.0,0.0,0.0,0.0,0.0,-2.2976,-2.1525,0.0,0.0,0.0,0.0,-1.7081,-1.7189,-1.7679,-1.8388,-2.0138,-2.1376,-2.1912,-2.2826,-2.3312,-2.3408,-2.1425,-2.043,-2.0352,-1.7282,-1.5876,-1.6049,-1.3089,-1.1316,-1.0446,-0.8213,-0.7224,-0.6777,-0.22,-0.1842,-0.4422,-0.6695,-0.8326,-0.92,-0.7844,-0.7356,-0.7137,-0.685,-0.3935,0.0092,0.2854,0.3767,0.374,0.3724,0.517,0.0,0.0,0.843,0.9423,0.793,0.5676,0.3104,0.0285,-0.6021,-1.2614,-1.696,-1.895,-1.9949,-1.9996,-2.0304,-2.0139,-1.8852,0.0,-1.2924,-0.8736,-0.8763,-0.9241,-0.9334,-0.9426,-0.9632,-0.9758,-0.9734,-1.0456,-1.193,-1.3306,-1.4719,-1.631,-1.7687,-1.849,-1.8601,-1.8561,-1.8131,-1.7373,-1.4781,0.0,0.0,0.0,0.0,0.0,0.0,0.0,0.0,0.0,0.0,0.0,0.0,0.0,0.0,0.0,0.0,0.0,0.0,0.0,0.0,0.0,0.0,0.0,0.0,0.0,0.0,0.0,0.0,-2.4078,-2.3128,0.0,-1.9553,-1.9573,-1.9566,-1.9043,-1.9614,-2.0166,-2.0691,-2.1988,-2.2518,-2.2017,-2.301,-2.3231,-2.2542,-2.1141,-1.9693,-1.8338,-1.6746,-1.4979,-1.3101,-1.0019,-0.8576,-0.8302,-0.7492,-0.7141,-0.6982,-0.5252,-0.4346,-0.425,-0.682,-0.8008,-0.8333,-0.8606,-0.8232,-0.7483,-0.749,-0.5232,-0.2024,0.0461,0.1293,0.1292,0.13,0.1756,0.2757,0.4358,0.6554,0.816,0.7369,0.4089,0.0391,-0.2159,-0.7875,-1.3165,-1.4974,-1.8171,-2.1299,-2.3308,-2.4385,-2.4281,-2.1813,-2.0972,-1.9033,-1.4348,-1.3837,-1.374,-1.2873,-1.2849,-1.2848,-1.2848,-1.2901,-1.3489,-1.5066,-1.4713,-1.5503,-1.811,-1.7867,-1.8428,-2.0358,-2.0471,-2.0312,-2.0077,-1.8057,-1.5692,0.0,0.0,0.0,0.0,0.0,0.0,0.0,0.0,0.0,0.0,0.0,0.0,0.0,0.0,0.0,0.0,0.0,0.0,0.0,0.0,0.0,0.0,0.0,0.0,0.0,-2.5474,-2.5065,-2.5588,-2.4664,-2.3144,-2.0958,-2.1021,-2.0969,-2.0266,-2.0757,-2.135,-2.1941,-2.2914,-2.3209,-2.2542,-2.3136,-2.2988,-2.2038,-2.0217,-1.8435,-1.6636,-1.5314,-1.304,-1.0019,-0.7937,-0.7094,-0.7135,-0.7135,-0.6681,-0.5964,-0.5893,-0.5644,-0.5363,-0.7101,-0.7994,-0.8333,-0.8699,-0.8606,-0.8153,-0.7921,-0.5431,-0.2092,-0.0476,-0.0,-0.0,-0.0,-0.0,0.0289,0.1932,0.2986,0.3854,0.4532,0.2267,-0.1085,-0.4506,-0.8924,-1.2499,-1.3036,-1.7043,-2.1374,-2.3949,-2.576,-2.6476,-2.5162,-2.4486,-2.2805,-1.9152,-1.782,-1.6923,-1.592,-1.5024,-1.4826,-1.5279,-1.4945,-1.5192,-1.6844,-1.5876,-1.632,-1.9229,-1.8224,-1.8531,-2.0802,-2.1038,-2.092,-2.0598,-1.8883,-1.638,-1.3089,0.0,0.0,0.0,0.0,0.0,0.0,0.0,0.0,0.0,0.0,0.0,0.0,0.0,0.0,0.0,0.0,0.0,0.0,0.0,0.0,0.0,0.0,0.0,-2.6354,-2.6497,-2.6921,-2.7591,-2.6114,-2.4636,-2.3599,-2.2616,-2.1659,-2.0722,-2.0644,-2.1088,-2.2038,-2.2988,-2.3526,-2.3452,-2.3452,-2.2914,-2.1962,-1.8824,-1.6635,-1.5494,-1.2906,-1.0067,-0.6946,-0.7012,-0.6949,-0.6956,-0.7045,-0.5841,-0.3667,-0.3741,-0.516,-0.7414,-0.7369,-0.8247,-0.9334,-0.8059,-0.8434,-0.9384,-0.8297,-0.4575,-0.0202,-0.0101,-0.0,-0.0,-0.0202,-0.01,-0.0,-0.0,-0.1886,-0.3338,-0.0897,-0.02,-0.1599,-0.6742,-0.9375,-1.0833,-1.1589,-1.5967,-2.0231,-2.2021,-2.433,-2.6689,-2.8782,-2.6563,-2.3976,-2.2673,-2.0559,0.0,-1.8565,-1.6368,-1.5387,-1.6832,-1.5718,-1.5419,-1.695,-1.6492,-1.7001,-1.9216,-1.8824,-1.8771,-1.9461,-2.0115,-1.9785,-1.8628,-1.6981,-1.5365,-1.3804,0.0,0.0,0.0,0.0,0.0,0.0,0.0,0.0,0.0,0.0,0.0,0.0,0.0,0.0,0.0,0.0,0.0,0.0,0.0,0.0,0.0,-2.6975,-2.7502,-2.7281,-2.7015,-2.6844,-2.6841,-2.6371,-2.5441,-2.3672,-2.3231,-2.2691,-2.1659,-2.1583,-2.2038,-2.2988,-2.4036,-2.3891,-2.2467,-2.2403,-2.1556,-1.9806,-1.7398,-1.5141,-1.3155,-1.1101,-0.8432,-0.5349,-0.4825,-0.4563,-0.4656,-0.6376,-0.6739,-0.6097,-0.6132,-0.6508,-0.7175,-0.733,-0.7698,-0.816,-0.8934,-0.9652,-0.9795,-0.6273,-0.5372,-0.5158,-0.1236,-0.0,-0.0734,-0.466,-0.3081,-0.0,-0.0,-0.0502,-0.1803,-0.4951,-0.5756,-0.6142,-0.7672,-0.9145,-1.0697,-1.1964,-1.4961,-1.8506,-2.2514,-2.3832,-2.5257,-2.784,-2.8198,-2.731,-2.4898,-2.4264,-2.3607,-2.2481,-2.1677,-2.1308,-2.139,-2.016,-1.9398,-1.9751,-1.7679,-1.7207,-1.9229,-1.9145,-1.9562,-2.0916,-2.2193,-2.2212,-2.0769,-1.7663,-1.5887,0.0,0.0,0.0,0.0,0.0,0.0,0.0,0.0,0.0,0.0,0.0,0.0,0.0,0.0,0.0,0.0,0.0,0.0,0.0,0.0,0.0,0.0,-2.7226,-2.7919,-2.7243,-2.6922,-2.6668,-2.6483,-2.6094,-2.5276,-2.3672,-2.3136,-2.2616,-2.2038,-2.2038,-2.2616,-2.4036,-2.4253,-2.3818,-2.2713,-2.1707,-2.0564,-1.9036,-1.6324,-1.4045,-1.2143,-1.0425,-0.8294,-0.5891,-0.5486,-0.5324,-0.541,-0.6715,-0.7366,-0.7269,-0.7262,-0.7353,-0.7275,0.0,0.0,0.0,0.0,-0.9037,-0.8974,-0.6272,-0.5018,-0.457,-0.3931,-0.3764,-0.4013,-0.5822,-0.493,-0.3137,-0.2166,-0.2662,-0.4187,-0.7449,-0.818,-0.8255,-0.8255,-0.8911,-0.9871,-1.1401,-1.3948,-1.7252,-2.1525,-2.3507,0.0,-2.8428,-2.9304,-2.9003,-2.7435,-2.7535,-2.7389,-2.6402,-2.5322,-2.4573,-2.4419,-2.3067,-2.218,-2.2069,-2.0337,0.0,0.0,0.0,-2.144,-2.2921,-2.3267,0.0,0.0,0.0,-1.8741,-1.7601,-1.7137,0.0,0.0,-1.487,-1.4813,0.0,0.0,0.0,0.0,0.0,0.0,0.0,0.0,0.0,0.0,0.0,0.0,0.0,0.0,0.0,0.0,-2.7516,-2.8133,-2.6705,-2.6533,-2.6533,-2.6533,-2.5721,-2.4779,-2.3745,-2.284,-2.2264,-2.2188,-2.2188,-2.2914,-2.4707,-2.3963,0.0,0.0,0.0,-1.9672,-1.8461,-1.535,-1.3171,-1.1872,-1.0464,-0.8984,-0.7434,-0.7584,-0.7638,-0.7712,-0.7712,-0.7611,-0.7597,-0.7597,-0.7611,-0.7611,-0.7455,-0.7407,-0.7455,-0.7465,-0.7347,-0.7182,-0.724,0.0,0.0,-0.716,-0.892,-0.8399,-0.5384,-0.6187,-0.7593,-0.5527,-0.662,-0.8453,-0.8591,-0.8611,-0.8486,-0.8486,-0.8499,-0.892,-1.0568,-1.3246,-1.6393,-2.0197,-2.3174,-2.6305,-2.9704,-2.9992,-2.9821,-3.0024,-3.0236,-3.0218,-3.0045,-2.7832,-2.6334,-2.6516,-2.4971,0.0,-2.3978,-2.3395,-2.3203,-2.3772,-2.3428,-2.3823,-2.5104,-2.398,-2.3145,-2.2716,-2.3184,-2.2348,-1.9853,-2.1546,-2.1704,-2.0227,-1.7207,-1.6927,0.0,0.0,0.0,0.0,0.0,0.0,0.0,0.0,0.0,0.0,0.0,0.0,0.0,0.0,0.0,-2.7273,-2.7103,-2.6899,-2.6508,-2.6533,-2.6533,-2.6533,-2.6327,-2.5791,-2.4779,-2.4564,-2.4108,-2.3283,-2.3209,-2.3379,-2.3745,-2.3599,-2.2744,-2.1044,-1.9771,-1.7763,-1.4975,-1.3544,-1.1949,-1.0027,-0.9902,0.0,-0.767,-0.7705,-0.7617,-0.7604,-0.7604,-0.7604,-0.7597,-0.7597,-0.7665,-0.7753,-0.7611,-0.7624,-0.7753,-0.7655,-0.6396,-0.4986,-0.713,-0.7563,-0.7379,-0.8497,-0.8883,-0.8745,-0.7991,-0.8056,0.0,-0.7693,-0.8184,-0.8836,-0.8864,-0.8744,-0.8618,-0.8618,-0.8594,-0.9404,-1.202,-1.3311,-1.574,-2.1337,-2.3195,-2.5219,-2.9599,-3.0244,-3.0593,-3.1592,-3.1838,-3.186,-3.1794,-3.0409,-2.9288,-2.9065,-2.671,-2.5237,-2.5129,-2.4019,-2.3485,-2.3789,-2.4902,-2.6153,-2.7603,-2.6591,-2.5301,-2.394,-2.3284,-2.2024,-2.0147,-2.0808,-2.0958,-2.0575,-1.9628,-1.947,0.0,0.0,0.0,0.0,0.0,0.0,0.0,0.0,0.0,0.0,0.0,-2.8414,-2.8274,0.0,-2.8296,-2.7801,-2.7364,-2.6985,-2.6602,-2.6533,-2.6533,-2.6533,-2.6025,-2.5511,-2.5087,-2.4564,-2.4253,-2.4253,-2.3818,-2.3745,-2.4181,-2.2818,-2.1425,-2.043,-1.7763,-1.5666,-1.4103,-1.2037,-1.06,-0.9635,-0.7624,-0.6351,-0.5691,-0.7221,-0.7848,-0.7848,-0.7841,-0.7841,-0.7848,-0.7841,-0.7882,-0.7943,-0.7851,-0.7885,-0.8065,-0.7929,-0.6282,-0.4262,-0.406,-0.6107,-0.8933,-0.8883,-0.889,-0.8843,-0.8669,-0.8629,-0.8615,-0.8528,-0.8621,-0.8869,-0.8838,-0.8845,-0.873,-0.873,-0.8777,-0.9595,-1.2695,-1.3627,-1.5689,-2.1945,-2.3911,-2.6007,-3.0533,-3.1847,-3.2555,-3.3254,-3.3946,-3.3848,-3.2431,-3.1724,-3.0739,-2.9207,-2.7805,-2.6956,-2.6849,-2.6206,-2.5955,-2.6045,-2.6717,-2.7356,-2.7548,-2.7082,-2.6329,-2.5159,-2.5539,-2.5012,-2.3565,-2.461,-2.4283,-2.2694,-2.2537,-2.1881,0.0,0.0,0.0,0.0,0.0,0.0,0.0,-2.6764,-2.7703,-2.8623,-2.9828,-3.0464,-2.9601,-2.99,-2.9765,-2.8206,-2.7802,-2.7471,-2.685,-2.6602,-2.6465,-2.6233,-2.5511,-2.5016,-2.5016,-2.4108,-2.3891,-2.4921,-2.4036,-2.3745,-2.442,-2.1878,-2.0101,-1.9459,-1.598,-1.3835,-1.3274,-1.087,-0.9494,-0.928,-0.6042,-0.3936,-0.3046,-0.641,-0.7985,-0.7992,-0.7466,-0.726,-0.7272,-0.726,-0.7566,-0.7992,-0.8037,-0.7769,-0.7461,-0.7874,-0.6813,-0.4702,-0.1225,-0.3138,-0.731,-0.8555,-0.8883,-0.8836,-0.8804,-0.8757,-0.8757,-0.8757,-0.8757,-0.8791,-0.8906,-0.894,-0.8947,-0.894,-0.9154,-1.0177,-1.3417,-1.4532,-1.6745,-2.3037,-2.5326,-2.7583,-3.1984,-3.3744,-3.4626,-3.4919,-3.5815,-3.5647,-3.3307,-3.2634,-3.1446,-2.868,-2.8087,-2.7833,-2.7833,-2.7853,-2.7891,-2.7968,-2.7701,-2.729,-2.6619,-2.6679,-2.6575,-2.6067,-2.7695,-2.8026,-2.6894,-2.8515,-2.768,-2.4765,-2.4695,-2.3623,-2.2146,-2.1801,-2.1838,-2.3087,-2.4239,-2.5462,0.0,-2.8698,-3.0114,-3.0224,-3.1342,-3.1899,-3.0418,-3.0708,-3.0661,-2.9101,-2.8233,-2.767,-2.7604,-2.6985,-2.6164,-2.53,-2.5087,-2.5016,-2.5016,-2.4108,-2.3891,-2.4921,-2.4036,-2.3158,-2.2414,-2.1141,-1.9049,-1.623,-1.4867,-1.2826,-1.0012,-1.0006,-0.9156,-0.7375,-0.7515,-0.5031,-0.0601,-0.5651,-0.8012,-0.7885,-0.5432,-0.4418,-0.4422,-0.4418,-0.5837,-0.8006,-0.8051,-0.6524,-0.4771,-0.713,-0.7792,-0.6931,-0.1783,-0.0448,-0.19,-0.7192,-0.889,-0.8856,-0.8836,-0.8927,-0.8913,-0.8913,-0.8927,-0.883,-0.894,-0.8954,-0.8856,-0.8947,-0.9919,-1.1791,-1.5006,-1.6904,-1.9794,-2.5953,-2.7563,-2.9204,-3.3429,-3.4742,-3.5547,-3.6674,-3.6989,-3.6652,-3.5568,-3.4119,-3.1924,-2.8976,-2.73,-2.6372,-2.6372,-2.6409,-2.6445,-2.6698,-2.5646,-2.5194,-2.5357,-2.5863,-2.6241,-2.6323,-2.6952,-2.7277,-2.7277,-2.7644,-2.6907,-2.5111,-2.5263,-2.4156,-2.3748,-2.3761,-2.394,-2.5397,-2.6197,-2.7109,-2.9297,-3.0758,-3.1863,-3.2652,-3.3624,-3.4036,-3.2971,-3.2709,-3.2118,-3.0572,-2.9261,-2.8298,-2.7802,-2.7027,-2.5931,-2.4325,-2.4636,-2.4779,-2.4181,-2.4253,-2.4325,-2.4108,-2.3231,-2.2167,-2.1141,-1.8891,-1.6716,-1.4867,-1.2627,-1.091,-0.9818,-0.8852,-0.8119,-0.7627,-0.4734,-0.1312,0.2219,-0.0,-0.1905,-0.3307,-0.2208,-0.1708,-0.1708,-0.1708,-0.2326,-0.3687,-0.6813,-0.734,-0.644,-0.7539,-0.8029,-0.7259,-0.1876,-0.0,-0.0441,-0.2868,-0.5292,-0.7396,-0.8608,-0.8856,-0.885,-0.885,-0.8863,-0.8647,-0.7487,-0.8054,-0.921,-1.0151,-1.1568,-1.3586,-1.6956,-1.9604,-2.2575,-2.7046,-2.9249,-3.1331,-3.4322,-3.5696,-3.6776,-3.7966,-3.7146,-3.5877,-3.4439,-3.2097,-2.9367,-2.6226,-2.5221,-2.4795,-2.5018,-2.5052,-2.5196,-2.5659,-2.5243,-2.4852,-2.4625,-2.5943,-2.6914,-2.747,-2.8665,-2.9775,-3.0809,-2.9935,-2.8584,-2.6899,-2.5977,-2.4545,-2.4971,-2.5539,-2.6301,-2.7378,-2.8046,-2.9045,-3.1155,-3.2221,-3.3048,-3.403,-3.4643,-3.4864,-3.417,-3.3649,-3.2833,-3.1273,-2.9879,-2.8684,-2.7802,-2.7027,-2.5721,-2.3745,-2.442,-2.4253,-2.2446,-2.343,-2.3722,-2.2744,-2.1714,-2.0526,-1.9127,-1.6635,-1.467,-1.3536,-1.1,-0.8909,-0.7196,-0.7309,-0.6095,-0.3528,0.0302,0.3234,0.5065,0.514,0.4014,0.2202,0.221,0.1409,-0.0,-0.0,-0.0,-0.0519,-0.5868,-0.8062,-0.8259,-0.8297,-0.7188,-0.5186,-0.1322,-0.1101,-0.2418,-0.2418,-0.4388,-0.704,-0.8491,-0.889,-0.8693,-0.7891,-0.8389,-0.8546,-0.6566,-0.8039,-1.0339,-1.1854,-1.3719,-1.6101,-2.001,-2.2689,-2.5445,-2.9082,-3.1556,-3.3515,-3.5449,-3.6505,-3.7394,-3.8187,-3.6398,-3.469,-3.3668,-3.0059,-2.637,-2.3519,-2.3231,-2.344,-2.3809,-2.3921,-2.4156,-2.4738,-2.4377,-2.4079,-2.3738,-2.5535,-2.6987,-2.8163,-2.9865,-3.1433,-3.2619,-3.1433,-2.9605,-2.737,-2.628,-2.4847,-2.5406,-2.6666,-2.8321,-2.8288,-2.979,-3.1461,-3.2117,-3.2884,-3.3505,-3.3538,-3.3583,-3.3443,-3.2788,-3.2625,-3.213,-3.054,-2.9566,-2.8684,-2.7802,-2.7027,-2.5721,-2.3745,-2.442,-2.3503,-1.9492,-2.0951,-2.1618,-2.0584,-1.9631,-1.8089,-1.5904,-1.4796,-1.3449,-1.1682,-1.0679,-0.6798,-0.0,-0.5295,-0.2718,0.751,0.7711,0.7818,0.7918,0.7899,0.7785,0.7785,0.7805,0.4847,-0.0,-0.0,-0.0,-0.0521,-0.5858,-0.8381,-0.8832,-0.8856,-0.5162,-0.0224,-0.0112,-0.381,-0.8673,-0.8673,-0.8765,-0.8856,-0.889,-0.8858,-0.8249,-0.5488,-0.696,-0.8949,-0.6788,-0.947,-1.285,-1.3728,-1.6168,-1.9642,-2.4281,-2.6475,-2.8778,-3.3337,-3.4643,-3.5497,-3.687,-3.6917,-3.6749,-3.6796,-3.4712,-3.3519,-3.4464,-2.8795,-2.3878,-2.1843,-2.187,-2.2199,-2.2557,-2.2751,-2.3212,-2.3866,-2.2674,-2.2217,-2.2392,-2.4386,-2.6424,-2.8163,-2.9865,-3.0771,-3.09,-3.0771,-2.9065,-2.5651,-2.5846,-2.5063,-2.6955,-2.759,-2.8525,-2.938,-3.0511,-3.1583,-3.221,-3.2518,-3.2658,-3.2704,-3.2586,-3.241,-3.2155,-3.1752,-3.1247,-3.0701,-2.8729,-2.71,-2.679,-2.5508,-2.4036,-2.2691,-2.2774,-2.1933,-1.9256,-2.0159,-2.0217,-1.8506,-1.7332,-1.6108,-1.4725,-1.3237,-1.1901,-1.0688,-0.5782,-0.2054,0.0099,0.1803,0.444,0.8026,0.8026,0.8012,0.7992,0.7979,0.7979,0.7979,0.7999,0.6983,0.5056,0.1442,-0.23,-0.6056,-0.7858,-0.7523,-0.6232,-0.8196,-0.7644,-0.5601,-0.3644,-0.4292,-0.6284,-0.8297,-0.9023,-0.9099,-0.8997,-0.7492,-0.6285,-0.747,-1.1803,-1.55,-1.3203,-1.5513,-1.8906,-1.9823,-2.2364,-2.5258,-2.7974,-3.0477,-3.2582,-3.4142,-3.56,-3.6481,-3.6327,-3.6549,-3.6156,-3.4537,-3.3369,-3.1728,-2.9012,-2.6464,-2.3984,-2.13,-2.1202,-2.1507,-2.1825,-2.1949,-2.2254,-2.2863,-2.2471,-2.2928,-2.4415,-2.6244,-2.8163,-2.9865,-3.0513,-3.0771,-3.0771,-2.841,-2.6816,-2.5846,-2.4758,-2.4077,-2.7103,-2.7755,-2.8423,-2.9106,-2.9826,-3.0481,-3.0637,-3.0535,-3.0398,-3.0423,-3.0568,-3.0544,-3.0377,-3.008,-2.985,-2.9652,-2.773,-2.6113,-2.5804,-2.4738,-2.3285,-2.1659,-2.1404,-2.0468,-1.8043,-1.7974,-1.7557,-1.6242,-1.5477,-1.4345,-1.2587,-1.1563,-1.0445,-0.9107,-0.4818,-0.0892,0.2807,0.6263,0.8019,0.8006,0.8006,0.7992,0.7959,0.7972,0.7972,0.7972,0.7992,0.8039,0.7388,-0.0104,-0.5413,-0.8904,-0.8941,-0.7796,-0.627,-0.8252,-0.8957,-0.8706,-0.6922,-0.6222,-0.6559,-0.8418,-0.9167,-0.925,-0.9138,-0.7253,-0.5789,-0.8648,-1.3644,-1.8106,-1.797,-2.0057,-2.2662,-2.4349,-2.6702,-2.9044,-3.1157,-3.3086,-3.4581,-3.4969,-3.5966,-3.6553,-3.586,-3.5538,-3.469,-3.2602,-3.1701,-2.9775,-2.6236,-2.5036,-2.3597,-2.1064,-2.1096,-2.139,-2.1683,-2.1267,-2.1395,-2.2552,-2.1888,-2.2754,-2.5368,-2.6573,-2.8032,-2.9865,-2.9865,-2.9605,-2.8935,-2.6682,-2.5393,-2.4939,-2.409,-2.3848,-2.5959,-2.7138,-2.8055,-2.7318,-2.7802,-2.8189,-2.7369,-2.6952,-2.6765,-2.6817,-2.743,-2.7848,-2.7366,-2.7706,-2.7842,-2.7261,-2.6426,-2.5523,-2.4715,-2.4503,-2.3431,-2.0682,-2.0198,-1.8928,-1.5928,-1.4601,-1.3917,-1.3749,-1.39,-1.2698,-0.9695,-0.9571,-0.8713,-0.6813,-0.703,-0.2312,0.7885,0.8012,0.8006,0.7972,0.7972,0.7959,0.8038,0.7965,0.7872,0.7572,0.7604,0.7496,0.6572,-0.4235,-0.879,-0.8941,-0.896,-0.889,-0.889,-0.9144,-0.9184,-0.9171,-0.9339,-0.9339,-0.9218,-0.9483,-0.9408,-0.9395,-0.9538,-0.8201,-0.7075,-0.9334,-1.3131,-1.7361,-2.106,-2.3007,-2.4642,-2.7361,-2.9291,-3.1142,-3.397,-3.4531,-3.492,-3.6148,-3.5963,-3.5647,-3.5671,-3.4119,-3.253,-3.1112,-2.9785,-2.8288,-2.6294,-2.4456,-2.2774,-2.1303,-2.1443,-2.1737,-2.2004,-2.0637,-2.0625,-2.2709,-2.1183,-2.1833,-2.5502,-2.5517,-2.6439,-2.8295,-2.8163,-2.7254,-2.5532,-2.5725,-2.4954,-2.338,-2.3941,-2.4209,-2.4906,-2.5492,-2.5542,-2.4362,-2.4204,-2.3733,-2.1658,-2.1724,-2.2366,-2.2745,-2.3509,-2.4123,-2.3913,-2.4078,-2.3816,-2.2913,-2.2262,-2.1809,-2.1521,-2.0938,-2.0191,-1.9432,-1.7865,-1.6226,-1.4573,-1.3519,-1.2266,-1.08,-1.0672,-1.0697,-1.0726,-0.5321,-0.2155,-0.1793,0.19,0.5227,0.7979,0.7985,0.7979,0.7972,0.7972,0.7972,0.7965,0.7972,0.567,0.1738,0.174,0.0621,-0.1581,-0.4411,-0.697,-0.89,-0.9042,-0.9123,-0.9123,-0.9273,-0.9327,-0.934,-0.9469,-0.9435,-0.934,-0.9381,-0.9462,-0.9557,-0.9459,-1.039,-1.1695,-1.3827,-1.8364,-2.2988,-2.4336,-2.7304,-3.0359,-3.2229,-3.373,-3.509,-3.6257,-3.6478,-3.6382,-3.6057,-3.4448,-3.3268,-3.3746,-3.2499,-3.1325,-3.1015,-3.0009,-2.8553,-2.6554,-2.5231,-2.3884,-2.2217,-2.2352,-2.2565,-2.2632,-2.229,-2.2356,-2.2859,-2.2435,-2.376,-2.737,-2.6172,-2.6956,-3.0125,-2.7487,-2.6041,-2.5891,-2.4634,-2.3963,-2.3981,-2.4128,-2.4315,-2.3169,-2.279,-2.2355,-2.2766,-2.1148,-1.9062,-1.7411,-1.7279,-1.7952,-1.9278,-2.0138,-2.0663,-2.0937,-2.1154,-2.1174,-2.0728,-2.0068,-1.9651,-1.9651,-1.8737,-1.7796,-1.6911,-1.5209,-1.371,-1.2638,-1.1783,-1.095,-1.0205,-0.9899,-0.8675,-0.623,-0.2059,0.1189,0.341,0.6448,0.7979,0.7972,0.7965,0.7959,0.7959,0.7965,0.7353,0.6221,0.5018,0.2732,-0.0514,-0.2988,-0.5035,-0.6465,-0.6413,-0.7489,-0.9064,-0.911,-0.9205,-0.9273,-0.9422,-0.9483,-0.9628,-1.0554,-1.0808,-1.0718,-0.9829,-1.0101,-1.0882,-1.1454,-1.3495,-1.6026,-1.857,-2.2576,-2.6534,-2.8081,-3.0809,-3.3337,-3.4166,-3.4969,-3.5502,-3.5425,-3.5346,-3.5135,-3.4411,-3.316,-3.1952,-3.1126,-3.0315,-2.953,-2.892,-2.8445,-2.7492,-2.5548,-2.526,-2.4463,-2.2741,-2.2766,-2.2859,-2.2859,-2.216,-2.2022,-2.2859,-2.2819,-2.4139,-2.6839,-2.6039,-2.6501,-2.8643,-2.5997,-2.4687,-2.5015,-2.42,-2.3888,-2.4209,-2.4329,-2.4476,-2.0805,-1.9446,-1.8141,-2.0336,-1.7385,-1.3867,-1.336,-1.325,-1.3817,-1.6133,-1.7106,-1.7646,-1.786,-1.8406,-1.8836,-1.8834,-1.8192,-1.7712,-1.7712,-1.6875,-1.5705,-1.4139,-1.288,-1.1701,-1.0676,-1.0027,-0.992,-1.0557,-0.9427,-0.5751,0.1077,0.1192,0.3207,0.7879,0.7985,0.7979,0.7972,0.7952,0.7739,0.7329,0.7347,0.5922,0.3393,0.0802,-0.0912,-0.2057,-0.6872,-0.8969,-0.9124,-0.9022,-0.9064,-0.9184,-0.9205,-0.9293,-0.9429,-0.9815,-0.9989,-1.0263,-1.2222,-1.2935,-1.29,-1.1088,-1.1526,-1.3168,-1.4595,-1.7038,-2.0033,-2.319,-2.6111,-2.8879,-3.1639,-3.3557,-3.4581,-3.4483,-3.4433,-3.4228,-3.3276,-3.3064,-3.2893,-3.2411,-3.2135,-3.1224,-2.8828,-2.8545,-2.817,-2.6591,-2.6527,-2.614,-2.4543,-2.496,-2.4742,-2.3065,-2.2806,-2.2819,-2.2859,-2.1459,-2.1183,-2.2859,-2.2779,-2.3582,-2.5442,-2.5322,-2.547,-2.607,-2.4038,-2.309,-2.3392,-2.3339,-2.3627,-2.3812,-2.4061,-2.4327,-1.7977,-1.5204,-1.1497,-1.0551,-0.8968,-0.7509,-0.7016,-0.8891,-1.1235,-1.2733,-1.4657,-1.553,-1.3644,-1.4212,-1.4378,-1.2564,-1.2808,-1.3307,-1.3307,-1.3124,-1.3222,-1.3867,-1.2685,-1.1499,-1.0661,-1.0508,-0.9673,-0.7938,-0.4051,0.0697,0.6342,0.6642,0.7042,0.7952,0.8045,0.7959,0.7972,0.7972,0.6537,0.3601,0.3604,0.26,0.0599,-0.1522,-0.5051,-0.9584,-0.914,-0.9622,-1.0655,-0.9586,-0.9222,-0.9184,-0.9435,-0.9544,-0.9703,-1.1152,-1.1695,-1.1943,-1.3674,-1.5084,-1.5891,-1.456,-1.5183,-1.6629,-1.7675,-2.0174,-2.3299,-2.618,-2.9106,-3.1739,-3.3557,-3.5041,-3.5763,-3.4678,-3.4596,-3.4645,-3.3794,-3.3356,-3.3098,-3.2931,-3.197,-3.0509,-2.8765,-2.953,-2.9903,-2.817,-2.8389,-2.8009,-2.6264,-2.518,-2.4043,-2.2606,-2.2498,-2.2592,-2.2846,-2.2585,-2.2585,-2.2859,-2.2846,-2.3749,-2.5784,-2.4454,-2.447,-2.626,-2.2885,-2.133,-2.1594,-2.0003,-2.0125,-2.1989,-2.2037,-2.2967,-1.2842,-0.9774,-0.6595,-0.5052,-0.4608,-0.4665,-0.5062,-0.6798,-0.8917,-1.091,-1.1775,-1.2043,-1.1434,-1.1861,-1.198,-1.1359,-1.1693,-1.1843,-1.1466,-1.1338,-1.1565,-1.214,-0.9437,-0.7368,-0.6995,-0.8016,-0.7216,-0.3518,0.0099,0.3817,0.7798,0.7972,0.7952,0.8038,0.7952,0.7959,0.7972,0.5218,0.2496,-0.0099,-0.0994,-0.2491,-0.451,-0.7321,-0.9989,-1.2192,-1.1442,-1.1531,-1.2459,-1.1784,-1.1716,-1.1914,-1.2104,-1.2115,-1.2447,-1.4035,-1.4528,-1.5011,-1.7479,-1.892,-1.9604,-2.0554,-2.0686,-2.08,-2.2023,-2.5021,-2.8401,-3.0563,-3.2704,-3.4534,-3.5234,-3.5379,-3.5042,-3.39,-3.3086,-3.2405,-3.1986,-3.1943,-3.1747,-3.0878,-3.0081,-2.8801,-2.6365,-2.7211,-2.7811,-2.6122,-2.6743,-2.6861,-2.5138,-2.3636,-2.2134,-2.0901,-2.0818,-2.0931,-2.1207,-2.1233,-2.1718,-2.2846,-2.3788,-2.4337,-2.4524,-2.4677,-2.4889,-2.5228,-2.2476,-2.1155,-2.1413,-1.9308,-1.9522,-2.1601,-2.1601,-2.2657,-0.7025,-0.4017,-0.166,-0.0075,-0.0913,-0.2504,-0.4087,-0.5812,-0.7689,-0.9838,-0.9749,-0.941,-0.9749,-1.0096,-1.0376,-1.0696,-1.0757,-1.0592,-0.9901,-0.897,-0.8738,-0.9739,-0.5646,-0.2352,-0.1201,-0.3311,-0.3087,0.0882,0.3483,0.5737,0.7879,0.7952,0.8038,0.8045,0.7965,0.7459,0.6337,0.21,-0.1494,-0.4362,-0.5887,-0.7534,-0.9322,-1.2274,-1.3594,-1.3456,-1.3182,-1.3439,-1.4151,-1.3871,-1.4015,-1.4381,-1.4761,-1.5003,-1.5279,-1.7077,-1.7749,-1.8237,-2.1262,-2.2513,-2.3197,-2.5892,-2.5771,-2.4907,-2.6542,-2.9621,-3.2872,-3.4435,-3.5571,-3.6358,-3.6073,-3.526,-3.4199,-3.3146,-3.1532,-3.0234,-3.0332,-3.0393,-3.002,-2.8664,-2.817,-2.697,-2.4054,-2.4901,-2.5497,-2.3807,-2.4655,-2.4885,-2.3296,-2.1505,-1.9889,-1.826,-1.8494,-1.9032,-1.9693,-1.9764,-2.0712,-2.2616,-2.4224,-2.4573,-2.3407,-2.4833,-2.4975,-2.3679,-2.1602,-2.05,-2.023,-1.8723,-1.9025,-2.0991,-2.0991,-2.2049,-0.1594,0.1523,0.438,0.6743,0.4232,0.0465,-0.1946,-0.5443,-0.8429,-0.8983,-0.9836,-0.9826,-0.7834,-0.8273,-0.8719,-0.7672,-0.7541,-0.7507,-0.7457,-0.3706,-0.2547,-0.6866,-0.3083,0.1755,0.6478,0.4542,0.3142,0.3598,0.6132,0.7759,0.7945,0.8038,0.8052,0.7972,0.7972,0.5627,0.0801,0.02,-0.3296,-0.9838,-1.0414,-1.1089,-1.2074,-1.2791,-1.3739,-1.4955,-1.3795,-1.4245,-1.5603,-1.4372,-1.4043,-1.4508,-1.6042,-1.6588,-1.6961,-1.9918,-2.0955,-2.1195,-2.3023,-2.4522,-2.5954,-2.7504,-2.8018,-2.8496,-3.0858,-3.2773,-3.4459,-3.5858,-3.6263,-3.6168,-3.4872,-3.4718,-3.4481,-3.2662,-3.1228,-3.0312,-3.0742,-2.963,-2.8545,-2.8426,-2.7194,-2.5619,-2.3931,-2.4901,-2.5497,-2.3807,-2.3698,-2.3171,-2.1478,-1.9751,-1.7485,-1.4146,-1.5497,-1.7432,-1.9287,-1.9657,-2.049,-2.2324,-2.3117,-2.3561,-2.3714,-2.4125,-2.3508,-2.1864,-1.9897,-1.7947,-1.5989,-1.5845,-1.6904,-1.8874,-1.8874,-1.993,0.1679,0.4609,0.7226,0.9047,0.5472,0.0854,-0.1716,-0.4981,-0.7439,-0.7774,-0.8185,-0.8185,-0.7312,-0.7489,-0.7672,-0.7156,-0.7135,-0.5599,-0.1247,0.517,0.7556,0.2365,0.221,0.395,0.7684,0.7052,0.6426,0.6431,0.7347,0.7952,0.7959,0.7959,0.7965,0.7972,0.4818,0.2204,-0.0,-0.4444,-0.8643,-1.2552,-1.3902,-1.5257,-1.6539,-1.6649,-1.7168,-1.7798,-1.6624,-1.6501,-1.7181,-1.7909,-1.8367,-1.8612,-2.0345,-2.1534,-2.2466,-2.4614,-2.5395,-2.563,-2.7144,-2.7542,-2.7707,-2.9011,-3.0037,-3.1159,-3.291,-3.4509,-3.5763,-3.6263,-3.5858,-3.5066,-3.4581,-3.365,-3.264,-3.135,-3.0007,-2.9189,-2.9356,-2.8051,-2.6712,-2.5757,-2.5024,-2.4054,-2.2341,-2.3435,-2.4301,-2.3698,-2.3574,-2.2923,-2.1227,-1.8581,-1.6043,-1.3578,-1.4041,-1.5346,-1.7421,-1.7662,-1.9125,-2.251,-2.2913,-2.334,-2.4008,-2.2955,-2.2092,-2.159,-1.8421,-1.6294,-1.554,-1.4322,-1.4782,-1.6751,-1.6751,-1.7815,0.3874,0.6451,0.8435,0.9448,0.5549,0.0854,-0.1712,-0.4545,-0.6715,-0.7014,-0.7082,-0.7088,-0.7136,-0.7143,-0.7054,-0.7074,-0.7121,-0.4782,0.1706,0.8018,1.1405,1.0158,0.712,0.617,0.8534,0.83,0.797,0.7959,0.7952,0.7959,0.7972,0.6542,0.5627,0.5627,0.2004,-0.1103,-0.3324,-0.9075,-1.2888,-1.476,-1.662,-1.8353,-1.9837,-1.993,-2.0015,-2.0158,-1.9564,-1.9356,-1.947,-2.1088,-2.2119,-2.275,-2.4446,-2.5919,-2.7245,-2.8785,-2.9036,-2.8866,-2.9974,-2.9408,-2.8495,-2.9807,-3.1214,-3.2431,-3.3453,-3.4775,-3.5763,-3.5763,-3.4676,-3.343,-3.3568,-3.2358,-3.0924,-2.991,-2.9053,-2.8289,-2.7811,-2.647,-2.5024,-2.3822,-2.3201,-2.2466,-2.1362,-2.209,-2.2841,-2.2841,-2.2438,-2.1407,-1.9713,-1.698,-1.4557,-1.2676,-1.2592,-1.3567,-1.6014,-1.6338,-1.825,-2.2536,-2.2899,-2.3073,-2.3271,-2.2044,-2.0809,-1.9779,-1.6904,-1.5234,-1.4629,-1.3722,-1.4176,-1.554,-1.554,-1.6024,0.5116,0.7047,0.7863,0.8205,0.486,0.085,-0.152,-0.4357,-0.6559,-0.6865,-0.6932,-0.6973,-0.7115,-0.7143,-0.7143,-0.7143,-0.7105,-0.5344,-0.0366,0.1771,0.6056,1.4671,1.1094,0.8674,1.0386,0.9045,0.8038,0.8038,0.7959,0.7972,0.7972,0.3004,0.01,0.01,-0.0,-0.3525,-1.1051,-1.2925,-1.4898,-1.6792,-1.8467,-1.9943,-2.1213,-2.1478,-2.1643,-2.1676,-2.2055,-2.2419,-2.2659,-2.3145,-2.4299,-2.5955,-2.7409,-2.887,-3.02,-3.1658,-3.1418,-3.0307,-3.0307,-2.9408,-2.8495,-2.9807,-3.1214,-3.2331,-3.2331,-3.3254,-3.4385,-3.4385,-3.2814,-3.1105,-3.1566,-3.0944,-2.993,-2.8674,-2.8408,-2.7931,-2.6349,-2.4778,-2.3574,-2.3574,-2.2215,-2.1109,-2.1109,-2.1109,-2.1109,-2.1109,-1.9674,-1.7859,-1.6172,-1.4536,-1.2869,-1.0864,-1.0853,-1.2342,-1.5674,-1.6257,-1.8172,-2.211,-2.2993,-2.2718,-2.1349,-2.146,-1.9629,-1.5693,-1.554,-1.4475,-1.2501,-1.4475,-1.554,-1.554,-1.554,-1.457,0.5599,0.7297,0.8461,0.8904,0.5419,0.0155,-0.6215,-0.7604,-0.787,-0.9204,-0.9289,-0.9253,-0.9452,-0.9479,-0.9314,-0.8679,-0.8029,-0.6211,-0.2476,0.164,0.623,1.1411,1.0502,0.9197,0.8871,0.8315,0.8045,0.7959,0.7972,0.6437,0.2704,-0.121,-0.3243,-0.3243,-0.7372,-1.1325,-1.5154,-1.6814,-1.7896,-1.8581,-2.1393,-2.2941,-2.3278,-2.3402,-2.3613,-2.3859,-2.2938,-2.3233,-2.4384,-2.6,-2.7314,-2.8614,-3.0261,-3.186,-3.3086,-3.3552,-3.2855,-3.1622,-3.1622,-3.0224,-2.8495,-2.9807,-3.1214,-3.2331,-3.2331,-3.3254,-3.4064,-3.2552,-3.1741,-3.1262,-3.0741,-2.9603,-2.8523,-2.8437,-2.6729,-2.5024,-2.4425,-2.3076,-2.1853,-2.1853,-2.1475,-2.1109,-2.1109,-2.1109,-2.0716,-1.9546,-1.8923,-1.774,-1.5016,-1.4101,-1.311,-1.133,-1.1084,-1.2465,-1.5684,-1.6389,-1.8429,-2.2536,-2.1988,-2.1523,-2.146,-1.8833,-1.6751,-1.554,-1.4176,-1.3112,-1.2501,-1.3112,-1.3472,-1.3581,-1.3581,-1.3362,0.5829,0.7179,0.7359,0.6022,0.3377,-0.0789,-0.8139,-0.8946,-0.8585,-1.0214,-1.0373,-1.0343,-1.0565,-1.0605,-1.0435,-0.9903,-0.8852,-0.7053,-0.3971,0.0384,0.4785,0.906,0.9797,0.9541,0.8227,0.8032,0.8046,0.7958,0.6037,0.2862,-0.1527,-0.5935,-0.9078,-1.0569,-1.3545,-1.6021,-1.7909,-1.9491,-2.058,-2.1244,-2.4519,-2.5819,-2.533,-2.5819,-2.6237,-2.6506,-2.5711,-2.6144,0.0,-2.9044,-3.0423,-3.1595,-3.2696,-3.3674,-3.4385,-3.4385,-3.3155,-3.152,-3.152,-3.012,-2.8388,-2.9303,-3.0224,-3.1102,-3.1793,-3.2574,-3.2734,-3.0933,-3.0758,-3.0812,-2.9642,-2.8658,-2.7766,-2.6798,-2.5024,-2.345,-2.2827,-2.1853,-2.1109,-2.1109,-2.1109,-2.1109,-2.1109,-2.0589,-1.9711,-1.877,-1.7631,-1.6338,-1.4585,-1.2643,-1.1337,-1.1351,-1.1287,-1.2328,-1.4995,-1.547,-1.7612,-2.1862,-2.0507,-1.943,-1.9306,-1.6904,-1.5081,-1.4322,-1.3112,-1.2501,-1.2501,-1.2562,-1.2637,-1.2732,-1.2793,-1.2868,0.0,0.6205,0.5241,0.0723,-0.0565,-0.227,-0.8082,-0.8946,0.0,-1.0335,-1.0616,-1.0679,-1.0758,-1.0799,-1.0799,-1.0676,-0.9814,-0.8174,-0.5103,-0.1486,0.2601,0.7706,0.933,0.9598,0.8405,0.8097,0.7788,0.7382,0.2412,-0.2108,-0.5344,-1.1419,-1.6547,-2.0444,-1.8817,-1.8454,-1.9591,-2.1478,-2.3073,-2.4564,-2.7642,-2.8407,-2.7216,-2.8587,-2.9204,-2.9168,-2.9669,-3.0665,-3.1901,-3.2152,-3.3155,-3.4483,-3.4288,-3.4288,-3.4385,-3.4288,-3.2655,-3.0411,-3.0307,-2.9513,-2.8601,-2.8641,-2.8829,-2.9461,-3.1174,-3.1333,-3.0781,-2.9937,-2.9809,-2.9776,-2.8235,-2.7902,-2.7331,-2.4301,-2.345,-2.2966,-2.1475,-2.1122,-2.1149,-2.1149,-2.1162,-2.1176,-2.1036,-1.9608,-1.8512,-1.8365,-1.5948,-1.4188,-1.3959,-1.0156,-0.8364,-1.0975,-1.1477,-1.2287,-1.3957,-1.4081,-1.5839,-2.0203,-1.8675,-1.6953,-1.5523,-1.5387,-1.4475,-1.2501,-1.2501,-1.2508,-1.2515,-1.2664,-1.2739,-1.2752,-1.2895,-1.2969,-0.3092,0.0,0.5751,0.0814,-0.2951,-0.6536,0.0,-1.0378,-1.0213,-1.2757,-1.3029,-1.2696,-1.2197,-1.2745,-1.2805,-1.1385,-1.1744,-1.0993,-0.7442,-0.0381,0.5401,0.8163,0.94,0.9593,0.8594,0.8223,0.6241,0.1891,-0.1784,-0.6182,-1.1737,-1.7548,-2.1512,-2.3099,-2.4752,-2.4843,-2.3129,-2.5503,-2.6919,-2.7276,-2.879,-2.9099,-2.8466,-3.0296,-3.0665,-3.0074,-3.083,-3.2233,-3.3707,-3.2687,-3.3749,-3.5763,-3.365,-3.3453,-3.4288,-3.3155,-3.2331,-3.1724,-3.0618,-3.0721,-3.1381,-3.175,-3.1466,-3.1086,-3.185,-3.1268,-3.0353,-3.0133,-2.941,-2.8755,-2.84,-2.654,-2.4548,-2.3822,-2.2591,-2.1601,-2.1235,-2.1283,-2.1443,-2.1443,-2.163,-2.1372,-1.9903,-1.9376,-1.805,-1.5413,-1.4808,-1.3269,-0.9608,-0.8292,-0.8652,-1.1259,-1.1687,-1.2532,-1.4642,-1.4796,-1.5867,-1.8196,-1.6889,-1.5902,-1.5531,-1.4022,-1.2958,-1.2501,-1.2501,-1.2562,-1.2678,-1.2712,-1.28,-1.2935,-1.2956,-1.3037,-0.4814,-0.2681,-0.0431,-0.2974,-0.5996,-0.888,-1.0875,-1.1122,-1.1577,-1.3678,-1.3961,-1.3516,-1.2671,-1.3395,-1.3668,-1.2224,-1.2405,-1.1242,-0.6816,-0.0,0.5458,0.7935,0.8996,0.9212,0.8434,0.4537,-0.1787,-1.1292,-1.1168,-1.3132,-1.9123,-2.1761,-2.3993,-2.5818,-2.8559,-2.9189,-2.74,-2.9027,-2.9471,-2.8901,-3.0899,-3.0716,-2.8696,-3.0917,-3.1683,-3.1214,-3.1762,-3.2902,-3.4385,-3.3575,-3.3749,-3.4338,-3.2833,-3.2431,-3.2555,-3.2331,-3.1927,-3.1316,-3.0514,-3.0454,-3.0832,-3.1506,-3.1381,-3.0893,-3.0616,-2.9949,-2.9408,-2.9408,-2.8855,-2.8051,-2.6608,-2.4901,-2.3186,-2.1672,-2.1209,-2.0882,-2.0234,-2.0902,-2.159,-2.1724,-2.1884,-2.145,-1.9554,-1.8474,-1.7027,-1.4268,-1.3448,-1.1847,-0.8021,-0.8663,-1.0029,-1.1502,-1.1823,-1.2409,-1.3667,-1.3814,-1.4651,-1.6582,-1.5126,-1.4176,-1.4176,-1.3112,-1.2501,-1.2501,-1.2569,-1.2651,-1.2732,-1.28,-1.2895,-1.3164,-1.3037,-1.3085,-0.4229,-0.6238,-0.8146,-0.7841,-0.8777,-0.9995,-1.0878,-1.1706,-1.2674,-1.3828,-1.4082,-1.3659,-1.2295,-1.3101,-1.3643,-1.2792,-1.2353,-1.0375,-0.5178,-0.0514,0.3931,0.7793,0.8075,0.7425,0.6322,-0.053,-1.0486,-2.3825,-2.1012,-2.0654,-2.5182,-2.4692,-2.572,-2.8817,-3.1043,-3.1949,-3.1485,-3.163,-3.1119,-3.004,-3.2528,-3.1905,-2.8608,-3.109,-3.223,-3.2028,-3.223,-3.2955,-3.4068,-3.3871,-3.3155,-3.223,-3.1825,-3.1133,-3.0411,-3.1338,-3.1133,-3.0328,-3.0599,-3.0048,-2.9238,-3.0167,-3.0215,-2.9757,-2.8674,-2.817,-2.7931,-2.7692,-2.7692,-2.7091,-2.4301,-2.345,-2.2452,-1.9534,-2.0094,-2.0847,-1.9646,-2.0682,-2.175,-2.1595,-2.1674,-2.1035,-1.8856,-1.7235,-1.5659,-1.3899,-1.2277,-1.063,-0.8539,-1.0173,-1.1653,-1.1647,-1.1898,-1.206,-1.206,-1.2332,-1.3267,-1.4935,-1.3414,-1.2501,-1.2501,-1.2501,-1.2515,-1.2535,-1.2664,-1.2745,-1.2766,-1.2901,-1.2983,-1.301,-1.2437,-1.2612,-0.689,-0.8282,-0.9437,-0.9216,-0.9481,-1.0216,-1.1749,-1.2186,-1.2674,-1.3828,-1.4082,-1.3455,-1.1388,-1.2048,-1.2649,-1.2003,-1.1681,-1.003,-0.5494,-0.2801,0.1292,0.8334,0.573,0.1906,-0.1663,-0.4317,-0.9894,-2.0,-2.2963,-2.4516,-2.5236,-2.7222,-2.9505,-3.2137,-3.2487,-3.3055,-3.3832,-3.2286,-3.1417,-3.1219,-3.0997,-3.0324,-2.9352,-3.1345,-3.1724,-3.0721,-3.1825,-3.2431,-3.2532,-3.144,-3.144,-3.2028,-2.9807,-2.9513,-3.0224,-2.9303,-2.9513,-3.0474,-3.2001,-3.1461,-3.0246,-3.1452,-3.0466,-2.8692,-2.8408,-2.7452,-2.6106,-2.4655,-2.4301,-2.4178,-2.3698,-2.2591,-2.1348,-2.0843,-2.1168,-2.1496,-2.1278,-2.1806,-2.1883,-2.0282,-2.0203,-1.9243,-1.5747,-1.4903,-1.4082,-1.2287,-1.1743,-1.1469,-1.1031,-1.1345,-1.1647,-1.1626,-1.1884,-1.206,-1.206,-1.2332,-1.2656,-1.2958,-1.2656,-1.2501,-1.2501,-1.2501,-1.2562,-1.2691,-1.2718,-1.2793,-1.2929,-1.2969,-1.301,-1.2876,-0.9421,-0.9647,-0.7788,-0.8711,-0.9703,-1.1453,-1.2095,-1.2246,-1.2394,-1.337,-1.4153,-1.4282,-1.3664,-1.2857,-1.2048,-1.2167,-1.2319,-1.2104,-1.1291,-0.994,-0.7868,-0.4855,-0.1877,0.0859,-0.0536,-0.2893,-0.6285,-1.2611,-1.8644,-2.4025,-2.5722,-2.7105,-2.8375,-2.9034,-3.0423,-3.2768,-3.2136,-3.2218,-3.3254,-3.1605,-3.0809,-3.0911,-3.1229,-3.0512,-2.8914,-3.0533,-3.0927,-3.0307,-3.0927,-3.1235,-3.1133,-3.0514,-3.0224,-3.0016,-2.8794,-2.8708,-2.9237,-2.9586,-3.0178,-3.0895,-3.2126,-3.1478,-3.0215,-3.0161,-2.9306,-2.8051,-2.6365,-2.5269,-2.4409,-2.2702,-2.2966,-2.345,-2.2466,-2.1727,-2.0628,-1.8818,-1.9208,-1.9638,-1.7894,-1.853,-1.9141,-1.8462,-1.8443,-1.7669,-1.4858,-1.4432,-1.3729,-1.19,-1.1626,-1.1633,-1.1619,-1.1626,-1.1633,-1.1619,-1.1884,-1.206,-1.206,-1.2332,-1.2501,-1.2501,-1.2501,-1.2501,-1.2501,-1.2583,-1.2657,-1.2725,-1.2813,-1.2895,-1.2983,-1.2996,-1.303,-1.3078,-0.8657,-0.6397,-0.8246,-0.8991,-1.0106,-1.3284,-1.4111,-1.4117,-1.3745,-1.4768,-1.5438,-1.4593,-1.3249,-1.2318,-1.2399,-1.2563,-1.2429,-1.1805,-1.0949,-1.013,-0.9379,-0.6878,-0.6013,-0.8236,-0.8415,-0.9473,-1.2452,-2.0225,-2.5797,-2.7862,-2.763,-2.8457,-3.0664,-2.9852,-3.0261,-3.2113,-3.0999,-3.0811,-3.1649,-3.0472,-3.0016,-3.0307,-3.103,-3.0328,-2.8301,-2.9408,-2.9807,-2.9807,-2.9807,-2.9807,-2.9807,-2.9807,-2.9197,-2.8301,-2.8301,-2.8359,-2.8584,-2.9957,-3.0632,-3.09,-3.1116,-3.0537,-2.9564,-2.8318,-2.7572,-2.6849,-2.4301,-2.3325,-2.2702,-2.0956,-2.1447,-2.2062,-2.0829,-2.0246,-1.9309,-1.6744,-1.7256,-1.7572,-1.5321,-1.5977,-1.6758,-1.6656,-1.6545,-1.5981,-1.4014,-1.3729,-1.3309,-1.1756,-1.1619,-1.1619,-1.1619,-1.1619,-1.1619,-1.1619,-1.185,-1.204,-1.2108,-1.2352,-1.2515,-1.2556,-1.2556,-1.2556,-1.2556,-1.2671,-1.2752,-1.2793,-1.2874,-1.2949,-1.301,-1.3024,-1.3071,-1.299,-0.7405,-0.4298,-0.8804,-0.983,-1.1131,-1.3762,-1.4313,-1.4665,-1.6515,-1.6288,-1.5365,-1.4266,-1.3087,-1.206,-1.1342,-1.2552,-1.2763,-1.0405,-1.083,-1.0696,-0.8236,-0.8952,-1.1363,-1.5589,-1.7365,-1.9813,-2.3935,-2.3845,-2.46,-2.7223,-2.7516,-2.8121,-2.9487,-2.9418,-2.9734,-3.0368,-2.9473,-2.9273,-2.988,-2.891,-2.9112,-3.0328,-2.9092,-2.8495,-2.8301,-2.8388,-2.8388,-2.8388,-2.8388,-2.8388,-2.8388,-2.8388,-2.8388,-2.8301,-2.8301,-2.8535,-2.8867,-2.9015,-2.9525,-3.0098,-2.8626,-2.8301,-2.8253,-2.6695,-2.5146,-2.3946,-2.3698,-2.2466,-2.0969,-1.9152,-1.8756,-1.8884,-1.8768,-1.764,-1.6369,-1.6115,-1.656,-1.6864,-1.6619,-1.6937,-1.6666,-1.4991,-1.4574,-1.4014,-1.2187,-1.1756,-1.1763,-1.1619,-1.1619,-1.1619,-1.1619,-1.1619,-1.1619,-1.1619,-1.1755,-1.1965,-1.225,-1.2413,-1.2562,-1.2705,-1.2712,-1.2712,-1.2712,-1.2725,-1.2807,-1.3137,-1.2861,-1.2881,-1.3044,-1.3246,-1.3003,-1.2301,-0.4301,-0.502,-0.9407,-1.0366,-1.1693,-1.5691,-1.6728,-1.6737,-1.6397,-1.5996,-1.5216,-1.3824,-1.2426,-1.1772,-1.2294,-1.295,-1.3078,-1.2053,-1.1796,-1.1333,-1.0296,-1.1527,-1.3511,-1.6137,-1.9333,-2.197,-2.3742,-2.5928,-2.7202,-2.7495,-2.8287,-2.8958,-2.9418,-2.868,-2.8524,-2.8903,-2.814,-2.7903,-2.8448,-2.8384,-2.8601,-2.9006,-2.8495,-2.8301,-2.8301,-2.8301,-2.8301,-2.8301,-2.8301,-2.8301,-2.8301,-2.8301,-2.8301,-2.832,-2.8574,-2.8769,-2.8984,-2.9512,-2.9336,-2.87,-2.8355,-2.7568,-2.6591,-2.5024,-2.4054,-2.345,-2.2341,-2.1601,-2.0982,-2.0322,-1.9542,-1.8487,-1.7304,-1.6581,-1.5929,-1.4973,-1.4871,-1.4736,-1.3742,-1.3689,-1.3452,-1.2745,-1.2602,-1.2466,-1.1763,-1.1619,-1.1619,-1.1619,-1.1619,-1.1619,-1.1619,-1.1619,-1.1619,-1.1619,-1.1748,-1.1918,-1.2128,-1.2284,-1.2393,-1.2454,-1.2535,-1.263,-1.2725,-1.2732,-1.2773,-1.2861,-1.2901,-1.2976,-1.3246,-1.3023,-1.0086,-0.4804,-0.7566,-1.09,-0.9913,-1.1016,-1.2463,-1.7,-1.8482,-1.8364,-1.6786,-1.6397,-1.5797,-1.3923,-1.2983,-1.2811,-1.3725,-1.4229,-1.4345,-1.4068,-1.2949,-1.2288,-1.2341,-1.3507,-1.533,-1.7897,-2.113,-2.3615,-2.4888,-2.7327,-2.8495,-2.7673,-2.7934,-2.8215,-2.8215,-2.7084,-2.646,-2.6741,-2.592,-2.5947,-2.6798,-2.7218,-2.7699,-2.8301,-2.8301,-2.8301,-2.8301,-2.8301,-2.8301,-2.8301,-2.8301,-2.8301,-2.8301,-2.8301,-2.8301,-2.834,-2.875,-2.9004,-2.9219,-2.9922,-2.9219,-2.7948,-2.7723,-2.6591,-2.5024,-2.3325,-2.2841,-2.2591,-2.1475,-2.1109,-2.0996,-2.0566,-1.9289,-1.7741,-1.5883,-1.5519,-1.5054,-1.3547,-1.3232,-1.2887,-1.1879,-1.1619,-1.1619,-1.1619,-1.1619,-1.1619,-1.1619,-1.1619,-1.1619,-1.1619,-1.1619,-1.1619,-1.1619,-1.1619,-1.1619,-1.1619,-1.1789,-1.1945,-1.2054,-1.2244,-1.2379,-1.2427,-1.2528,-1.2637,-1.2745,-1.2793,-1.284,-1.3047,-1.2822,-1.1589,-0.9183,-0.8788,-0.7176,-0.4686,-1.1294,-1.4386,-1.0346,-1.1794,-1.3486,-1.7416,-1.8987,-1.9306,-1.8229,-1.7979,-1.7291,-1.4947,-1.4972,-1.5467,-1.5558,-1.6497,-1.6887,-1.5859,-1.4472,-1.3555,-1.385,-1.4943,-1.7478,-2.1985,-2.3683,-2.5696,-2.9009,-2.8308,-2.7579,-2.7579,-2.638,-2.5645,-2.5742,-2.4412,-2.3683,-2.3683,-2.2843,-2.322,-2.4959,-2.5358,-2.6523,-2.8301,-2.8301,-2.8301,-2.8301,-2.8301,-2.8301,-2.8301,-2.8301,-2.8301,-2.8301,-2.8301,-2.8301,-2.834,-2.8769,-2.9199,-2.9629,-3.0039,-2.9389,-2.817,-2.6591,-2.4901,-2.3325,-2.1601,-2.1109,-2.1109,-2.1109,-2.1109,-2.0781,-1.935,-1.7577,-1.5825,-1.4466,-1.4145,-1.3735,-1.1804,-1.1511,-1.1619,-1.1619,-1.1619,-1.1619,-1.1619,-1.1619,-1.1619,-1.1619,-1.1619,-1.1619,-1.1619,-1.1619,-1.1619,-1.1619,-1.1619,-1.1619,-1.1619,-1.1884,-1.206,-1.206,-1.2332,-1.2569,-1.2718,-1.2601,-1.2621,-1.2786,-1.2769,-1.2876,-1.3429,-1.2774,-0.8362,-0.0,-0.0168,-0.5082,-1.4302,-1.4284,-1.4228,-1.0387,-1.1816,-1.3659,-1.6253,-1.7564,-1.8087,-1.7336,-1.7482,-1.7311,-1.6058,-1.5765,-1.6292,-1.7965,-1.8589,-1.8712,-1.8441,-1.7995,-1.7689,-1.7764,-1.9108,-2.0651,-2.1969,-2.4559,-2.6208,-2.6329,-2.7108,-2.722,-2.6284,-2.5001,-2.4707,-2.5645,-2.3484,-2.2767,-2.3683,-2.3657,-2.415,-2.4959,-2.6342,-2.7535,-2.8301,-2.8301,-2.8301,-2.8301,-2.8301,-2.8301,-2.8301,-2.8301,-2.8301,-2.832,-2.8613,-2.873,-2.8809,-2.9531,-2.9203,-2.8418,-2.8824,-2.7227,-2.4901,-2.4425,-2.3201,-2.1727,-2.1235,-2.1109,-2.1149,-2.1363,-2.1416,-2.1083,-1.9627,-1.8898,-1.7841,-1.4813,-1.4246,-1.3932,-1.1973,-1.1586,-1.1619,-1.1619,-1.1619,-1.1619,-1.1619,-1.1619,-1.1619,-1.1619,-1.1619,-1.2043,-1.3309,-1.3587,-1.4014,-1.5425,-1.5694,-1.5345,-1.3922,-1.3976,-1.3675,-1.221,-1.2332,-1.2528,-1.2284,-1.2655,-1.2775,-1.2782,-0.9874,-0.9587,-1.2767,-1.263,-0.8365,-0.0,-0.6833,-1.1607,-1.4291,-1.4222,-1.4283,-1.0553,-1.2327,-1.4244,-1.614,-1.7278,-1.8037,-1.8146,-1.7797,-1.7276,-1.6828,-1.7399,-1.8458,-1.9968,-2.0206,-2.0206,-2.0206,-1.9844,-1.9679,-2.0133,-2.1207,-2.2447,-2.3582,-2.5145,-2.6133,-2.6148,-2.6601,-2.6264,-2.502,-2.4196,-2.38,-2.4097,-2.2567,-2.2047,-2.2868,-2.3353,-2.3944,-2.4977,-2.6237,-2.7093,-2.7384,-2.8067,-2.796,-2.7511,-2.8067,-2.8301,-2.8301,-2.8476,-2.8633,-2.8828,-2.9258,-2.9434,-2.9381,-2.947,-2.8793,-2.7768,-2.7551,-2.5757,-2.3589,-2.3723,-2.2651,-2.1309,-2.1416,-2.1456,-2.1496,-2.167,-2.1724,-2.1385,-1.9771,-1.9004,-1.776,-1.4937,-1.379,-1.3031,-1.19,-1.1619,-1.1619,-1.1619,-1.1619,-1.1619,-1.1619,-1.1619,-1.1619,-1.1619,-1.218,-1.3167,-1.429,-1.5203,-1.6131,-1.7358,-1.7057,-1.6131,-1.4975,-1.4408,-1.3506,-1.2381,-1.2467,-1.2487,-1.241,-1.2655,-1.2664,-1.2723,-1.0177,-0.8367,-0.7596,-1.1294,-1.0736,-0.5631,-0.9553,-1.2457,-1.4235,-1.4345,-1.4386,-1.0948,-1.2846,-1.4972,-1.6533,-1.7601,-1.8643,-1.9984,-1.8862,-1.7583,-1.7644,-1.9552,-2.1302,-2.148,-2.148,-2.148,-2.148,-2.0584,-2.0223,-2.1356,-2.1898,-2.3218,-2.5903,-2.5571,-2.5749,-2.7274,-2.638,-2.5118,-2.3782,-2.3583,-2.3067,-2.1946,-2.1643,-2.1659,-2.1895,-2.2142,-2.3133,-2.4805,-2.5164,-2.5541,-2.5936,-2.7384,-2.7384,-2.6155,-2.7618,-2.8301,-2.832,-2.8769,-2.9199,-2.9609,-2.9984,-3.0044,-2.993,-2.8674,-2.7872,-2.7335,-2.6231,-2.4794,-2.3414,-2.3442,-2.2552,-2.1371,-2.149,-2.145,-2.145,-2.1476,-2.1489,-2.113,-1.9628,-1.7898,-1.6144,-1.4523,-1.2888,-1.1619,-1.1619,-1.1619,-1.1619,-1.1619,-1.1619,-1.1619,-1.1619,-1.1619,-1.1619,-1.1921,-1.3333,-1.46,-1.4901,-1.691,-1.8412,-1.8612,-1.6911,-1.5606,-1.5458,-1.3717,-1.2532,-1.2508,-1.2548,-1.2396,-1.2198,-1.2408,-1.258,-1.2539,-1.1742,-0.8194,-0.1351,-0.9923,-1.4235,-1.4374,-0.9845,-1.0049,-1.4331,-1.4285,-1.4326,-1.071,-1.2563,-1.4603,-1.5021,-1.63,-1.7823,-1.9304,-2.0076,-2.0529,-2.106,-2.1225,-2.1569,-2.258,-2.2687,-2.2687,-2.2687,-2.2492,-2.2517,-2.3127,-2.364,-2.4249,-2.5238,-2.5503,-2.5722,-2.6091,-2.582,-2.5118,-2.3782,-2.2767,-2.2466,-2.3285,-2.1253,-2.1178,-2.3609,-2.2688,-2.2623,-2.3702,-2.3695,-2.3913,-2.4267,-2.5827,-2.6372,-2.6155,-2.7618,-2.8301,-2.834,-2.9101,-2.9492,-2.9536,-2.93,-2.9067,-2.8692,-2.7366,-2.5814,-2.4439,-2.4271,-2.3237,-2.1828,-2.0307,-1.9817,-1.9483,-1.8039,-1.7658,-1.769,-1.7873,-1.7927,-1.756,-1.5989,-1.5211,-1.4523,-1.2738,-1.19,-1.1619,-1.1619,-1.1619,-1.1619,-1.1619,-1.1619,-1.1619,-1.1619,-1.1619,-1.2079,-1.3914,-1.4508,-1.584,-1.9029,-2.115,-2.2523,-2.2586,-2.1014,-1.9212,-1.7575,-1.5963,-1.4338,-1.2834,-1.2795,-1.1481,-0.788,-1.1115,-1.3017,-1.2551,-0.6139,-0.5298,-1.109,-1.3165,-1.4311,-1.4318,-1.335,-1.3217,-1.4306,-1.4306,-1.4306,-1.072,-1.2633,-1.4763,-1.491,-1.6154,-1.7812,-1.9174,-2.0387,-2.1518,-2.2409,-2.2348,-2.2315,-2.295,-2.3144,-2.3144,-2.3144,-2.332,-2.3535,-2.3769,-2.4336,-2.4805,-2.5039,-2.5469,-2.5742,-2.5742,-2.5118,-2.4196,-2.2868,-2.1456,-2.0743,-2.0743,-2.004,-2.04,-2.2187,-2.2369,-2.2626,-2.3293,-2.3459,-2.3197,-2.2814,-2.4267,-2.5034,-2.5318,-2.7578,-2.8594,-2.8652,-2.8786,-2.9104,-2.925,-2.8553,-2.8092,-2.7658,-2.6084,-2.4733,-2.3464,-2.2889,-2.1646,-2.0123,-1.9314,-1.8676,-1.7852,-1.7001,-1.6766,-1.6786,-1.6897,-1.6927,-1.6678,-1.4823,-1.4432,-1.4014,-1.2043,-1.1619,-1.1619,-1.1619,-1.1619,-1.1619,-1.1619,-1.1619,-1.164,-1.1708,-1.2431,-1.3633,-1.4813,-1.6575,-1.8827,-2.2005,-2.3379,-2.3733,-2.2822,-2.1129,-1.9317,-1.7198,-1.5482,-1.3973,-1.2956,-1.3037,-1.2044,-0.9918,-1.2021,-1.3415,-1.3313,-0.9239,-0.9257,-1.429,-1.4338,-1.4386,-1.4265,-1.4306,-1.4326,-1.4326,-1.4306,-1.4299,-1.0534,-1.235,-1.4566,-1.5206,-1.6415,-1.7762,-1.9405,-2.0567,-2.1658,-2.2862,-2.3144,-2.3144,-2.3144,-2.3144,-2.3164,-2.3242,-2.3555,-2.3848,-2.3984,-2.4629,-2.5098,-2.5176,-2.5508,-2.5742,-2.5742,-2.4707,-2.3384,-2.1845,-2.0845,-1.9761,-1.8478,-1.9405,-2.03,-2.1015,-2.1937,-2.2581,-2.2938,-2.3007,-2.2379,-2.1259,-2.2702,-2.3682,-2.4383,-2.7009,-2.8217,-2.8274,-2.803,-2.8129,-2.843,-2.7482,-2.6906,-2.6455,-2.4728,-2.349,-2.2677,-2.1571,-1.9887,-1.8426,-1.8563,-1.7623,-1.6441,-1.6206,-1.6272,-1.6272,-1.6272,-1.6272,-1.5849,-1.429,-1.3872,-1.3587,-1.2043,-1.1619,-1.1626,-1.1647,-1.1653,-1.1653,-1.1653,-1.1963,-1.2301,-1.2283,-1.435,-1.6013,-1.6186,-1.9165,-2.2186,-2.3879,-2.3984,-2.3222,-2.1727,-1.9722,-1.7728,-1.6026,-1.4139,-1.303,-1.3043,-1.2351,-1.2353,-1.3422,-1.3415,-1.374,-1.4224,-1.4245,-1.4251,-1.4251,-1.4373,-1.4224,-1.434,-1.4312,-1.4299,-1.4299,-1.4299,-1.4299,-0.9192,-1.0433,-1.2334,-1.4682,-1.5604,-1.685,-2.0279,-2.1194,-2.1658,-2.2862,-2.3144,-2.3144,-2.3144,-2.3144,-2.3262,-2.3633,-2.375,-2.4043,-2.4785,-2.5,-2.5215,-2.5605,-2.5703,-2.5742,-2.5742,-2.5528,-2.4412,-2.1862,-2.2567,-2.2722,-2.1707,-2.1723,-2.2661,-2.4615,-2.2416,-2.1405,-2.185,-2.0573,-1.9924,-1.9707,-2.1145,-2.2777,-2.4285,-2.5361,-2.5763,-2.5696,-2.6344,-2.6786,-2.7057,-2.5919,-2.5221,-2.4759,-2.272,-2.0877,-1.9362,-1.9149,-1.8239,-1.6823,-1.5238,-1.4675,-1.4398,-1.2881,-1.2323,-1.2323,-1.2323,-1.2323,-1.2323,-1.2043,-1.19,-1.19,-1.1619,-1.1619,-1.1653,-1.1775,-1.1803,-1.1803,-1.1803,-1.3213,-1.4637,-1.4662,-1.7869,-2.0523,-2.0557,-2.2546,-2.4143,-2.4235,-2.2967,-2.1964,-2.1464,-1.8463,-1.6213,-1.6055,-1.4206,-1.303,-1.3043,-0.9743,-0.9193,-1.3068,-1.3926,-1.4256,-1.4224,-1.4299,-1.4333,-1.4333,-1.4326,-1.4319,-1.4306,-1.4299,-1.4299,-1.4299,-1.4299,-1.4299,-1.1097,-1.1674,-1.2642,-1.4141,-1.5292,-1.6647,-1.8941,-2.0129,-2.1119,-2.2447,-2.274,-2.2847,-2.3357,-2.3691,-2.3926,-2.4102,-2.4355,-2.4629,-2.5019,-2.5293,-2.5508,-2.5723,-2.5742,-2.5742,-2.5742,-2.502,-2.4097,-2.2868,-2.2875,-2.2758,-2.2308,-2.1666,-2.1894,-2.3043,-2.0885,-1.9934,-2.0371,-1.9707,-1.9372,-1.9372,-2.0206,-2.1131,-2.2024,-2.2495,-2.3764,-2.5545,-2.5597,-2.5592,-2.5463,-2.4115,-2.2759,-2.1397,-2.0513,-1.89,-1.7324,-1.7464,-1.6506,-1.5135,-1.4412,-1.3665,-1.2745,-1.19,-1.1619,-1.1619,-1.1619,-1.1619,-1.1619,-1.1619,-1.1619,-1.1619,-1.1619,-1.1681,-1.1755,-1.1816,-1.1965,-1.238,-1.355,-1.4416,-1.5753,-1.8214,-2.0206,-2.1834,-2.2727,-2.3836,-2.4088,-2.2752,-2.1989,-2.086,-1.8601,-1.7015,-1.5655,-1.4494,-1.3647,-1.311,-1.3032,-1.1438,-1.1407,-1.372,-1.4222,-1.4359,-1.4292,-1.4333,-1.434,-1.4319,-1.4319,-1.4312,-1.4299,-1.4299,-1.4299,-1.4299,-1.438,-1.4421,-1.189,-1.178,-1.1826,-1.2617,-1.4087,-1.5693,-1.727,-1.8789,-2.028,-2.164,-2.2013,-2.228,-2.2927,-2.3521,-2.3784,-2.3598,-2.3861,-2.4202,-2.4718,-2.5024,-2.5333,-2.5645,-2.584,-2.5898,-2.5898,-2.5069,-2.4409,-2.409,-2.375,-2.3237,-2.259,-2.1786,-2.1322,-2.1324,-1.9807,-1.9145,-1.9359,-1.9372,-1.9372,-1.9372,-1.9666,-1.9947,-2.0241,-2.0615,-2.2281,-2.4704,-2.4213,-2.3927,-2.3652,-2.2111,-2.0592,-1.8888,-1.8427,-1.716,-1.5558,-1.5846,-1.4853,-1.3412,-1.3689,-1.2745,-1.1626,-1.166,-1.1647,-1.1626,-1.166,-1.1647,-1.1619,-1.1619,-1.1647,-1.1674,-1.1674,-1.1782,-1.1898,-1.1938,-1.2121,-1.3051,-1.5621,-1.6414,-1.7832,-2.1567,-2.2214,-2.2744,-2.405,-2.4035,-2.3176,-2.1408,-2.059,-1.9018,-1.6113,-1.5439,-1.4877,-1.3432,-1.3376,-1.2958,-1.1999,-1.1716,-1.1833,-1.2372,-1.3559,-1.4217,-1.4346,-1.434,-1.4326,-1.4299,-1.4333,-1.4333,-1.4299,-1.434,-1.4353,-1.4353,-1.4502,-1.457,-0.9293,-0.8574,-0.8197,-0.9681,-1.1268,-1.3259,-1.568,-1.7512,-1.8935,-2.028,-2.0834,-2.1065,-2.1147,-2.1865,-2.2238,-2.131,-2.1197,-2.1824,-2.3493,-2.3782,-2.4295,-2.5528,-2.6094,-2.6348,-2.6348,-2.6618,-2.6302,-2.5009,-2.6096,-2.5767,-2.3428,-2.3152,-2.2656,-2.1654,-2.0113,-1.9359,-1.9372,-1.9372,-1.9372,-1.9372,-1.9666,-1.9947,-2.0254,-2.0828,-2.137,-2.1781,-2.1835,-2.1881,-2.1951,-1.9961,-1.9054,-1.8734,-1.6795,-1.5139,-1.3857,-1.4011,-1.3006,-1.1749,-1.1756,-1.1619,-1.164,-1.1775,-1.1728,-1.1647,-1.1782,-1.1728,-1.1619,-1.1619,-1.1714,-1.1823,-1.1823,-1.1932,-1.2088,-1.223,-1.2277,-1.3376,-1.7606,-1.9908,-2.1864,-2.4005,-2.4475,-2.4475,-2.4609,-2.2955,-2.1656,-2.1261,-1.8309,-1.5966,-1.5507,-1.4378,-1.3604,-1.3587,-1.3485,-1.2278,-0.9338,-0.7678,-0.686,-0.7428,-1.183,-1.4263,-1.434,-1.4319,-1.4299,-1.4299,-1.4434,-1.4434,-1.4299,-1.4434,-1.4502,-1.4502,-1.4658,-1.4726,-1.1508,-1.0551,-0.9884,-1.0669,-1.096,-1.1529,-1.3501,-1.4468,-1.5409,-1.6883,-1.7942,-1.8759,-1.8759,-2.0512,-2.181,-2.1528,-2.1461,-2.1695,-2.2349,-2.257,-2.2843,-2.337,-2.3703,-2.393,-2.393,-2.4905,-2.5393,-2.4873,-2.5527,-2.5624,-2.4683,-2.3067,-2.203,-2.1571,-2.0141,-1.8881,-1.7923,-1.6856,-1.6856,-1.7806,-1.8077,-1.8962,-2.0241,-2.0655,-2.0989,-2.1269,-2.1269,-2.0773,-1.9961,-1.9328,-1.7609,-1.526,-1.4668,-1.3385,-1.2261,-1.3595,-1.3801,-1.3587,-1.4716,-1.4441,-1.346,-1.3515,-1.2647,-1.1626,-1.1681,-1.1721,-1.1755,-1.1755,-1.1864,-1.1979,-1.1979,-1.2094,-1.2271,-1.2515,-1.3649,-1.4911,-1.6632,-1.9385,-2.1798,-2.2729,-2.2781,-2.215,-2.0626,-1.9981,-1.9145,-1.7567,-1.6428,-1.5333,-1.4238,-1.3788,-1.3458,-1.3614,-1.3614,-1.3069,-1.1819,-1.1507,-1.143,-1.1601,-1.3294,-1.4318,-1.4312,-1.4306,-1.434,-1.4434,-1.4482,-1.4489,-1.4434,-1.4584,-1.4658,-1.4665,-1.4814,-1.4889,-1.2695,-1.142,-1.0348,-1.082,-1.0572,-1.0501,-1.1765,-1.2447,-1.3289,-1.4323,-1.5328,-1.5996,-1.6094,-1.7998,-1.9789,-2.0215,-2.0333,-2.0467,-2.1107,-2.133,-2.1643,-2.2176,-2.2503,-2.2716,-2.2716,-2.3781,-2.4508,-2.4508,-2.4736,-2.4659,-2.4115,-2.2576,-2.113,-2.0085,-1.8609,-1.7337,-1.6256,-1.5147,-1.5547,-1.7103,-1.7443,-1.8569,-2.0388,-2.0695,-2.0922,-2.1109,-2.1109,-2.0298,-1.8771,-1.8239,-1.6095,-1.3302,-1.2759,-1.2414,-1.2343,-1.3694,-1.4684,-1.5557,-1.6826,-1.6404,-1.5292,-1.4651,-1.3682,-1.2561,-1.1894,-1.1837,-1.1911,-1.1911,-1.202,-1.2142,-1.2142,-1.2284,-1.2501,-1.2745,-1.4987,-1.6747,-1.6307,-1.8532,-2.0709,-2.0877,-2.0709,-2.0058,-1.8621,-1.7976,-1.7186,-1.5717,-1.522,-1.4533,-1.3514,-1.3444,-1.3532,-1.3682,-1.3736,-1.3695,-1.3526,-1.383,-1.4131,-1.3871,-1.4263,-1.4434,-1.4367,-1.4421,-1.4489,-1.4584,-1.4638,-1.4665,-1.4665,-1.4767,-1.4821,-1.4821,-1.497,-1.5072,0.0,0.0,0.0,-0.9639,-0.9968,-1.0211,-1.067,-1.1803,-1.2648,-1.287,-1.2921,-1.2991,-1.3224,-1.4341,-1.5849,-1.7252,-1.7582,-1.8204,-1.9773,-2.003,-2.0681,-2.2199,-2.2754,-2.3092,-2.3092,-2.3513,-2.371,-2.371,-2.371,-2.3151,-2.1699,-2.1472,-2.0085,-1.7079,-1.5429,-1.449,-1.449,-1.4701,-1.5661,-1.7373,-1.789,-1.9025,-2.0695,-2.0975,-2.1109,-2.1109,-2.1109,-2.0068,-1.8384,-1.6571,-1.4875,-1.321,-1.1625,-1.2353,-1.4145,-1.4292,-1.5663,-1.7248,-1.7388,-1.7248,-1.6866,-1.5372,-1.472,-1.4326,-1.26,-1.2067,-1.2067,-1.2067,-1.2182,-1.2305,-1.2311,-1.2522,-1.2773,-1.3089,-1.6115,-1.8681,-1.6825,-1.7669,-1.8772,-1.8762,-1.8581,-1.8501,-1.8568,-1.7071,-1.5738,-1.5914,-1.4221,-1.3071,-1.337,-1.3539,-1.3682,-1.3817,-1.3838,-1.3777,-1.3634,-1.3661,-1.3736,-1.3838,-1.4352,-1.4586,-1.4509,-1.4658,-1.474,-1.474,-1.4896,-1.497,-1.4977,-1.4977,-1.4977,-1.4977,-1.512,-1.5262,-1.2348,0.0,0.0,0.0,0.0,0.0,-0.8714,-0.909,-0.947,-0.9784,-1.0715,-1.1514,-1.172,-1.294,-1.4019,-1.4449,-1.6287,-1.7795,-1.8521,-1.8755,-1.9222,-1.9849,-2.0161,-2.0473,-2.0473,-2.1541,-2.2251,-2.2251,-2.2251,-2.2024,-2.1586,-1.951,-1.7301,-1.5311,-1.3646,-1.2879,-1.303,-1.3331,-1.449,-1.6149,-1.7725,-1.9435,-2.0989,-2.1069,-2.1109,-2.1109,-2.1109,-2.031,-1.8652,-1.6813,-1.4352,-1.1767,-1.2811,-1.3645,-1.4579,-1.7364,-1.8871,-1.9495,-2.0894,-1.9495,-1.7147,-1.6797,-1.4856,-1.2582,-1.2162,-1.2142,-1.223,-1.223,-1.2413,-1.263,-1.2745,-1.2834,-1.3408,-1.4991,-1.6309,-1.6959,-1.6529,-1.6781,-1.6977,-1.6993,-1.6805,-1.6069,-1.4579,-1.4072,-1.3895,-1.3886,-1.3429,-1.322,-1.3526,-1.36,-1.3648,-1.3682,-1.3709,-1.3654,-1.3478,-1.3695,-1.3885,-1.4,-1.4299,-1.4482,-1.4509,-1.4658,-1.474,-1.474,-1.4896,-1.5025,-1.5126,-1.5126,-1.5126,-1.5126,-1.5167,-1.5208,-1.2445,-1.1381,-1.0387,-0.963,0.0,0.0,-0.8018,-0.8038,-0.8072,-0.852,-0.9293,-0.9867,-1.0186,-1.1368,-1.2304,-1.2389,-1.477,-1.6851,-1.7258,-1.8039,-1.8637,-1.9065,-1.9265,-1.9372,-1.9372,-2.0141,-2.0702,-2.0702,-2.0099,-1.9381,-1.8674,-1.6351,-1.4589,-1.3646,-1.2051,-1.1693,-1.273,-1.3121,-1.4619,-1.715,-1.8337,-1.9708,-2.1296,-2.1162,-2.1109,-2.1122,-2.1243,-2.0464,-1.8912,-1.7928,-1.5991,-1.3584,-1.4889,-1.5857,-1.6927,-1.9299,-2.0617,-2.1459,-2.2585,-2.0967,-1.84,-1.7674,-1.5532,-1.3059,-1.2428,-1.2264,-1.2393,-1.2454,-1.2644,-1.2861,-1.301,-1.3051,-1.371,-1.5876,-1.6436,-1.647,-1.6394,-1.6385,-1.6174,-1.5042,-1.4766,-1.4253,-1.3061,-1.299,-1.3098,-1.3247,-1.3268,-1.3356,-1.36,-1.3627,-1.3627,-1.3627,-1.3648,-1.3587,-1.3417,-1.3688,-1.3905,-1.3973,-1.4312,-1.4509,-1.4509,-1.4658,-1.4767,-1.4835,-1.4923,-1.5072,-1.5276,-1.5215,-1.5181,-1.5181,-1.5248,-1.5835,-1.2395,-1.151,-1.0622,-0.9562,-0.8426,0.0,-0.8151,-0.7984,-0.7923,-0.8323,-0.8323,-0.837,-0.8764,-0.98,-1.0609,-1.0775,-1.3106,-1.5155,-1.5893,-1.734,-1.8354,-1.8816,-1.901,-1.901,-1.8894,-1.901,-1.901,-1.8894,-1.7572,-1.602,-1.4361,-1.2928,-1.2097,-1.1976,-1.0819,-1.1238,-1.3044,-1.3802,-1.5803,-1.9221,-1.934,-2.0123,-2.1537,-2.1243,-2.1122,-2.1176,-2.1443,-2.0786,-1.9412,-1.9757,-1.8697,-1.7052,-1.722,-1.8462,-2.0201,-2.034,-2.1459,-2.2859,-2.2625,-2.152,-1.9742,-1.7776,-1.6168,-1.4525,-1.2754,-1.24,-1.2535,-1.2705,-1.2868,-1.3017,-1.3159,-1.3349,-1.398,-1.6079,-1.6999,-1.7214,-1.7047,-1.6877,-1.6046,-1.3807,-1.3143,-1.3024,-1.3152,-1.3186,-1.3247,-1.3376,-1.3403,-1.3451,-1.3587,-1.3607,-1.3607,-1.3607,-1.362,-1.3573,-1.3437,-1.3695,-1.3871,-1.3892,-1.4278,-1.4509,-1.4509,-1.4672,-1.4821,-1.4943,-1.5348,-1.5494,-1.5758,-1.5451,-1.5208,-1.5208,-1.5702,-1.6882,-1.1521,-1.1663,-1.1661,-0.8699,-0.852,0.0,-0.7823,-0.7685,-0.7834,-0.7923,-0.8018,-0.8113,-0.8201,-0.8494,-0.877,-0.8806,-1.0601,-1.255,-1.4097,-1.5637,-1.6284,-1.5612,-1.6738,-1.6973,-1.5677,-1.6738,-1.6973,-1.5677,-1.5192,-1.4361,-1.2689,-1.2337,-1.1615,-1.0301,-1.1425,-1.2532,-1.3242,-1.6483,-1.8553,-1.9338,-2.0819,-2.1516,-2.1537,-2.1243,-2.1243,-2.147,-2.1523,-2.1686,-2.171,-2.1815,-1.9935,-1.721,-1.8783,-1.9727,-2.034,-2.1747,-2.2585,-2.2749,-2.1291,-1.9543,-1.7776,-1.6084,-1.4319,-1.2761,-1.258,-1.2481,-1.2562,-1.284,-1.3024,-1.3166,-1.3315,-1.4557,-1.6249,-1.8665,-2.0377,-2.1534,-2.1637,-2.0346,-1.8484,-1.6207,-1.4415,-1.3139,-1.3166,-1.3275,-1.3363,-1.3397,-1.3403,-1.341,-1.3444,-1.3444,-1.3444,-1.3444,-1.3553,-1.3614,-1.3587,-1.3858,-1.4082,-1.4204,-1.4401,-1.4509,-1.4509,-1.478,-1.4882,-1.4787,-1.7026,-1.8119,-1.8184,-1.6248,-1.5364,-1.5364,-1.7311,-1.8557,-1.1394,-1.1378,-1.1312,-0.8318,-0.7995,0.0,0.0,-0.7543,-0.7631,-0.778,-0.7814,-0.7868,-0.8011,-0.8038,-0.8113,-0.8336,-0.989,-1.1067,-1.1346,-1.3542,-1.5023,-1.4677,-1.5311,-1.5548,-1.4718,-1.5311,-1.5192,-1.3526,-1.3407,-1.2689,-1.114,-1.102,-1.0701,-0.993,-1.1797,-1.3429,-1.4714,-1.7662,-1.9698,-2.0762,-2.1437,-2.1697,-2.155,-2.1403,-2.1416,-2.1563,-2.1857,-2.2151,-2.2432,-2.2579,-2.1531,-2.0012,-2.1121,-2.1459,-2.1459,-2.1459,-2.1546,-2.1406,-1.9543,-1.7723,-1.6186,-1.5351,-1.3832,-1.2406,-1.2481,-1.261,-1.2779,-1.3003,-1.3973,-1.4898,-1.4743,-1.6358,-1.8589,-2.0559,-2.126,-2.1634,-2.2618,-2.1188,-1.9553,-1.8313,-1.6358,-1.4579,-1.3446,-1.3349,-1.3403,-1.3403,-1.3403,-1.3403,-1.3403,-1.3403,-1.3431,-1.3505,-1.3587,-1.3654,-1.3729,-1.3939,-1.4102,-1.4183,-1.4326,-1.4434,-1.4509,-1.4658,-1.5315,-1.6659,-1.9375,-2.0862,-2.0862,-1.9663,-1.9108,-1.9023,-2.0304,-2.1606,-1.1302,-1.0938,-1.0696,-0.8291,-0.7729,-0.7838,0.0,0.0,0.0,-0.7645,-0.7617,-0.7617,-0.7828,-0.798,-0.8132,-0.8309,-0.9704,-1.0249,-0.9008,-1.1285,-1.3298,-1.3556,-1.3926,-1.3994,-1.3718,-1.3551,-1.3086,-1.1848,-1.1671,-1.1071,-0.9815,-0.9849,-1.004,-1.0535,-1.2465,-1.4496,-1.655,-1.8499,-2.0328,-2.1897,-2.167,-2.1523,-2.147,-2.1523,-2.1577,-2.167,-2.1779,-2.2041,-2.2525,-2.2343,-2.2585,-2.2859,-2.2859,-2.2722,-2.2173,-2.0678,-1.9982,-1.9457,-1.7672,-1.6186,-1.4968,-1.4708,-1.3632,-1.2549,-1.2549,-1.2759,-1.3185,-1.3619,-1.5194,-1.6571,-1.6776,-1.8579,-2.0676,-2.213,-2.1693,-2.1574,-2.3028,-2.1871,-2.0393,-1.9907,-1.8109,-1.5999,-1.4375,-1.3728,-1.3403,-1.3403,-1.3403,-1.3403,-1.3403,-1.3424,-1.3492,-1.3614,-1.3682,-1.3763,-1.3878,-1.4027,-1.4116,-1.4116,-1.4258,-1.4394,-1.4509,-1.4924,-1.634,-1.8643,-2.1898,-2.3375,-2.3375,-2.3931,-2.3672,-2.2626,-2.3169,-2.4747,-1.0319,-1.0518,-1.0896,-0.8357,-0.863,-0.9202,-0.7724,0.0,-0.7509,-0.7265,0.0,-0.7366,-0.7265,0.0,0.0,-0.7674,-0.9022,-0.9737,-0.855,-0.8927,-0.9457,-0.9759,-1.1451,-1.1918,-1.0354,-1.009,-1.0002,-1.0044,-0.9815,-0.978,-0.9808,-0.9951,-1.0638,-1.2242,-1.4326,-1.6424,-1.8361,-2.0335,-2.1434,-2.1603,-2.1563,-2.1416,-2.1162,-2.143,-2.1697,-2.1819,-2.0503,-2.1046,-2.2669,-2.1032,-2.1459,-2.2859,-2.2859,-2.1872,-2.0364,-2.0321,-1.9271,-1.7632,-1.5972,-1.5227,-1.4843,-1.3341,-1.2731,-1.2705,-1.2705,-1.2915,-1.3633,-1.5578,-1.6071,-1.6759,-1.8856,-2.0708,-2.2252,-2.2805,-2.4207,-2.5427,-2.5806,-2.4258,-2.2166,-2.0231,-1.8109,-1.6483,-1.6319,-1.4706,-1.3403,-1.3403,-1.3403,-1.3403,-1.3403,-1.3519,-1.3607,-1.3627,-1.3865,-1.4027,-1.4041,-1.4183,-1.4272,-1.4272,-1.4407,-1.4496,-1.4509,-1.6923,-1.8451,-1.8837,-2.3483,-2.5719,-2.5901,-2.7933,-2.6929,-2.2839,-2.5106,-2.6433,-1.0036,-1.0147,-1.041,-0.8355,-0.8265,-0.8512,-0.7639,-0.7353,-0.7299,-0.717,0.0,0.0,0.0,0.0,0.0,0.0,-0.8165,-0.8583,-0.8103,-0.8336,-0.8689,-0.8994,-0.9673,-0.9931,-0.9573,-0.9415,-0.9503,-0.9795,-0.9632,-0.9646,-0.9937,-1.01,-1.0966,-1.28,-1.4721,-1.6583,-1.8628,-2.0438,-2.1296,-2.1296,-2.1296,-2.1323,-2.1376,-2.0602,-2.034,-2.0478,-1.8947,-1.8699,-1.9634,-1.9912,-2.0617,-2.1321,-2.1321,-2.0756,-1.9947,-1.9063,-1.7508,-1.5775,-1.3995,-1.3543,-1.3494,-1.2894,-1.2678,-1.2759,-1.2935,-1.3017,-1.3549,-1.5707,-1.7173,-1.8765,-2.0802,-2.2922,-2.4761,-2.4825,-2.5531,-2.6239,-2.636,-2.4602,-2.282,-2.2006,-1.8923,-1.6647,-1.6647,-1.4863,-1.3403,-1.3403,-1.3403,-1.3431,-1.3519,-1.3587,-1.3695,-1.3871,-1.4,-1.4109,-1.4197,-1.434,-1.4421,-1.4421,-1.5889,-1.7467,-1.8897,-2.1517,-2.3003,-2.3096,-2.6592,-2.8436,-2.8436,-2.9532,-2.9118,-2.7169,-2.8294,-2.9034,-0.9616,-0.954,-0.9492,-0.8119,-0.7868,-0.7821,-0.7455,-0.7319,-0.7251,-0.721,-0.7265,0.0,0.0,0.0,-0.7681,-0.7602,0.0,-0.8129,-0.7753,-0.7997,-0.8303,-0.8648,-0.8737,-0.8933,-0.934,-0.9273,-0.9367,-0.9788,-0.9612,-0.9666,-1.0093,-1.0256,-1.1396,-1.3797,-1.513,-1.6903,-1.9152,-2.0462,-2.1109,-2.1109,-2.1189,-2.108,-2.0773,-1.9784,-1.9082,-1.872,-1.7147,-1.6685,-1.7248,-1.8229,-1.9206,-2.0051,-1.9495,-1.939,-1.92,-1.7438,-1.5629,-1.4058,-1.2747,-1.244,-1.2576,-1.2644,-1.2725,-1.2834,-1.3051,-1.3044,-1.3625,-1.6326,-1.8248,-2.0105,-2.2756,-2.4892,-2.6239,-2.6106,-2.5754,-2.5568,-2.5568,-2.4271,-2.2808,-2.1512,-1.9735,-1.7964,-1.6879,-1.4893,-1.3576,-1.4275,-1.4441,-1.4666,-1.5501,-1.5563,-1.5678,-1.5925,-1.5994,-1.6094,-1.6264,-1.6387,-1.6495,-1.6587,-1.8448,-2.0435,-2.2313,-2.4844,-2.6229,-2.6229,-2.8629,-2.9953,-3.0034,-3.0261,-3.0448,-3.0595,-3.0595,-3.1178,-0.8955,-0.8577,-0.8474,-0.7923,-0.7712,-0.757,-0.7407,-0.7482,-0.7543,-0.7394,-0.759,-0.7746,-0.7611,-0.8505,-0.8814,-0.7583,-0.8413,0.0,0.0,-0.7489,-0.757,-0.8018,-0.8581,-0.9049,-0.9354,-0.8988,-0.9035,-0.9768,-0.9415,-0.949,-1.0236,-1.0405,-1.2017,-1.5453,-1.5792,-1.7591,-2.0982,-2.1109,-2.1109,-2.1109,-2.1403,-2.0618,-1.8781,-1.9294,-1.855,-1.6776,-1.5184,-1.5557,-1.7107,-1.5274,-1.6826,-1.9912,-1.8089,-1.7379,-1.7305,-1.5629,-1.3917,-1.2457,-1.2447,-1.2596,-1.2698,-1.2556,-1.2712,-1.2956,-1.2963,-1.2963,-1.3938,-1.8398,-1.9411,-2.0284,-2.5084,-2.6172,-2.6039,-2.6306,-2.4761,-2.314,-2.314,-2.314,-2.1845,-1.762,-2.0048,-2.1588,-1.7705,-1.4969,-1.4268,-1.656,-1.6918,-1.7811,-2.0189,-2.0736,-2.0697,-2.0707,-2.0908,-2.1128,-2.1349,-2.1555,-2.156,-2.1991,-2.2212,-2.2313,-2.2535,-2.4934,-2.6229,-2.6229,-2.8629,-3.006,-3.0341,-3.0354,-3.0648,-3.1196,-3.1196,-3.2473,-0.892,-0.8927,-0.892,-0.8275,-0.8153,-0.8038,-0.7495,-0.7489,-0.7556,-0.74,-0.7604,-0.7767,-0.7624,-0.7956,-0.8189,-0.7767,-0.8076,-0.8236,0.0,-0.7692,-0.7794,-0.8153,-0.8547,-0.8791,-0.8784,-1.0105,-1.0996,-1.1414,-1.2548,-1.2838,-1.2163,-1.2232,-1.3353,-1.5802,-1.5873,-1.7602,-2.1109,-2.1109,-2.1109,-2.1109,-2.009,-1.9388,-1.8904,-1.6919,-1.5607,-1.5176,-1.3286,-1.3595,-1.5274,-1.4716,-1.5839,-1.797,-1.6282,-1.5596,-1.5766,-1.5103,-1.3706,-1.2162,-1.2311,-1.2461,-1.2603,-1.2759,-1.2807,-1.2861,-1.3159,-1.4069,-1.5671,-1.8707,-2.0622,-2.2345,-2.5401,-2.6172,-2.6266,-2.6373,-2.5898,-2.5251,-2.5251,-2.4111,-2.2705,-2.1557,-2.1263,-2.0847,-1.9747,-1.8894,-1.8542,-1.9442,-1.9619,-1.9864,-2.0746,-2.1007,-2.1108,-2.109,-2.1302,-2.1649,-2.172,-2.2005,-2.284,-2.48,-2.4822,-2.5592,-2.7328,-2.8256,-2.8719,-2.8898,-2.9832,-3.0354,-3.0648,-3.245,-3.3553,-3.377,-3.5835,-3.6405,-0.9123,-0.9239,-0.9211,-0.852,-0.8459,-0.8384,-0.7685,-0.7726,-0.7868,-0.7719,-0.7841,-0.7997,-0.8065,-0.8018,-0.7991,-0.8038,-0.8092,-0.8052,0.0,-0.7902,-0.8031,-0.8174,-0.8452,-0.8883,-0.9645,-1.0319,-1.1134,-1.2303,-1.2857,-1.3125,-1.3234,-1.2612,-1.3456,-1.5784,-1.5913,-1.7345,-2.0195,-2.0843,-2.0843,-2.0195,-1.9268,-1.8316,-1.7265,-1.5099,-1.3899,-1.3309,-1.2187,-1.2323,-1.3452,-1.3452,-1.454,-1.5896,-1.4264,-1.4115,-1.4658,-1.4064,-1.3126,-1.2155,-1.2257,-1.242,-1.261,-1.2752,-1.2807,-1.302,-1.4113,-1.5176,-1.6766,-1.9809,-2.1784,-2.3406,-2.5596,-2.6253,-2.6386,-2.6386,-2.574,-2.5251,-2.5251,-2.4185,-2.3167,-2.2504,-2.2605,-2.2587,-2.2154,-2.2699,-2.3033,-2.2197,-2.2197,-2.2452,-2.336,-2.3563,-2.3665,-2.3754,-2.4096,-2.4266,-2.4436,-2.4833,-2.5681,-2.7328,-2.7608,-2.8408,-3.0074,-3.0167,-3.0314,-3.0515,-3.14,-3.1903,-3.2209,-3.4923,-3.5807,-3.5024,-3.8007,-3.8732]},{"header":{"parameterUnit":"m.s-1","parameterCategory":1,"la1":30.6,"la2":29.2853,"lo1":-89.7004,"lo2":-87.6739,"dx":0.0162,"dy":0.0183,"nx":112,"ny":82,"refTime":"2022-12-31T06:00:00:Z","depth":0,"parameterNumber":3,"parameterNumberName":"V-component_of_WINDS"},"data":[0.0,0.0,0.0,0.0,0.0,0.0,0.0,0.0,0.0,0.0,0.0,0.0,0.0,0.0,0.0,0.0,0.0,0.0,0.0,0.0,0.0,0.0,0.0,0.0,0.0,0.0,0.0,0.0,0.0,0.0,0.0,0.0,0.0,0.0,0.0,0.0,0.0,0.0,0.0,0.0,0.0,0.0,0.0,0.0,0.0,0.0,0.0,0.0,0.0,0.0,0.0,0.0,0.0,0.0,0.0,0.0,0.0,0.0,0.0,0.0,0.0,0.0,0.0,0.0,0.0,0.0,0.0,0.0,0.0,0.0,0.0,0.0,0.0,0.0,0.0,0.0,0.0,0.0,0.0,0.0,0.0,0.0,0.0,0.0,0.0,0.0,0.0,0.0,0.0,0.0,-3.9336,-3.9815,-4.0118,-4.033,-4.0444,-4.0286,-3.943,-3.7647,0.0,0.0,0.0,0.0,0.0,0.0,0.0,0.0,0.0,0.0,0.0,0.0,0.0,0.0,0.0,0.0,0.0,0.0,0.0,0.0,0.0,0.0,0.0,0.0,0.0,0.0,0.0,0.0,0.0,0.0,0.0,0.0,0.0,0.0,0.0,0.0,0.0,0.0,0.0,0.0,0.0,0.0,0.0,0.0,0.0,0.0,0.0,0.0,0.0,0.0,0.0,0.0,0.0,0.0,0.0,0.0,0.0,0.0,0.0,0.0,0.0,0.0,0.0,0.0,0.0,0.0,0.0,0.0,0.0,0.0,0.0,0.0,0.0,0.0,0.0,0.0,0.0,0.0,0.0,0.0,0.0,0.0,0.0,0.0,0.0,0.0,0.0,0.0,0.0,0.0,0.0,0.0,0.0,0.0,0.0,0.0,0.0,0.0,0.0,0.0,0.0,0.0,0.0,0.0,-3.7602,-4.0354,-4.063,-4.0509,-4.0196,-4.0454,-3.9475,-3.6835,0.0,0.0,0.0,0.0,0.0,0.0,0.0,0.0,0.0,0.0,0.0,0.0,0.0,0.0,0.0,0.0,0.0,0.0,0.0,0.0,0.0,0.0,0.0,0.0,0.0,0.0,0.0,0.0,0.0,0.0,0.0,0.0,0.0,0.0,0.0,0.0,0.0,0.0,0.0,0.0,0.0,0.0,0.0,0.0,0.0,0.0,0.0,0.0,0.0,0.0,0.0,0.0,0.0,0.0,0.0,0.0,0.0,0.0,0.0,0.0,0.0,0.0,0.0,0.0,0.0,0.0,0.0,0.0,0.0,0.0,0.0,0.0,0.0,0.0,0.0,0.0,0.0,0.0,0.0,0.0,0.0,0.0,0.0,0.0,0.0,0.0,0.0,0.0,0.0,0.0,0.0,0.0,0.0,0.0,0.0,0.0,0.0,0.0,0.0,0.0,0.0,0.0,0.0,-3.7016,-3.817,-4.0539,-4.0526,-4.0342,-4.0321,-4.0384,-3.9402,-3.6985,-3.5982,0.0,0.0,0.0,0.0,0.0,0.0,0.0,0.0,0.0,0.0,0.0,0.0,0.0,0.0,0.0,0.0,0.0,0.0,0.0,0.0,0.0,0.0,0.0,0.0,0.0,0.0,0.0,0.0,0.0,0.0,0.0,0.0,0.0,0.0,0.0,0.0,0.0,0.0,0.0,0.0,0.0,0.0,0.0,0.0,0.0,0.0,0.0,0.0,0.0,0.0,0.0,0.0,0.0,0.0,0.0,0.0,0.0,0.0,0.0,0.0,0.0,0.0,0.0,0.0,0.0,0.0,0.0,0.0,0.0,0.0,0.0,0.0,0.0,0.0,0.0,0.0,0.0,0.0,0.0,0.0,0.0,0.0,0.0,0.0,0.0,0.0,0.0,0.0,0.0,0.0,0.0,0.0,0.0,0.0,0.0,0.0,0.0,0.0,0.0,0.0,0.0,0.0,-3.8536,-3.9393,-4.0684,-4.0436,-4.0286,-4.0469,-4.0389,-3.9248,-3.6759,-3.5501,0.0,0.0,0.0,0.0,0.0,0.0,0.0,0.0,0.0,0.0,0.0,0.0,0.0,0.0,0.0,0.0,0.0,0.0,0.0,0.0,0.0,0.0,0.0,0.0,0.0,0.0,0.0,0.0,0.0,0.0,0.0,0.0,0.0,0.0,0.0,0.0,0.0,0.0,0.0,0.0,0.0,0.0,0.0,0.0,0.0,0.0,0.0,0.0,0.0,0.0,0.0,0.0,0.0,0.0,0.0,0.0,0.0,0.0,0.0,0.0,0.0,0.0,0.0,0.0,0.0,0.0,0.0,0.0,0.0,0.0,0.0,0.0,0.0,0.0,0.0,0.0,0.0,0.0,0.0,0.0,0.0,0.0,0.0,0.0,0.0,0.0,0.0,0.0,0.0,0.0,0.0,0.0,0.0,0.0,0.0,0.0,0.0,0.0,0.0,0.0,0.0,0.0,-3.877,-4.0684,-4.08,-4.0585,-4.0492,-4.0508,-4.0607,-3.9101,-3.538,-3.4608,0.0,0.0,0.0,0.0,0.0,0.0,0.0,0.0,0.0,0.0,0.0,0.0,0.0,0.0,0.0,0.0,0.0,0.0,0.0,0.0,0.0,0.0,0.0,0.0,0.0,0.0,0.0,0.0,0.0,0.0,0.0,0.0,0.0,0.0,0.0,0.0,0.0,0.0,0.0,0.0,0.0,0.0,0.0,0.0,0.0,0.0,0.0,0.0,0.0,0.0,0.0,0.0,0.0,0.0,0.0,0.0,0.0,0.0,0.0,0.0,0.0,0.0,0.0,0.0,0.0,0.0,0.0,0.0,0.0,0.0,0.0,0.0,0.0,0.0,0.0,0.0,0.0,0.0,0.0,0.0,0.0,0.0,0.0,0.0,0.0,0.0,0.0,0.0,0.0,0.0,0.0,0.0,0.0,0.0,0.0,0.0,0.0,0.0,0.0,0.0,0.0,0.0,-3.7873,-3.9626,-4.0684,-4.0639,-4.0523,-4.0639,-4.0694,-3.9286,-3.583,0.0,0.0,0.0,0.0,0.0,0.0,0.0,0.0,0.0,0.0,0.0,0.0,0.0,0.0,0.0,0.0,0.0,0.0,0.0,0.0,0.0,0.0,0.0,0.0,0.0,0.0,0.0,0.0,0.0,0.0,0.0,0.0,0.0,0.0,0.0,0.0,0.0,0.0,0.0,0.0,0.0,0.0,0.0,0.0,0.0,0.0,0.0,0.0,0.0,0.0,0.0,0.0,0.0,0.0,0.0,0.0,0.0,0.0,0.0,0.0,0.0,0.0,0.0,0.0,0.0,0.0,0.0,0.0,0.0,0.0,0.0,0.0,0.0,0.0,0.0,0.0,0.0,0.0,0.0,0.0,0.0,0.0,0.0,0.0,0.0,0.0,0.0,0.0,0.0,0.0,0.0,0.0,0.0,0.0,0.0,0.0,0.0,0.0,0.0,0.0,0.0,0.0,-3.6484,-3.8372,-4.0104,-4.1523,-4.154,-4.1463,-4.154,-4.1619,-4.0124,-3.656,0.0,0.0,0.0,0.0,0.0,0.0,0.0,0.0,0.0,0.0,0.0,0.0,0.0,0.0,0.0,0.0,0.0,0.0,0.0,0.0,0.0,0.0,0.0,0.0,0.0,0.0,0.0,0.0,0.0,0.0,0.0,0.0,0.0,0.0,0.0,0.0,0.0,0.0,0.0,0.0,0.0,0.0,0.0,0.0,0.0,0.0,0.0,0.0,0.0,0.0,0.0,0.0,0.0,0.0,0.0,0.0,0.0,0.0,0.0,0.0,0.0,0.0,0.0,0.0,0.0,0.0,0.0,0.0,0.0,0.0,0.0,0.0,0.0,0.0,0.0,0.0,0.0,0.0,0.0,0.0,0.0,0.0,0.0,0.0,0.0,0.0,0.0,0.0,0.0,0.0,0.0,0.0,0.0,0.0,0.0,0.0,0.0,0.0,0.0,0.0,0.0,0.0,-3.82,-4.0664,-4.262,-4.3501,-4.3489,-4.3412,-4.3389,-4.3402,-4.1593,0.0,0.0,0.0,0.0,0.0,0.0,0.0,0.0,0.0,0.0,0.0,0.0,0.0,0.0,0.0,0.0,0.0,0.0,0.0,0.0,0.0,0.0,0.0,0.0,0.0,0.0,0.0,0.0,0.0,0.0,0.0,0.0,0.0,0.0,0.0,0.0,0.0,0.0,0.0,0.0,0.0,0.0,0.0,0.0,0.0,0.0,0.0,0.0,0.0,0.0,0.0,0.0,0.0,0.0,0.0,0.0,0.0,0.0,0.0,0.0,0.0,0.0,0.0,0.0,0.0,0.0,0.0,0.0,0.0,0.0,0.0,0.0,0.0,0.0,0.0,0.0,0.0,0.0,0.0,0.0,0.0,0.0,0.0,0.0,0.0,0.0,0.0,0.0,0.0,0.0,0.0,0.0,0.0,0.0,0.0,0.0,0.0,0.0,0.0,0.0,0.0,0.0,0.0,-3.8137,-4.0656,-4.2613,-4.3513,-4.3483,-4.338,-4.3392,-4.3383,-4.1605,-3.7376,0.0,0.0,0.0,0.0,0.0,0.0,0.0,0.0,0.0,0.0,0.0,0.0,0.0,0.0,0.0,0.0,0.0,0.0,0.0,0.0,0.0,0.0,0.0,0.0,0.0,0.0,0.0,0.0,0.0,0.0,0.0,0.0,0.0,0.0,0.0,0.0,0.0,0.0,0.0,0.0,0.0,0.0,0.0,0.0,0.0,0.0,0.0,0.0,0.0,0.0,0.0,0.0,0.0,0.0,0.0,0.0,0.0,0.0,0.0,0.0,0.0,0.0,0.0,0.0,0.0,0.0,0.0,0.0,0.0,0.0,0.0,0.0,0.0,0.0,0.0,0.0,0.0,0.0,0.0,0.0,0.0,0.0,0.0,0.0,0.0,0.0,0.0,0.0,0.0,0.0,0.0,0.0,0.0,0.0,0.0,0.0,0.0,0.0,0.0,0.0,0.0,0.0,-3.9607,-4.2229,-4.4375,-4.5586,-4.5579,-4.5499,-4.5515,-4.5134,-4.3501,-4.0122,0.0,0.0,0.0,0.0,0.0,0.0,0.0,0.0,0.0,0.0,0.0,0.0,0.0,0.0,0.0,0.0,0.0,0.0,0.0,0.0,0.0,0.0,0.0,0.0,0.0,0.0,0.0,0.0,0.0,0.0,0.0,0.0,0.0,0.0,0.0,0.0,0.0,0.0,0.0,0.0,0.0,0.0,0.0,0.0,0.0,0.0,0.0,0.0,0.0,0.0,0.0,0.0,0.0,0.0,0.0,0.0,0.0,0.0,0.0,0.0,0.0,0.0,0.0,0.0,0.0,0.0,0.0,0.0,0.0,0.0,0.0,0.0,0.0,0.0,0.0,0.0,0.0,0.0,0.0,0.0,0.0,0.0,0.0,0.0,0.0,0.0,0.0,0.0,0.0,0.0,0.0,0.0,0.0,0.0,0.0,0.0,0.0,0.0,0.0,0.0,0.0,0.0,-4.188,-4.4699,-4.707,-4.8711,-4.8771,-4.8663,-4.8624,-4.7761,-4.6283,-4.4064,0.0,0.0,0.0,0.0,0.0,0.0,0.0,0.0,0.0,0.0,0.0,0.0,0.0,0.0,0.0,0.0,0.0,0.0,0.0,0.0,0.0,0.0,0.0,0.0,0.0,0.0,0.0,0.0,0.0,0.0,0.0,0.0,0.0,0.0,0.0,0.0,0.0,0.0,0.0,0.0,0.0,0.0,0.0,0.0,0.0,0.0,0.0,0.0,0.0,0.0,0.0,0.0,0.0,0.0,0.0,0.0,0.0,0.0,0.0,0.0,-3.3066,-3.2248,0.0,0.0,0.0,0.0,0.0,0.0,0.0,0.0,0.0,0.0,0.0,0.0,0.0,0.0,0.0,0.0,0.0,0.0,0.0,0.0,0.0,0.0,0.0,0.0,0.0,0.0,0.0,0.0,0.0,0.0,0.0,0.0,0.0,0.0,0.0,0.0,0.0,0.0,0.0,0.0,-4.1941,-4.5207,-4.7734,-4.8789,-4.8771,-4.8537,-4.8109,-4.777,-4.6121,-4.2686,-4.1717,0.0,0.0,0.0,0.0,0.0,0.0,0.0,0.0,0.0,0.0,0.0,0.0,0.0,0.0,0.0,0.0,0.0,0.0,0.0,0.0,0.0,0.0,0.0,0.0,0.0,0.0,0.0,0.0,0.0,0.0,0.0,0.0,0.0,0.0,0.0,0.0,0.0,0.0,0.0,0.0,0.0,0.0,0.0,0.0,0.0,0.0,0.0,0.0,0.0,0.0,0.0,0.0,0.0,0.0,0.0,0.0,0.0,0.0,0.0,-3.4453,-3.4127,0.0,0.0,0.0,0.0,0.0,0.0,0.0,0.0,0.0,0.0,0.0,0.0,0.0,0.0,0.0,0.0,0.0,0.0,0.0,0.0,0.0,0.0,0.0,0.0,0.0,0.0,0.0,0.0,0.0,0.0,0.0,0.0,0.0,0.0,0.0,0.0,0.0,0.0,0.0,0.0,-4.3205,-4.6635,-4.9168,-4.9924,-4.9899,-4.9661,-4.9083,-4.8555,-4.7277,-4.5111,-4.3491,0.0,0.0,0.0,0.0,0.0,0.0,0.0,0.0,0.0,0.0,0.0,0.0,0.0,0.0,0.0,0.0,0.0,0.0,0.0,0.0,0.0,0.0,0.0,0.0,0.0,0.0,0.0,0.0,0.0,0.0,0.0,0.0,0.0,0.0,0.0,0.0,0.0,0.0,0.0,0.0,0.0,0.0,0.0,0.0,0.0,0.0,0.0,0.0,0.0,0.0,0.0,0.0,0.0,-3.2967,-3.3415,-3.3965,-3.4149,-3.5106,-3.6507,-3.5924,-3.6234,-3.7238,-3.7405,0.0,0.0,0.0,0.0,0.0,0.0,0.0,0.0,0.0,0.0,0.0,0.0,0.0,0.0,0.0,0.0,0.0,0.0,0.0,0.0,0.0,0.0,-3.7964,-3.6634,-3.7575,-3.8305,-3.6812,0.0,0.0,0.0,0.0,0.0,0.0,0.0,0.0,0.0,0.0,0.0,-4.4997,-4.8435,-5.0813,-5.1375,-5.1455,-5.1231,-5.0596,-4.9645,-4.8833,-4.8173,-4.55,-4.3782,0.0,0.0,0.0,0.0,0.0,0.0,0.0,0.0,0.0,0.0,0.0,0.0,0.0,0.0,0.0,0.0,0.0,0.0,0.0,0.0,0.0,0.0,0.0,0.0,0.0,0.0,0.0,0.0,0.0,0.0,0.0,0.0,-2.4507,-2.5189,0.0,0.0,0.0,0.0,0.0,0.0,0.0,0.0,0.0,0.0,0.0,0.0,0.0,-3.1319,-3.1418,-3.2803,-3.3498,-3.3571,-3.5568,-3.6827,-3.728,-3.7593,-3.8248,-3.915,-3.9364,0.0,-3.82,-3.9028,0.0,0.0,0.0,0.0,0.0,0.0,0.0,0.0,0.0,0.0,0.0,0.0,0.0,0.0,0.0,0.0,0.0,0.0,0.0,0.0,0.0,0.0,-4.0826,-4.0219,-4.0652,-4.0992,-4.0202,-3.7529,-3.532,-3.5605,-3.5154,-3.4535,0.0,0.0,0.0,0.0,0.0,0.0,-4.6737,-5.0082,-5.2223,-5.2333,-5.28,-5.2619,-5.1459,-5.0865,-4.9747,-4.789,-4.7346,-4.6121,-4.3899,-4.31,0.0,0.0,0.0,0.0,0.0,0.0,0.0,0.0,0.0,0.0,0.0,0.0,0.0,0.0,0.0,0.0,0.0,0.0,0.0,0.0,0.0,0.0,0.0,0.0,0.0,0.0,0.0,0.0,0.0,-2.4859,-2.577,-2.6419,-2.6665,-2.7411,0.0,0.0,0.0,0.0,0.0,0.0,0.0,0.0,0.0,-3.1749,-3.2049,-3.2334,-3.2555,-3.3681,-3.4395,-3.4806,-3.6116,-3.7102,-3.7749,-3.8209,-3.8961,-3.9949,-4.0192,-4.012,-3.9831,-4.0254,-3.9685,-3.8554,0.0,0.0,0.0,0.0,-3.8433,-3.8539,-3.9408,-3.9672,-3.9583,-3.9135,0.0,0.0,0.0,0.0,0.0,0.0,0.0,-3.8753,-4.0022,-4.1074,-4.187,-4.2183,-4.2265,-4.2044,-4.1237,-3.9255,-3.7491,-3.7145,-3.7119,-3.6619,-3.4904,-3.6996,0.0,0.0,0.0,-4.6894,-4.845,-5.1271,-5.3078,-5.299,-5.3259,-5.2947,-5.185,-5.1593,-5.0917,-4.9529,-4.9455,-4.8789,-4.7195,-4.5663,-4.4123,0.0,0.0,0.0,0.0,0.0,0.0,0.0,0.0,0.0,0.0,0.0,0.0,0.0,0.0,0.0,0.0,0.0,0.0,0.0,0.0,0.0,0.0,0.0,0.0,0.0,0.0,0.0,0.0,-2.5408,-2.6607,-2.7328,-2.8012,-2.902,0.0,0.0,0.0,0.0,0.0,0.0,-3.2596,-3.2634,-3.2446,-3.2154,-3.2784,-3.3267,-3.3484,-3.4391,-3.5031,-3.5554,-3.6347,-3.7102,-3.7857,-3.8438,-3.9234,-4.0279,-4.049,-4.0712,-4.1001,-4.1274,-4.0938,-4.0318,-4.0577,-4.0137,-3.9457,-4.0246,-4.0488,-4.051,-4.1256,-4.1353,-4.105,-4.046,-3.9984,-3.9482,-3.8839,0.0,0.0,0.0,0.0,-3.9948,-4.1514,-4.2299,-4.2826,-4.3276,-4.3188,-4.2688,-4.1662,-4.0275,-3.897,-3.8044,-3.8546,-3.843,-3.6303,-3.9194,0.0,-4.1919,-4.5596,-4.8887,-5.0431,-5.2541,-5.3832,-5.3723,-5.3874,-5.356,-5.2541,-5.2356,-5.1903,-5.0966,-5.0845,-5.0524,-4.9989,-4.8279,-4.6969,-4.6354,0.0,0.0,0.0,0.0,0.0,0.0,0.0,0.0,0.0,0.0,0.0,0.0,0.0,0.0,0.0,0.0,0.0,0.0,0.0,0.0,0.0,0.0,0.0,0.0,0.0,0.0,0.0,0.0,0.0,-2.7021,-2.8436,0.0,0.0,0.0,0.0,-3.2812,-3.2844,-3.3425,-3.495,-3.4017,-3.3716,-3.4394,-3.3841,-3.3604,-3.3585,-3.4792,-3.5385,-3.543,-3.6852,-3.7861,-3.8508,-3.9118,-3.9789,-4.039,-4.0823,-4.0969,-4.1046,-4.1974,-4.2186,-4.2073,-4.2879,-4.2831,-4.2372,-4.2842,-4.281,-4.2649,-4.325,-4.2827,-4.2031,-4.213,-4.0999,-3.9746,-4.0532,-3.994,0.0,0.0,-4.0978,-4.1642,-4.2787,-4.3853,-4.4384,-4.3593,-4.3531,-4.3277,-4.1977,-3.9953,-3.8322,-3.8209,-3.8797,-3.9103,-3.8438,0.0,-4.2941,-4.6014,-4.7281,-4.9258,-5.2933,-5.4147,-5.4626,-5.4643,-5.5203,-5.5071,-5.3811,-5.3366,-5.2629,-5.1338,-5.1005,-5.0802,-5.0762,-5.0652,-4.9478,-4.7093,-4.7602,0.0,0.0,0.0,0.0,0.0,0.0,0.0,0.0,0.0,0.0,0.0,0.0,0.0,0.0,0.0,0.0,0.0,0.0,0.0,0.0,0.0,0.0,0.0,0.0,0.0,0.0,0.0,0.0,-2.8442,-2.9469,0.0,-3.1907,-3.1941,-3.2402,-3.3658,-3.3465,-3.3728,-3.4779,-3.4021,-3.386,-3.4559,-3.3953,-3.3802,-3.4219,-3.5011,-3.5711,-3.6382,-3.7612,-3.8518,-3.9155,-3.9813,-4.0348,-4.0805,-4.0921,-4.1024,-4.117,-4.2017,-4.2238,-4.2208,-4.3057,-4.3209,-4.2869,-4.2776,-4.2849,-4.2986,-4.3025,-4.261,-4.2139,-4.2302,-4.2324,-4.2285,-4.2558,-4.2346,-4.2058,-4.2354,-4.2584,-4.2982,-4.4036,-4.45,-4.4764,-4.4948,-4.4662,-4.4092,-4.318,-4.1296,-3.964,-3.9177,-3.9023,-3.8858,-3.8554,-4.1834,-4.4839,-4.5854,-4.8657,-5.1277,-5.311,-5.404,-5.4562,-5.4562,-5.479,-5.4609,-5.387,-5.3968,-5.3624,-5.2594,-5.2636,-5.2401,-5.1682,-5.1637,-5.1238,-5.0322,-5.0294,-4.8296,0.0,0.0,0.0,0.0,0.0,0.0,0.0,0.0,0.0,0.0,0.0,0.0,0.0,0.0,0.0,0.0,0.0,0.0,0.0,0.0,0.0,0.0,0.0,0.0,0.0,-2.7199,-2.9089,-2.9566,-3.0593,-3.171,-3.3057,-3.3156,-3.3557,-3.4577,-3.4375,-3.4333,-3.4607,-3.3971,-3.377,-3.4219,-3.382,-3.3921,-3.4592,-3.5552,-3.6377,-3.7148,-3.8386,-3.9258,-3.9813,-4.036,-4.0754,-4.0985,-4.0985,-4.1022,-4.1132,-4.1932,-4.2163,-4.216,-4.3011,-4.3133,-4.2869,-4.2757,-4.2776,-4.2944,-4.3265,-4.3451,-4.3543,-4.3669,-4.4101,-4.457,-4.4531,-4.4297,-4.4101,-4.4255,-4.4079,-4.405,-4.5007,-4.5138,-4.5221,-4.5755,-4.5381,-4.4691,-4.4008,-4.2449,-4.1059,-4.0658,-4.0048,-3.9625,-3.9688,-4.328,-4.6245,-4.6524,-4.9632,-5.2085,-5.2482,-5.372,-5.4382,-5.4176,-5.435,-5.4322,-5.3832,-5.3596,-5.3381,-5.3193,-5.2927,-5.2696,-5.2472,-5.1746,-5.1457,-5.1629,-5.1532,-4.9674,-4.6026,0.0,0.0,0.0,0.0,0.0,0.0,0.0,0.0,0.0,0.0,0.0,0.0,0.0,0.0,0.0,0.0,0.0,0.0,0.0,0.0,0.0,0.0,0.0,-2.6125,-2.8167,-2.9638,-3.0242,-3.1679,-3.2841,-3.3547,-3.417,-3.483,-3.5532,-3.5577,-3.527,-3.4592,-3.3921,-3.3598,-3.3649,-3.3649,-3.3971,-3.464,-3.6353,-3.7362,-3.7639,-3.9138,-4.0003,-4.0423,-4.0808,-4.0977,-4.1016,-4.1001,-4.0913,-4.089,-4.1707,-4.2028,-4.2047,-4.2887,-4.2926,-4.2543,-4.2961,-4.2889,-4.2772,-4.4228,-4.5434,-4.6328,-4.6328,-4.6367,-4.6367,-4.6328,-4.5742,-4.5234,-4.5898,-4.5469,-4.4915,-4.5694,-4.5859,-4.5792,-4.5795,-4.5569,-4.5124,-4.4411,-4.3281,-4.2414,-4.2528,-4.1929,-4.1493,-4.2074,-4.4649,-4.7056,-4.8346,-5.0254,0.0,-5.1357,-5.3121,-5.4105,-5.3386,-5.3928,-5.4217,-5.3758,-5.2305,-5.1937,-5.3157,-5.172,-5.1573,-5.3109,-5.1064,-5.0228,-5.0835,-5.1121,-5.065,-4.9356,0.0,0.0,0.0,0.0,0.0,0.0,0.0,0.0,0.0,0.0,0.0,0.0,0.0,0.0,0.0,0.0,0.0,0.0,0.0,0.0,0.0,-2.605,-2.6909,-2.752,-2.8592,-2.9813,-3.1013,-3.1567,-3.2272,-3.3495,-3.3802,-3.412,-3.483,-3.4878,-3.4592,-3.3921,-3.3235,-3.3339,-3.4268,-3.417,-3.4665,-3.5916,-3.7099,-3.795,-3.8477,-3.9363,-4.01,-4.0626,-4.077,-4.084,-4.0868,-4.0833,-4.0815,-4.0797,-4.1029,-4.1089,-4.1216,-4.2656,-4.3107,-4.2982,-4.3426,-4.3993,-4.4641,-4.5349,-4.6251,-4.7101,-4.721,-4.7656,-4.8041,-4.731,-4.7008,-4.6797,-4.625,-4.5974,-4.5902,-4.6141,-4.6048,-4.588,-4.5847,-4.5974,-4.5879,-4.5443,-4.5041,-4.4678,-4.4425,-4.4354,-4.419,-4.3911,-4.5346,-4.7064,-4.8603,-4.975,-5.0626,-5.1093,-5.1694,-5.1762,-5.1009,-5.1508,-5.1883,-5.1791,-5.2081,-5.2568,-5.3193,-5.2601,-5.2322,-5.2427,-5.1346,-5.1083,-5.1729,-5.0227,-4.9259,0.0,0.0,0.0,0.0,0.0,0.0,0.0,0.0,0.0,0.0,0.0,0.0,0.0,0.0,0.0,0.0,0.0,0.0,0.0,0.0,0.0,0.0,-2.7464,-2.8041,-2.9342,-2.99,-3.0543,-3.1422,-3.1796,-3.2351,-3.3495,-3.382,-3.417,-3.4592,-3.4592,-3.417,-3.3235,-3.3077,-3.3391,-3.4153,-3.457,-3.5262,-3.6374,-3.7542,-3.8328,-3.8809,-3.9951,-4.0766,-4.1261,-4.1672,-4.185,-4.18,-4.1808,-4.1777,-4.1755,-4.1716,-4.17,-4.1793,0.0,0.0,0.0,0.0,-4.492,-4.6167,-4.6848,-4.7745,-4.8574,-4.8591,-4.9192,-4.9603,-4.8283,-4.7911,-4.7866,-4.7255,-4.6877,-4.6687,-4.7031,-4.6989,-4.6817,-4.6817,-4.6935,-4.6942,-4.6594,-4.6712,-4.6763,-4.6424,-4.6637,0.0,-4.5939,-4.622,-4.6869,-4.7759,-4.8421,-4.8907,-4.9137,-4.9966,-5.0382,-5.0066,-5.0616,-5.1011,-5.106,-5.0976,0.0,0.0,0.0,-5.0818,-5.0297,-5.0181,0.0,0.0,0.0,-4.9793,-5.1117,-4.9418,0.0,0.0,-4.8637,-4.845,0.0,0.0,0.0,0.0,0.0,0.0,0.0,0.0,0.0,0.0,0.0,0.0,0.0,0.0,0.0,0.0,-2.8001,-2.838,-3.113,-3.1482,-3.1482,-3.1482,-3.2048,-3.2734,-3.3443,-3.4021,-3.4447,-3.4496,-3.4496,-3.3971,-3.2788,-3.3287,0.0,0.0,0.0,-3.5857,-3.6626,-3.7993,-3.8802,-3.9137,-4.0829,-4.1819,-4.2162,-4.3008,-4.3316,-4.3184,-4.3184,-4.3162,-4.3085,-4.3085,-4.3162,-4.3162,-4.2277,-4.2008,-4.2277,-4.402,-4.5742,-4.7349,-4.8446,0.0,0.0,-5.0155,-5.0587,-5.0874,-4.9159,-4.8631,-4.8629,-4.8514,-4.7865,-4.7337,-4.8106,-4.8221,-4.8125,-4.8125,-4.8202,-4.8126,-4.7671,-4.8173,-4.864,-4.8163,-4.8584,-4.8701,-4.7768,-4.7078,-4.6585,-4.6454,-4.6783,-4.698,-4.6487,-4.8206,-4.9528,-4.9608,-5.036,0.0,-5.084,-4.9604,-4.9478,-5.098,-4.9674,-4.8574,-4.7969,-4.8627,-4.9074,-4.9274,-5.0004,-5.1705,-5.4546,-5.4698,-5.5098,-5.5574,-4.9972,-4.9159,0.0,0.0,0.0,0.0,0.0,0.0,0.0,0.0,0.0,0.0,0.0,0.0,0.0,0.0,0.0,-2.9633,-3.0367,-3.0808,-3.1452,-3.1482,-3.1482,-3.1482,-3.1655,-3.1992,-3.2734,-3.2895,-3.3182,-3.3719,-3.377,-3.37,-3.3443,-3.3547,-3.4038,-3.5023,-3.5668,-3.6622,-3.8016,-3.9335,-4.0338,-4.0978,-4.2053,0.0,-4.2953,-4.3145,-4.3201,-4.3124,-4.3124,-4.3124,-4.3085,-4.3085,-4.347,-4.397,-4.3162,-4.3239,-4.397,-4.5137,-4.6239,-4.7434,-4.9173,-4.9859,-5.0124,-5.0778,-5.1029,-5.0895,-4.9753,-4.9465,0.0,-4.8574,-4.8256,-4.826,-4.8414,-4.8356,-4.826,-4.826,-4.874,-4.8948,-4.8211,-4.9248,-4.9921,-4.878,-4.918,-4.9229,-4.7832,-4.7474,-4.711,-4.6399,-4.6325,-4.6357,-4.626,-4.7275,-4.7794,-4.7198,-4.8436,-4.9264,-4.9318,-4.9521,-5.0079,-5.1015,-5.022,-4.9447,-4.8787,-5.0011,-5.1025,-5.1634,-5.2916,-5.417,-5.5354,-5.6026,-5.6429,-5.6528,-5.4669,-5.4228,0.0,0.0,0.0,0.0,0.0,0.0,0.0,0.0,0.0,0.0,0.0,-2.3319,-2.5458,0.0,-2.8051,-2.9943,-3.0658,-3.1043,-3.1424,-3.1482,-3.1482,-3.1482,-3.1853,-3.2216,-3.2547,-3.2895,-3.3077,-3.3077,-3.3391,-3.3443,-3.313,-3.3989,-3.4792,-3.5385,-3.6622,-3.7821,-3.9013,-4.0312,-4.1358,-4.2155,-4.3239,-4.38,-4.3969,-4.4338,-4.4509,-4.4509,-4.447,-4.447,-4.4509,-4.447,-4.4701,-4.5047,-4.5103,-4.5295,-4.574,-4.6754,-4.7713,-4.872,-5.0187,-5.0649,-5.0664,-5.1029,-5.1068,-5.0798,-4.9798,-4.9567,-4.949,-4.899,-4.8894,-4.9048,-4.949,-4.9529,-4.951,-4.951,-4.9779,-4.9946,-4.9532,-5.0417,-5.0919,-4.9579,-4.9573,-4.9171,-4.7242,-4.6555,-4.6064,-4.5561,-4.5048,-4.5122,-4.6103,-4.6592,-4.7108,-4.7661,-4.8402,-4.888,-4.8939,-4.9286,-4.9595,-5.0033,-4.9722,-4.9864,-5.0738,-5.1474,-5.252,-5.3954,-5.4768,-5.5525,-5.6196,-5.66,-5.7208,-5.7983,-5.7582,-5.7375,0.0,0.0,0.0,0.0,0.0,0.0,0.0,-2.1384,-2.1644,-2.1471,-2.2274,-2.3694,-2.5846,-2.6805,-2.7878,-2.9723,-3.0208,-3.051,-3.1161,-3.1424,-3.1539,-3.1682,-3.2216,-3.2602,-3.2602,-3.3182,-3.3339,-3.2625,-3.3235,-3.3443,-3.3002,-3.4508,-3.5528,-3.5839,-3.7647,-3.9068,-3.9962,-4.1288,-4.2387,-4.3194,-4.4395,-4.4984,-4.4975,-4.5606,-4.5873,-4.5911,-4.5841,-4.5835,-4.5912,-4.5835,-4.5825,-4.5911,-4.6775,-4.7058,-4.7108,-4.8347,-4.9257,-4.9974,-5.104,-5.131,-5.1199,-5.1125,-5.1029,-5.076,-4.9933,-4.9663,-4.9663,-4.9663,-4.9663,-4.9856,-5.051,-5.0702,-5.0741,-5.0702,-5.0624,-5.0588,-5.0514,-5.1099,-5.1157,-4.9685,-4.9437,-4.8753,-4.632,-4.5395,-4.4922,-4.4695,-4.4031,-4.4217,-4.6054,-4.639,-4.7062,-4.8933,-4.9141,-4.9195,-4.9195,-4.9229,-4.9297,-4.9433,-4.9718,-5.0789,-5.2811,-5.3218,-5.4186,-5.5901,-5.616,-5.6519,-5.7023,-5.7192,-5.8033,-5.9421,-5.9619,-5.959,-2.6393,-2.5866,-2.5011,-2.3699,-2.3203,-2.2626,0.0,-2.1042,-2.1282,-2.1261,-2.2048,-2.3283,-2.5186,-2.5996,-2.7007,-2.8848,-2.9752,-3.0329,-3.0389,-3.1043,-3.1739,-3.2382,-3.2547,-3.2602,-3.2602,-3.3182,-3.3339,-3.2625,-3.3235,-3.3853,-3.435,-3.5011,-3.6015,-3.7327,-3.8729,-4.0067,-4.1304,-4.2911,-4.4019,-4.4669,-4.5517,-4.5936,-4.5933,-4.6021,-4.6026,-4.589,-4.5891,-4.5881,-4.592,-4.5881,-4.588,-4.5988,-4.6852,-4.7168,-4.7377,-4.9173,-4.9903,-5.0109,-5.1063,-5.1326,-5.1215,-5.1177,-5.1068,-5.0875,-5.076,-5.0625,-5.0548,-5.0548,-5.0625,-5.0721,-5.0702,-5.0779,-5.0875,-5.0741,-5.044,-5.0076,-4.9861,-5.0158,-4.993,-4.8048,-4.8226,-4.7892,-4.5384,-4.5277,-4.5295,-4.4489,-4.4278,-4.486,-4.6563,-4.6961,-4.7777,-4.9439,-4.9761,-4.9861,-4.9861,-4.993,-5.0264,-5.1014,-5.2292,-5.3419,-5.4378,-5.578,-5.6595,-5.6772,-5.7471,-5.7836,-5.7836,-5.8613,-5.9384,-6.025,-6.099,-6.0933,-2.744,-2.6857,-2.6012,-2.3683,-2.2974,-2.2446,-2.061,-2.0552,-2.0791,-2.0502,-2.101,-2.1893,-2.3194,-2.4093,-2.532,-2.7167,-2.863,-2.969,-3.0208,-3.0955,-3.1879,-3.3024,-3.2841,-3.2734,-3.313,-3.3077,-3.3024,-3.3182,-3.3802,-3.4463,-3.5011,-3.6098,-3.7326,-3.8729,-4.0049,-4.1439,-4.2955,-4.4001,-4.4897,-4.5577,-4.6007,-4.6231,-4.6197,-4.6055,-4.5937,-4.5857,-4.5963,-4.6023,-4.6023,-4.6023,-4.6309,-4.6847,-4.7719,-4.8392,-4.8914,-4.9705,-4.9984,-5.0062,-5.0551,-5.0625,-5.0506,-5.0504,-5.0348,-5.024,-5.076,-5.0875,-5.0837,-5.0837,-5.0914,-5.0991,-5.0858,-5.085,-5.0932,-5.1031,-5.0609,-5.0266,-5.0676,-5.0089,-4.9252,-4.8294,-4.7498,-4.6669,-4.5547,-4.5078,-4.5011,-4.5447,-4.5667,-4.6128,-4.6969,-4.8037,-4.9117,-5.0379,-5.0585,-5.0838,-5.1294,-5.1365,-5.1946,-5.3197,-5.3828,-5.5169,-5.7317,-5.759,-5.8048,-5.891,-5.8773,-5.8437,-5.7943,-5.8751,-5.9593,-6.0415,-6.1199,-6.1914,-2.7977,-2.7031,-2.5846,-2.328,-2.2408,-2.1689,-1.9944,-2.0232,-2.0751,-2.0346,-2.0919,-2.168,-2.2616,-2.3452,-2.4517,-2.6357,-2.7984,-2.9317,-3.0208,-3.0955,-3.2048,-3.3443,-3.3002,-3.3077,-3.4235,-3.3617,-3.3411,-3.4038,-3.475,-3.5374,-3.5973,-3.7362,-3.872,-3.9875,-4.1415,-4.2833,-4.4183,-4.4877,-4.5531,-4.6115,-4.621,-4.6254,-4.6247,-4.6003,-4.5879,-4.5845,-4.6002,-4.6111,-4.6133,-4.6406,-4.6875,-4.7575,-4.8671,-4.9504,-5.0026,-5.0257,-5.0349,-5.0398,-5.049,-5.0457,-5.0332,-5.0332,-5.016,-5.0094,-5.074,-5.1068,-5.126,-5.1271,-5.1509,-5.176,-5.1615,-5.1485,-5.1392,-5.1345,-5.0757,-5.0298,-5.0475,-4.9501,-4.8363,-4.7691,-4.6565,-4.5709,-4.5372,-4.5282,-4.5565,-4.6531,-4.765,-4.8187,-4.786,-4.9292,-5.0657,-5.1312,-5.1571,-5.2034,-5.2854,-5.3103,-5.3939,-5.5562,-5.6062,-5.7421,-5.988,-5.9434,-5.9562,-6.0397,-5.9574,-5.8806,-5.8246,-5.8806,-5.9704,-6.076,-6.1537,-6.2676,-2.7847,-2.5751,-2.3554,-2.2101,-2.0859,-1.9754,-1.8824,-2.0053,-2.1345,-2.1366,-2.244,-2.3745,-2.4707,-2.4921,-2.5557,-2.7378,-2.8427,-2.9317,-3.0208,-3.0955,-3.2048,-3.3443,-3.3002,-3.3566,-3.6088,-3.5215,-3.4764,-3.5296,-3.5968,-3.6681,-3.7467,-3.8798,-3.9904,-4.0741,-4.2829,-4.4167,-4.4687,-4.5592,-4.6092,-4.6111,-4.6078,-4.61,-4.6082,-4.5967,-4.5907,-4.5907,-4.6022,-4.6113,-4.6172,-4.7148,-4.7578,-4.777,-4.9498,-5.0085,-5.0087,-5.0875,-5.1264,-5.1367,-5.1367,-5.1265,-5.1145,-5.1145,-5.101,-5.0875,-5.1068,-5.1549,-5.2085,-5.2212,-5.2864,-5.3475,-5.3359,-5.3028,-5.2513,-5.1684,-5.0892,-4.9864,-4.8434,-4.7762,-4.6962,-4.5258,-4.5353,-4.5434,-4.4529,-4.6203,-4.7676,-4.7738,-5.0037,-5.1124,-4.9448,-5.0895,-5.2093,-5.209,-5.2798,-5.3592,-5.4458,-5.5266,-5.6386,-5.7975,-5.9456,-6.0628,-6.152,-6.1514,-6.1135,-6.0397,-5.9574,-5.9111,-5.9044,-5.9111,-5.9925,-6.1548,-6.2398,-6.3221,-2.7072,-2.5282,-2.3306,-2.0764,-2.0004,-1.9927,-2.0029,-2.1218,-2.255,-2.3436,-2.4779,-2.5895,-2.6272,-2.688,-2.7524,-2.8132,-2.9491,-3.0631,-3.0954,-3.2069,-3.3235,-3.412,-3.3924,-3.4427,-3.6215,-3.563,-3.5552,-3.6516,-3.6958,-3.772,-3.8866,-3.9851,-4.1166,-4.2867,-4.3918,-4.4797,-4.5508,-4.5902,-4.6115,-4.6103,-4.6103,-4.6026,-4.5911,-4.5834,-4.5834,-4.5834,-4.595,-4.6036,-4.6169,-4.7204,-4.7874,-4.8451,-4.9616,-5.0339,-5.0752,-5.1026,-5.1151,-5.1139,-5.0533,-5.0325,-5.0273,-5.0257,-5.0529,-5.0952,-5.1684,-5.2476,-5.3106,-5.3149,-5.3239,-5.3178,-5.2466,-5.1544,-5.0566,-5.0003,-4.8791,-4.7755,-4.749,-4.6486,-4.5469,-4.4899,-4.4755,-4.505,-4.5874,-4.6991,-4.8419,-5.0252,-5.0896,-5.1522,-5.2609,-5.3369,-5.4187,-5.513,-5.5962,-5.6765,-5.7606,-5.7934,-5.8738,-6.0345,-6.0909,-6.1323,-6.1587,-6.1085,-6.0397,-5.9574,-5.9245,-5.9111,-5.9111,-6.0238,-6.1306,-6.2398,-6.3257,-6.4396,-2.6868,-2.5101,-2.343,-2.1146,-2.1079,-2.1642,-2.2361,-2.3857,-2.5394,-2.633,-2.7523,-2.8359,-2.808,-2.8795,-2.9591,-3.0174,-3.1482,-3.2536,-3.288,-3.3738,-3.4522,-3.483,-3.4758,-3.5273,-3.679,-3.665,-3.6808,-3.7578,-3.8068,-3.8884,-4.0225,-4.1343,-4.2686,-4.4268,-4.4898,-4.5421,-4.5891,-4.6021,-4.6065,-4.5988,-4.5988,-4.5911,-4.5719,-4.5796,-4.5796,-4.5796,-4.5911,-4.618,-4.6645,-4.7617,-4.8448,-4.924,-5.0067,-5.0653,-5.1062,-5.1373,-5.1453,-5.1337,-5.0859,-5.0674,-5.0671,-5.0989,-5.1336,-5.1798,-5.2492,-5.3298,-5.3948,-5.3841,-5.3724,-5.3339,-5.2188,-5.0918,-4.9728,-4.8837,-4.768,-4.6706,-4.641,-4.5539,-4.4662,-4.4358,-4.4813,-4.5544,-4.6733,-4.8246,-5.0005,-5.2175,-5.2499,-5.3168,-5.4697,-5.5257,-5.5929,-5.7098,-5.796,-5.8767,-5.9575,-6.0056,-6.084,-6.1961,-6.224,-6.2095,-6.1623,-6.1113,-6.0458,-5.9574,-5.9574,-5.9704,-5.9988,-6.1364,-6.2457,-6.3312,-6.4433,-6.5521,-2.7117,-2.5196,-2.375,-2.3229,-2.3745,-2.4612,-2.5522,-2.7788,-2.9726,-2.9784,-3.0598,-3.1064,-3.0393,-3.0771,-3.1748,-3.3365,-3.4129,-3.4809,-3.5626,-3.5819,-3.5738,-3.5464,-3.5518,-3.6167,-3.7754,-3.8287,-3.8499,-3.8559,-3.9252,-4.0272,-4.158,-4.317,-4.4308,-4.4916,-4.5673,-4.6036,-4.589,-4.6026,-4.5988,-4.5796,-4.5796,-4.5719,-4.5586,-4.5757,-4.5813,-4.5863,-4.6056,-4.6667,-4.7516,-4.8409,-4.9221,-5.0067,-5.0818,-5.1068,-5.1068,-5.1856,-5.2087,-5.201,-5.2298,-5.2298,-5.2279,-5.3105,-5.3356,-5.328,-5.3413,-5.4069,-5.4661,-5.4321,-5.4173,-5.3832,-5.2454,-5.1073,-4.9695,-4.8116,-4.7334,-4.6608,-4.5079,-4.4799,-4.4496,-4.3657,-4.5415,-4.7092,-4.7123,-4.9876,-5.2312,-5.3348,-5.4857,-5.5819,-5.5751,-5.6582,-5.7447,-5.8134,-5.8914,-5.9722,-6.0456,-6.1678,-6.2546,-6.2818,-6.3308,-6.2962,-6.1568,-6.1604,-6.1171,-6.0335,-6.0397,-6.0855,-6.164,-6.249,-6.3348,-6.4237,-6.5778,-6.6512,-2.7299,-2.5828,-2.4666,-2.4362,-2.5064,-2.6358,-2.8482,-3.0038,-3.1356,-3.2332,-3.3419,-3.4133,-3.3994,-3.4069,-3.4491,-3.5283,-3.5283,-3.5243,-3.5465,-3.5903,-3.6239,-3.6165,-3.6833,-3.7542,-3.8214,-3.9261,-4.012,-4.066,-4.0896,-4.1737,-4.3421,-4.4133,-4.487,-4.5629,-4.582,-4.5875,-4.5834,-4.5873,-4.5834,-4.5796,-4.5796,-4.5796,-4.5757,-4.5796,-4.6177,-4.6843,-4.6882,-4.7418,-4.8294,-4.9177,-4.9591,-4.9836,-5.1279,-5.1741,-5.1741,-5.2587,-5.2895,-5.2972,-5.3703,-5.351,-5.2972,-5.3203,-5.3664,-5.4203,-5.4339,-5.4725,-5.5021,-5.4443,-5.3333,-5.1937,-5.0453,-4.8507,-4.6749,-4.5815,-4.4966,-4.4312,-4.4376,-4.4448,-4.4728,-4.5738,-4.8072,-5.0026,-5.0505,-5.2009,-5.3179,-5.345,-5.5269,-5.6648,-5.6622,-5.8374,-5.9865,-6.0628,-6.141,-6.1998,-6.2181,-6.2512,-6.2696,-6.2805,-6.2917,-6.2303,-6.076,-6.1286,-6.0902,-5.9443,-6.0665,-6.1723,-6.2506,-6.3347,-6.4522,-6.5888,-6.6292,-6.6806,-2.7981,-2.728,-2.6879,-2.6892,-2.7937,-2.9493,-3.1572,-3.3017,-3.412,-3.4959,-3.5776,-3.6152,-3.5723,-3.5912,-3.6308,-3.7013,-3.7153,-3.7154,-3.7154,-3.758,-3.7733,-3.7324,-3.7881,-3.8449,-3.8897,-4.0101,-4.1227,-4.2101,-4.2455,-4.312,-4.433,-4.4914,-4.5414,-4.5889,-4.5877,-4.5834,-4.5796,-4.5757,-4.5719,-4.5719,-4.5757,-4.578,-4.5711,-4.582,-4.6326,-4.7106,-4.7171,-4.79,-4.9107,-4.9548,-5.0107,-5.0759,-5.1664,-5.2202,-5.2587,-5.3433,-5.378,-5.3913,-5.4933,-5.4963,-5.4503,-5.4353,-5.4501,-5.4709,-5.4473,-5.4124,-5.3674,-5.2806,-5.1307,-4.9642,-4.8152,-4.6548,-4.5258,-4.493,-4.4358,-4.4234,-4.5341,-4.565,-4.6205,-4.8243,-4.9863,-5.1383,-5.2842,-5.3581,-5.4106,-5.4391,-5.5827,-5.6997,-5.7382,-5.9509,-6.1316,-6.2058,-6.2548,-6.2805,-6.2805,-6.3014,-6.3062,-6.2805,-6.2695,-6.2073,-6.0997,-6.1343,-6.1315,-6.0733,-6.1996,-6.3075,-6.3912,-6.4725,-6.5632,-6.6512,-6.6843,-6.7247,-2.9303,-2.9241,-2.9749,-3.0008,-3.1363,-3.3069,-3.4579,-3.5915,-3.6955,-3.7327,-3.7536,-3.7415,-3.6619,-3.6916,-3.7574,-3.8403,-3.9014,-3.932,-3.932,-3.9516,-3.9365,-3.8585,-3.8776,-3.9189,-3.9844,-4.0978,-4.2129,-4.3141,-4.3881,-4.4434,-4.487,-4.5531,-4.5864,-4.5851,-4.5873,-4.5834,-4.5796,-4.568,-4.5637,-4.5626,-4.5742,-4.5751,-4.5655,-4.593,-4.6436,-4.7103,-4.7395,-4.8394,-4.9836,-4.9894,-5.0759,-5.2087,-5.2202,-5.2702,-5.3472,-5.4276,-5.4562,-5.471,-5.5706,-5.6026,-5.5874,-5.5744,-5.5415,-5.4848,-5.4,-5.2828,-5.1515,-5.0303,-4.885,-4.7358,-4.6035,-4.5144,-4.4662,-4.4737,-4.4874,-4.5422,-4.7084,-4.7662,-4.8537,-5.0632,-5.1177,-5.1966,-5.4218,-5.4544,-5.4695,-5.5437,-5.6246,-5.7029,-5.7819,-5.9889,-6.1625,-6.2522,-6.2658,-6.2695,-6.2805,-6.3215,-6.3308,-6.2805,-6.2585,-6.2245,-6.1804,-6.1895,-6.2257,-6.2939,-6.3868,-6.4756,-6.5602,-6.6367,-6.6721,-6.678,-6.7479,-6.7757,-3.1613,-3.1698,-3.2022,-3.2716,-3.3468,-3.4585,-3.652,-3.7034,-3.733,-3.8331,-3.8182,-3.7962,-3.8265,-3.8266,-3.8455,-3.9249,-3.9129,-3.8921,-3.8921,-3.8942,-3.895,-3.8891,-3.9333,-4.0103,-4.1222,-4.2147,-4.3188,-4.4453,-4.517,-4.5659,-4.5852,-4.581,-4.575,-4.568,-4.5624,-4.5719,-4.5796,-4.5796,-4.5786,-4.5757,-4.5796,-4.5786,-4.5777,-4.6498,-4.7073,-4.7639,-4.872,-4.9503,-5.013,-5.1101,-5.1644,-5.2087,-5.351,-5.4126,-5.4336,-5.4814,-5.5021,-5.5007,-5.4844,-5.4392,-5.4081,-5.5303,-5.5216,-5.439,-5.2824,-5.1544,-5.0252,-4.8724,-4.7265,-4.5966,-4.5144,-4.4251,-4.3771,-4.4586,-4.529,-4.6184,-4.7818,-4.9685,-5.1211,-5.1691,-5.2427,-5.3381,-5.4385,-5.4106,-5.3946,-5.4695,-5.5417,-5.6178,-5.6972,-5.8609,-6.0264,-6.1691,-6.1814,-6.2071,-6.2768,-6.2904,-6.2904,-6.2805,-6.2768,-6.2683,-6.2635,-6.3292,-6.3746,-6.3791,-6.5077,-6.6138,-6.6955,-6.7529,-6.7941,-6.8182,-6.8331,-6.8148,-3.2601,-3.2997,-3.3537,-3.3804,-3.4419,-3.5436,-3.7196,-3.7593,-3.787,-3.9011,-3.9126,-3.9085,-3.9227,-3.91,-3.9186,-3.9614,-3.9476,-3.935,-3.9339,-3.9539,-3.9677,-3.9709,-4.0076,-4.0745,-4.1801,-4.2731,-4.3705,-4.4705,-4.5469,-4.5935,-4.5984,-4.5796,-4.568,-4.5586,-4.568,-4.5719,-4.5796,-4.5797,-4.5713,-4.5547,-4.5536,-4.5635,-4.5794,-4.6221,-4.6997,-4.8007,-4.8593,-4.9455,-5.0437,-5.104,-5.1777,-5.2653,-5.3491,-5.4089,-5.4455,-5.4269,-5.422,-5.4129,-5.3794,-5.3429,-5.314,-5.3198,-5.2854,-5.2137,-5.0952,-4.9373,-4.7737,-4.6616,-4.5429,-4.4401,-4.4098,-4.4082,-4.445,-4.5813,-4.7694,-4.9426,-5.0208,-5.1619,-5.2836,-5.3213,-5.3713,-5.4454,-5.5588,-5.5179,-5.4878,-5.5702,-5.5754,-5.6,-5.6795,-5.7774,-5.92,-6.1135,-6.1328,-6.1661,-6.2475,-6.2549,-6.263,-6.2768,-6.2376,-6.2583,-6.3474,-6.3456,-6.4003,-6.5296,-6.6211,-6.7095,-6.7915,-6.8462,-6.8645,-6.8511,-6.8511,-6.821,-3.341,-3.3943,-3.4569,-3.4375,-3.4871,-3.5811,-3.7316,-3.7758,-3.8219,-3.9456,-3.984,-3.9962,-3.984,-3.9754,-3.9762,-3.992,-4.0146,-4.0231,-4.0084,-4.0463,-4.0673,-4.0566,-4.0822,-4.1418,-4.2327,-4.3272,-4.415,-4.4913,-4.5531,-4.5893,-4.5851,-4.568,-4.5586,-4.5624,-4.5757,-4.5803,-4.5814,-4.5811,-4.564,-4.5298,-4.548,-4.5632,-4.5819,-4.621,-4.702,-4.8115,-4.8352,-4.9294,-5.0597,-5.0877,-5.185,-5.3208,-5.3225,-5.3644,-5.4176,-5.3349,-5.3047,-5.2964,-5.2625,-5.24,-5.2101,-5.0815,-5.0307,-4.9955,-4.8884,-4.7174,-4.5453,-4.4675,-4.3927,-4.3329,-4.3566,-4.4327,-4.5591,-4.7558,-5.0218,-5.2367,-5.2536,-5.3177,-5.3881,-5.4482,-5.4695,-5.5297,-5.6668,-5.6259,-5.5948,-5.6773,-5.6367,-5.6223,-5.6942,-5.7517,-5.8591,-6.0671,-6.0967,-6.1293,-6.1986,-6.2209,-6.2353,-6.2561,-6.2291,-6.2784,-6.431,-6.3857,-6.464,-6.6868,-6.7486,-6.8115,-6.8847,-6.9272,-6.919,-6.866,-6.866,-6.8368,-3.4768,-3.4889,-3.504,-3.51,-3.5097,-3.5544,-3.7136,-3.7537,-3.8022,-3.9699,-3.9819,-3.9781,-4.03,-4.0212,-4.0158,-4.0411,-4.119,-4.1514,-4.0729,-4.1318,-4.1641,-4.1031,-4.1487,-4.2307,-4.3347,-4.4142,-4.4929,-4.5718,-4.5802,-4.5753,-4.5642,-4.5586,-4.5663,-4.5796,-4.5796,-4.5828,-4.5891,-4.5898,-4.5702,-4.5311,-4.6024,-4.6187,-4.5859,-4.7325,-4.7913,-4.7793,-4.8912,-4.9678,-5.025,-5.1387,-5.2409,-5.3214,-5.3302,-5.3421,-5.3386,-5.2229,-5.1864,-5.1808,-5.1408,-5.084,-5.0124,-4.9112,-4.927,-4.9357,-4.6843,-4.5524,-4.4706,-4.3693,-4.3409,-4.3488,-4.4434,-4.5246,-4.6598,-4.9818,-5.1462,-5.2503,-5.3247,-5.4008,-5.4544,-5.4606,-5.5144,-5.5893,-5.6721,-5.6259,-5.5948,-5.6773,-5.6861,-5.6993,-5.7444,-5.8184,-5.9027,-6.0076,-6.0467,-6.0792,-6.1172,-6.1874,-6.2138,-6.1753,-6.3085,-6.4296,-6.5154,-6.5836,-6.6846,-6.8304,-6.8822,-6.9396,-6.9954,-7.0026,-6.9738,-6.9231,-6.9231,-6.8935,-3.496,-3.501,-3.5124,-3.4982,-3.5044,-3.5576,-3.7422,-3.7837,-3.8268,-3.9994,-4.023,-4.023,-4.0438,-4.0406,-4.0411,-4.0585,-4.0985,-4.1144,-4.0801,-4.1358,-4.1783,-4.1652,-4.2169,-4.2983,-4.4141,-4.4523,-4.5012,-4.5761,-4.5742,-4.568,-4.5719,-4.5719,-4.5757,-4.5796,-4.5841,-4.5884,-4.5898,-4.6154,-4.6071,-4.5649,-4.5828,-4.5931,-4.6066,-4.6691,-4.7168,-4.7602,-4.8974,-4.9675,-4.9898,-5.0927,-5.1511,-5.1838,-5.1981,-5.1669,-5.1057,-5.0187,-4.9841,-4.9764,-4.9222,-4.918,-4.9222,-4.8283,-4.7836,-4.73,-4.5714,-4.4569,-4.3771,-4.3409,-4.3693,-4.4282,-4.4662,-4.6529,-4.8849,-5.1158,-5.2768,-5.3759,-5.4068,-5.4757,-5.5379,-5.5872,-5.6204,-5.6668,-5.7449,-5.6927,-5.6563,-5.6861,-5.6912,-5.7094,-5.7537,-5.8486,-5.9354,-6.0006,-6.022,-6.0425,-6.0755,-6.1092,-6.1591,-6.2267,-6.2952,-6.4127,-6.5962,-6.6666,-6.7492,-6.8474,-6.9353,-6.9883,-7.0095,-7.0394,-7.0298,-6.9775,-6.9775,-6.9511,-3.5374,-3.5235,-3.5134,-3.4956,-3.5032,-3.5576,-3.7343,-3.7696,-3.8084,-3.9777,-4.0162,-4.02,-4.0469,-4.0508,-4.0523,-4.0639,-4.0908,-4.1168,-4.1136,-4.1737,-4.2197,-4.2313,-4.3127,-4.3904,-4.4422,-4.4784,-4.5201,-4.5719,-4.568,-4.5719,-4.5796,-4.5824,-4.5828,-4.5828,-4.5894,-4.5963,-4.6091,-4.6147,-4.6083,-4.5765,-4.5663,-4.5711,-4.5896,-4.6111,-4.6585,-4.7204,-4.8424,-4.9138,-4.9428,-5.0289,-5.0569,-5.0503,-5.04,-4.979,-4.8899,-4.8145,-4.8085,-4.8279,-4.7737,-4.8225,-4.8861,-4.7933,-4.6936,-4.6103,-4.5416,-4.451,-4.3771,-4.3771,-4.4785,-4.6013,-4.6202,-4.8426,-5.0961,-5.2598,-5.3788,-5.4634,-5.4878,-5.5495,-5.6204,-5.6809,-5.7065,-5.7401,-5.7904,-5.7546,-5.7252,-5.7252,-5.7328,-5.7637,-5.8073,-5.9215,-6.0058,-6.0283,-6.054,-6.0569,-6.0292,-6.0448,-6.1122,-6.2341,-6.2915,-6.4265,-6.6639,-6.7343,-6.8062,-6.8978,-6.9738,-7.0162,-7.033,-7.0593,-7.0463,-7.0095,-7.0095,-7.0106,-3.64,-3.5837,-3.5107,-3.5189,-3.5134,-3.5419,-3.6648,-3.6813,-3.7199,-3.8931,-3.9315,-3.9546,-4.0354,-4.0508,-4.0508,-4.0508,-4.1347,-4.2005,-4.199,-4.2698,-4.3092,-4.2913,-4.4497,-4.5151,-4.4106,-4.4958,-4.5586,-4.5586,-4.5719,-4.5796,-4.5796,-4.5839,-4.5898,-4.5898,-4.5898,-4.6076,-4.6478,-4.5829,-4.5514,-4.5517,-4.5707,-4.5595,-4.5234,-4.6059,-4.6413,-4.6484,-4.7298,-4.8077,-4.887,-4.9634,-4.982,-4.9595,-4.8941,-4.8048,-4.7177,-4.6496,-4.6799,-4.7572,-4.7572,-4.8225,-4.8861,-4.7933,-4.6936,-4.6173,-4.6173,-4.5561,-4.4812,-4.4812,-4.6646,-4.8824,-4.9549,-5.0994,-5.2632,-5.4212,-5.4572,-5.4818,-5.5552,-5.6313,-5.6912,-5.6912,-5.7498,-5.7997,-5.7997,-5.7997,-5.7997,-5.7997,-5.8375,-5.8874,-5.9319,-6.0545,-6.1201,-6.0834,-6.155,-6.1349,-5.9534,-6.0146,-6.086,-6.1581,-6.3172,-6.5053,-6.7198,-6.8064,-6.9021,-7.0061,-7.0095,-7.0362,-7.0898,-7.0362,-7.0095,-7.0095,-7.0095,-7.0821,-3.5854,-3.5867,-3.5931,-3.5381,-3.521,-3.5586,-3.714,-3.696,-3.7024,-3.9087,-3.9067,-3.8915,-3.9751,-3.9865,-4.0345,-4.1724,-4.2291,-4.2833,-4.3602,-4.4188,-4.433,-4.3731,-4.46,-4.5207,-4.5112,-4.5417,-4.5624,-4.5719,-4.5796,-4.58,-4.5858,-4.6195,-4.6371,-4.6371,-4.5896,-4.5848,-4.6294,-4.5883,-4.5724,-4.5703,-4.6141,-4.6265,-4.6184,-4.6428,-4.6846,-4.7335,-4.8091,-4.8166,-4.7857,-4.8643,-4.8277,-4.7154,-4.7046,-4.6357,-4.5539,-4.5342,-4.585,-4.6662,-4.6662,-4.7671,-4.8861,-4.7933,-4.6936,-4.6173,-4.6173,-4.5561,-4.5204,-4.6924,-4.8413,-4.9788,-5.1162,-5.2323,-5.3363,-5.4337,-5.5414,-5.6204,-5.651,-5.7116,-5.7679,-5.7679,-5.7821,-5.7997,-5.7997,-5.7997,-5.8097,-5.8418,-5.9115,-5.9889,-6.079,-6.169,-6.2347,-6.2656,-6.2858,-6.1962,-5.9571,-6.0636,-6.1721,-6.2341,-6.4314,-6.6239,-6.8064,-6.908,-6.9775,-7.0095,-7.0463,-7.0748,-7.0898,-7.0748,-7.0959,-7.1535,-7.1535,-7.2092,-3.6293,-3.609,-3.6173,-3.5984,-3.5896,-3.6163,-3.7486,-3.7261,-3.7186,-3.8795,-3.8712,-3.8599,-3.9429,-3.958,-3.9989,-4.125,-4.1648,-4.2148,-4.3216,-4.3983,-4.4588,-4.5035,-4.512,-4.5375,-4.6068,-4.6142,-4.6219,-4.6313,-4.6642,-4.6787,-4.6655,-4.6655,-4.6704,-4.671,-4.6098,-4.5877,-4.6054,-4.5917,-4.5954,-4.6081,-4.6113,-4.634,-4.6653,-4.634,-4.6374,-4.685,-4.7601,-4.741,0.0,-4.7395,-4.6848,-4.5544,-4.5627,-4.53,-4.4812,-4.4812,-4.5634,-4.673,-4.673,-4.7737,-4.8923,-4.8289,-4.7902,-4.7664,-4.7582,-4.6956,-4.6749,-4.9026,-5.0192,-5.1028,-5.2391,-5.3335,-5.42,-5.525,-5.6204,-5.6964,-5.7216,-5.7679,-5.7997,-5.7997,-5.7997,-5.7997,-5.7997,-5.8142,-5.8486,-5.9082,-6.0002,-6.0974,-6.1939,-6.2842,-6.3488,-6.3565,-6.4012,-6.3422,-6.1278,-6.2046,-6.2974,-6.3944,-6.5538,-6.7208,-6.9031,-6.9738,-7.0195,-7.0394,-7.0748,-7.0898,-7.0898,-7.1245,-7.1668,-7.2206,-7.2552,-7.2976,0.0,-3.6587,-3.6145,-3.6829,-3.6988,-3.7118,-3.7618,-3.7623,0.0,-3.8237,-3.8282,-3.8507,-3.9458,-3.9609,-3.9609,-3.9844,-4.0106,-4.0631,-4.1563,-4.2552,-4.4103,-4.6673,-4.5857,-4.5642,-4.7068,-4.7122,-4.7174,-4.7279,-4.8025,-4.8274,-4.7827,-4.7112,-4.6727,-4.674,-4.6282,-4.5965,-4.5875,-4.58,-4.6025,-4.6443,-4.5778,-4.5906,-4.6667,-4.5748,-4.5403,-4.5565,-4.6126,-4.5893,-4.5138,-4.5917,-4.5634,-4.4737,-4.4887,-4.4887,-4.4812,-4.4887,-4.5992,-4.7506,-4.7572,-4.8161,-4.8798,-4.8866,-4.9434,-5.0015,-4.9889,-4.942,-4.926,-5.0823,-5.1891,-5.2629,-5.3383,-5.4174,-5.5119,-5.6563,-5.6964,-5.7202,-5.7821,-5.8033,-5.8107,-5.8107,-5.8143,-5.818,-5.8189,-5.8603,-5.9163,-6.0068,-6.1117,-6.2071,-6.2963,-6.4122,-6.4617,-6.3869,-6.5089,-6.5498,-6.4283,-6.4176,-6.4731,-6.6082,-6.6773,-6.7996,-7.0019,-7.0129,-7.0362,-7.0898,-7.0898,-7.0937,-7.0975,-7.1822,-7.2245,-7.2322,-7.3129,-7.3553,-3.7215,0.0,-3.8479,-3.7296,-3.7501,-3.8036,0.0,-3.774,-3.7461,-3.8405,-3.8108,-3.822,-3.9896,-3.9519,-3.9705,-4.2121,-4.2347,-4.2508,-4.331,-4.3631,-4.4793,-4.7507,-4.6202,-4.6122,-4.874,-4.7853,-4.7403,-4.8127,-4.8092,-4.7766,-4.7074,-4.6318,-4.5611,-4.5092,-4.4653,-4.5049,-4.639,-4.5307,-4.48,-4.495,-4.5851,-4.6118,-4.5777,-4.5341,-4.5893,-4.698,-4.5923,-4.519,-4.4934,-4.5826,-4.5196,-4.3771,-4.5269,-4.5416,-4.4887,-4.5634,-4.6173,-4.6592,-4.7373,-4.7306,-4.6965,-4.7517,-4.8685,-4.999,-5.0479,-5.1025,-5.1529,-5.193,-5.3058,-5.408,-5.4267,-5.5331,-5.6456,-5.6809,-5.7351,-5.7774,-5.795,-5.8474,-5.8914,-5.8914,-5.9428,-5.9936,-6.0358,-6.0529,-6.0937,-6.1818,-6.2889,-6.3791,-6.4286,-6.5178,-6.5722,-6.5524,-6.6282,-6.6803,-6.6733,-6.6739,-6.6733,-6.6744,-6.8374,-6.9573,-7.0057,-7.0494,-7.0777,-7.0898,-7.0898,-7.1245,-7.1898,-7.2091,-7.2591,-7.336,-7.3476,-7.3937,-3.719,-3.8344,-3.9529,-3.8871,-3.8955,-3.9242,-3.9548,-3.8788,-3.8165,-3.8626,-3.8358,-3.8435,-3.9584,-3.918,-3.9416,-4.16,-4.1547,-4.1957,-4.4283,-4.5742,-4.6989,-4.806,-4.7952,-4.7951,-4.8451,-4.8224,-4.817,-4.8427,-4.8376,-4.7758,-4.6452,-4.5623,-4.4888,-4.4271,-4.3353,-4.3685,-4.5377,-4.4913,-4.495,-4.5365,-4.5594,-4.6188,-4.7058,-4.6053,-4.6099,-4.6936,-4.5998,-4.5286,-4.4812,-4.5374,-4.5196,-4.475,-4.5818,-4.6103,-4.6064,-4.6173,-4.6454,-4.6867,-4.744,-4.7803,-4.8164,-4.9217,-5.022,-5.1162,-5.2236,-5.2935,-5.3327,-5.3327,-5.3983,-5.4757,-5.5472,-5.6259,-5.7029,-5.758,-5.7877,-5.8162,-5.8762,-5.9025,-5.9318,-5.9685,-6.0126,-6.0572,-6.1087,-6.1382,-6.192,-6.3054,-6.3953,-6.4706,-6.533,-6.5799,-6.6119,-6.6076,-6.7051,-6.7779,-6.7936,-6.8663,-6.8929,-6.841,-6.9666,-7.0463,-7.0463,-7.0748,-7.0898,-7.0898,-7.1283,-7.1745,-7.2206,-7.2591,-7.3129,-7.3716,-7.3937,-7.4207,-3.785,-3.8838,-4.0039,-4.0339,-4.0425,-4.0463,-4.0599,-3.9839,-3.9008,-3.878,-3.8689,-3.884,-3.9293,-3.9155,-3.9342,-4.057,-4.0093,-4.0851,-4.4583,-4.7146,-4.8591,-4.8519,-4.9581,-4.9682,-4.8023,-4.8591,-4.8808,-4.8312,-4.8325,-4.7501,-4.5665,-4.4776,-4.4103,-4.3744,-4.2532,-4.2591,-4.414,-4.4756,-4.5491,-4.6258,-4.5603,-4.6421,-4.8568,-4.6971,-4.6244,-4.6384,-4.6244,-4.5778,-4.5005,-4.5153,-4.5634,-4.6244,-4.6523,-4.7036,-4.7506,-4.69,-4.7036,-4.7605,-4.7571,-4.8795,-5.0642,-5.1729,-5.2334,-5.2864,-5.4212,-5.4695,-5.4818,-5.4939,-5.4939,-5.5238,-5.6563,-5.6964,-5.7364,-5.8381,-5.8356,-5.8465,-5.9579,-5.9641,-5.9758,-6.0562,-6.0783,-6.1089,-6.1674,-6.2146,-6.2804,-6.4016,-6.4665,-6.5273,-6.5973,-6.6097,-6.609,-6.6051,-6.7475,-6.8398,-6.8398,-6.9937,-7.0719,-7.0266,-7.0652,-7.0898,-7.0898,-7.0898,-7.0975,-7.1091,-7.1822,-7.2283,-7.2399,-7.3168,-7.363,-7.3783,-7.4318,-7.4368,-4.0631,-4.1167,-4.0878,-3.9526,-4.0266,-4.0972,-3.9664,-3.9245,-3.9008,-3.878,-3.8689,-3.9076,-4.0378,-4.0349,-4.0737,-4.2558,-4.2121,-4.2183,-4.3955,-4.4208,-4.5528,-4.9142,-4.8412,-4.8517,-5.0793,-4.9343,-4.8094,-4.7695,-4.6821,-4.5627,-4.3931,-4.273,-4.2334,-4.2841,-4.2723,-4.3273,-4.4693,-4.5056,-4.5287,-4.5423,-4.661,-4.7144,-4.6974,-4.6471,-4.6592,-4.7306,-4.6523,-4.6103,-4.6032,-4.6831,-4.6831,-4.6384,-4.7933,-4.8161,-4.7671,-4.8289,-4.8161,-4.7605,-4.7443,-4.9384,-5.1864,-5.1325,-5.2504,-5.4247,-5.4572,-5.5059,-5.5667,-5.6367,-5.6563,-5.6616,-5.6861,-5.7351,-5.7867,-5.8051,-5.8557,-5.9061,-5.9265,-6.032,-6.1371,-6.196,-6.2643,-6.3435,-6.4351,-6.4552,-6.4856,-6.5498,-6.5756,-6.5884,-6.5919,-6.6024,-6.6051,-6.5936,-6.7398,-6.8398,-6.8398,-6.9937,-7.0871,-7.0777,-7.0871,-7.0898,-7.0898,-7.0898,-7.1245,-7.1975,-7.2129,-7.2552,-7.3322,-7.3553,-7.3783,-7.3966,-7.4051,-7.4534,-3.9155,-4.012,-4.0414,-3.8977,-3.956,-4.0371,-3.9917,-3.9106,-3.8621,-3.9239,-3.9128,-3.9277,-4.0349,-4.0109,-3.9981,-4.0862,-4.251,-4.3928,-4.4624,-4.6191,-4.7776,-4.9211,-4.9138,-4.9055,-4.9406,-4.7899,-4.6731,-4.6152,-4.5004,-4.3588,-4.2067,-4.1853,-4.2066,-4.2705,-4.3231,-4.4141,-4.5561,-4.6201,-4.6548,-4.648,-4.6738,-4.7209,-4.7885,-4.7242,-4.7172,-4.7572,-4.7172,-4.6968,-4.7036,-4.744,-4.7671,-4.7803,-4.8639,-4.8736,-4.842,-4.8757,-4.853,-4.8263,-4.9001,-5.062,-5.2334,-5.277,-5.3695,-5.4757,-5.5588,-5.6095,-5.6474,-5.7266,-5.7202,-5.6964,-5.7401,-5.7726,-5.8252,-5.9231,-5.9557,-5.9993,-6.1391,-6.2058,-6.2608,-6.3341,-6.3794,-6.4255,-6.5003,-6.5099,-6.5291,-6.5808,-6.5936,-6.5974,-6.5897,-6.5936,-6.5974,-6.5897,-6.7398,-6.8398,-6.8398,-6.9937,-7.0898,-7.0898,-7.0898,-7.0898,-7.0898,-7.136,-7.1783,-7.2168,-7.2668,-7.3129,-7.363,-7.3707,-7.3899,-7.4168,-7.4538,-7.5001,-3.8382,-3.9337,-3.9791,-3.9135,-3.9301,-3.959,-3.9637,-3.8725,-3.821,-3.9292,-3.9312,-3.9368,-4.0242,-4.0151,-4.0029,-4.0176,-4.2721,-4.4767,-4.509,-4.7434,-4.8968,-4.8564,-4.897,-4.8736,-4.7294,-4.6239,-4.5365,-4.4589,-4.3581,-4.2388,-4.1064,-4.1658,-4.223,-4.281,-4.3862,-4.504,-4.6265,-4.7374,-4.7803,-4.7572,-4.7104,-4.7605,-4.9018,-4.8225,-4.7933,-4.7933,-4.7933,-4.7933,-4.7933,-4.7933,-4.8353,-4.9018,-4.9018,-4.912,-4.926,-4.9125,-4.926,-4.9691,-5.1026,-5.2101,-5.3062,-5.4399,-5.4999,-5.5355,-5.6563,-5.7015,-5.7266,-5.7969,-5.7747,-5.7473,-5.8015,-5.8386,-5.899,-6.0377,-6.068,-6.128,-6.3209,-6.3489,-6.3651,-6.4404,-6.4554,-6.4696,-6.523,-6.5291,-6.5417,-6.5833,-6.5897,-6.5897,-6.5897,-6.5897,-6.5897,-6.5897,-6.7205,-6.8282,-6.8667,-7.0052,-7.0975,-7.1206,-7.1206,-7.1206,-7.1206,-7.186,-7.2322,-7.2552,-7.3014,-7.3437,-7.3783,-7.386,-7.413,-7.462,-7.5183,-7.5698,-4.1418,-4.0946,-3.9801,-4.054,-4.0142,-3.9223,-3.7757,-3.7685,-3.8029,-3.8413,-3.883,-3.9447,-4.0553,-4.1707,-4.2745,-4.3339,-4.3436,-4.371,-4.4438,-4.4499,-4.5155,-4.6932,-4.6137,-4.5566,-4.5979,-4.5321,-4.438,-4.3145,-4.3191,-4.2892,-4.1917,-4.2013,-4.2269,-4.2969,-4.4528,-4.573,-4.6454,-4.8115,-4.845,-4.7605,-4.8416,-4.8861,-4.9018,-4.8923,-4.8923,-4.8923,-4.8923,-4.8923,-4.8923,-4.8923,-4.8923,-4.9018,-4.9018,-4.9424,-4.9999,-5.0004,-5.0882,-5.2131,-5.2997,-5.3791,-5.4564,-5.5344,-5.615,-5.6757,-5.6861,-5.7401,-5.8006,-5.8508,-5.8595,-5.8553,-5.8632,-5.9552,-6.0561,-6.067,-6.1804,-6.2936,-6.3122,-6.3765,-6.4442,-6.4932,-6.5067,-6.523,-6.5755,-6.5833,-6.5872,-6.5897,-6.5897,-6.5897,-6.5897,-6.5897,-6.5897,-6.5897,-6.6667,-6.7859,-6.9475,-7.0398,-7.1245,-7.2052,-7.2091,-7.2091,-7.2091,-7.2168,-7.2629,-7.3563,-7.2937,-7.3053,-7.3976,-7.4178,-7.4697,-7.5528,-7.5737,-7.6593,-3.9561,-3.9724,-3.9476,-3.9329,-3.9409,-3.9193,-3.7936,-3.7683,-3.8383,-4.0725,-4.0643,-4.039,-4.1172,-4.1707,-4.2118,-4.2382,-4.29,-4.3428,-4.3726,-4.3781,-4.4192,-4.5256,-4.4199,-4.3825,-4.4889,-4.3799,-4.3112,-4.3158,-4.2737,-4.2332,-4.2013,-4.252,-4.3095,-4.3875,-4.5474,-4.6669,-4.7345,-4.8428,-4.8798,-4.8513,-4.8861,-4.9018,-4.9018,-4.9018,-4.9018,-4.9018,-4.9018,-4.9018,-4.9018,-4.9018,-4.9018,-4.9052,-4.9492,-4.983,-5.0202,-5.1116,-5.2115,-5.3135,-5.3894,-5.4695,-5.5437,-5.6204,-5.6668,-5.6964,-5.7449,-5.7774,-5.8042,-5.8194,-5.8831,-5.9539,-5.9853,-6.0301,-6.1042,-6.2368,-6.3155,-6.3829,-6.4649,-6.51,-6.5388,-6.5569,-6.5597,-6.5663,-6.5872,-6.5897,-6.5897,-6.5897,-6.5897,-6.5897,-6.5897,-6.5897,-6.5897,-6.5897,-6.6628,-6.759,-6.8783,-6.9667,-7.0283,-7.0629,-7.1091,-7.1629,-7.2168,-7.2206,-7.2437,-7.2937,-7.3168,-7.3591,-7.4178,-7.4812,-7.5343,-7.5824,-7.6816,-7.7558,-3.9034,-3.9387,-3.9527,-3.8866,-3.8748,-3.8717,-3.815,-3.7936,-3.8612,-4.1311,-4.1493,-4.126,-4.1623,-4.1619,-4.1662,-4.2045,-4.2688,-4.3208,-4.3396,-4.3498,-4.3594,-4.3746,-4.2847,-4.2603,-4.3545,-4.2894,-4.2645,-4.3229,-4.3015,-4.2831,-4.2831,-4.3555,-4.4255,-4.4725,-4.6283,-4.7295,-4.7851,-4.8601,-4.8957,-4.9018,-4.9018,-4.9018,-4.9018,-4.9018,-4.9018,-4.9018,-4.9018,-4.9018,-4.9018,-4.9018,-4.9018,-4.9086,-4.9796,-5.0236,-5.0608,-5.1826,-5.2985,-5.3975,-5.4704,-5.5437,-5.6204,-5.7015,-5.7252,-5.7351,-5.7821,-5.7997,-5.8079,-5.8481,-5.9367,-6.0377,-6.1417,-6.1671,-6.2108,-6.3732,-6.4317,-6.4785,-6.5692,-6.5897,-6.5897,-6.5897,-6.5897,-6.5897,-6.5897,-6.5897,-6.5897,-6.5897,-6.5897,-6.5897,-6.5897,-6.5897,-6.5897,-6.5897,-6.6859,-6.7744,-6.8359,-6.9436,-7.0206,-7.0475,-7.1052,-7.1668,-7.2283,-7.2552,-7.2822,-7.3063,-7.3658,-7.4218,-7.479,-7.5663,-7.6265,-7.6614,-7.7896,-7.8577,-4.0738,-4.0465,-4.0015,-3.958,-3.8502,-3.7686,-3.8219,-3.8337,-3.861,-3.9451,-4.0859,-4.1925,-4.1891,-4.1615,-4.1796,-4.2988,-4.2939,-4.2992,-4.3595,-4.3398,-4.2989,-4.2458,-4.2074,-4.1932,-4.2012,-4.2769,-4.329,-4.329,-4.4121,-4.4643,-4.4587,-4.5196,-4.5494,-4.5494,-4.6835,-4.7608,-4.7692,-4.8453,-4.885,-4.9018,-4.9018,-4.9018,-4.9018,-4.9018,-4.9018,-4.9018,-4.9018,-4.9018,-4.9018,-4.9018,-4.9018,-4.9086,-4.983,-5.0574,-5.1319,-5.2029,-5.3293,-5.4695,-5.5437,-5.6259,-5.7015,-5.7774,-5.7997,-5.7997,-5.7997,-5.7997,-5.8281,-5.9552,-6.0303,-6.119,-6.3289,-6.3802,-6.3932,-6.4475,-6.5282,-6.5897,-6.5897,-6.5897,-6.5897,-6.5897,-6.5897,-6.5897,-6.5897,-6.5897,-6.5897,-6.5897,-6.5897,-6.5897,-6.5897,-6.5897,-6.5897,-6.5897,-6.7398,-6.8398,-6.8398,-6.9937,-7.1283,-7.2129,-7.2388,-7.2503,-7.2514,-7.335,-7.3966,-7.4264,-7.434,-7.4847,-7.5898,-7.6797,-7.7529,-7.8115,-7.8992,-7.9677,-4.0163,-4.054,-4.0822,-3.9481,-4.0155,-4.0864,-3.9871,-4.0446,-4.1537,-4.2664,-4.3314,-4.3286,-4.2067,-4.1752,-4.1782,-4.2159,-4.2139,-4.2183,-4.2364,-4.2418,-4.2342,-4.2202,-4.2112,-4.2351,-4.2965,-4.3171,-4.3562,-4.4179,-4.4872,-4.5035,-4.4643,-4.5597,-4.5915,-4.5494,-4.643,-4.7143,-4.7692,-4.8014,-4.8421,-4.9018,-4.9018,-4.9018,-4.9018,-4.9018,-4.9018,-4.9018,-4.9018,-4.9018,-4.9052,-4.956,-4.9763,-4.9898,-5.115,-5.2145,-5.2888,-5.3645,-5.4909,-5.6259,-5.651,-5.7065,-5.7726,-5.795,-5.7997,-5.8107,-5.8694,-5.8841,-5.9127,-6.0407,-6.1334,-6.2219,-6.353,-6.426,-6.4848,-6.5397,-6.5705,-6.5897,-6.5897,-6.5897,-6.5897,-6.5897,-6.5897,-6.5897,-6.5897,-6.5897,-6.5781,-6.5417,-6.5321,-6.523,-6.4871,-6.5369,-6.5813,-6.6208,-6.7194,-6.7974,-6.8371,-6.9937,-7.1052,-7.1491,-7.2696,-7.3388,-7.3427,-7.3756,-7.4069,-7.4302,-7.5474,-7.6379,-7.6836,-7.81,-7.8838,-7.9031,-7.9638,-7.9984,-4.0806,-4.0959,-4.1077,-4.0201,-4.0703,-4.1483,-4.1733,-4.1926,-4.2228,-4.2996,-4.3063,-4.2705,-4.163,-4.1429,-4.1429,-4.1429,-4.1603,-4.1725,-4.1508,-4.1847,-4.1995,-4.1682,-4.2265,-4.2856,-4.3304,-4.3623,-4.4145,-4.4906,-4.5267,-4.5477,-4.532,-4.6014,-4.6222,-4.5865,-4.6584,-4.7248,-4.7726,-4.8072,-4.8626,-4.9402,-4.9107,-4.9168,-4.9376,-4.9107,-4.9018,-4.9018,-4.9323,-4.9593,-4.9932,-5.0676,-5.098,-5.1146,-5.2622,-5.3307,-5.3628,-5.466,-5.5872,-5.6948,-5.7273,-5.7873,-5.8547,-5.8841,-5.8951,-5.9061,-5.9538,-5.9685,-5.9973,-6.1305,-6.216,-6.2973,-6.4063,-6.4879,-6.5513,-6.5808,-6.5897,-6.5897,-6.5897,-6.5897,-6.5897,-6.5897,-6.5897,-6.5897,-6.5897,-6.5717,-6.5446,-6.513,-6.5204,-6.5303,-6.5351,-6.5955,-6.6549,-6.6859,-6.7782,-6.8684,-6.9333,-7.0706,-7.1734,-7.2223,-7.3647,-7.4676,-7.5022,-7.4779,-7.4885,-7.5439,-7.6712,-7.762,-7.8078,-7.9231,-7.9775,-7.9715,-8.0331,-8.0561,-4.1954,-4.1372,-4.0859,-4.118,-4.048,-4.0441,-4.335,-4.2614,-4.1423,-4.1566,-4.1223,-4.092,-4.0827,-4.0827,-4.0827,-4.0827,-4.1286,-4.1464,-4.1024,-4.1622,-4.1886,-4.1253,-4.2557,-4.3496,-4.3436,-4.4121,-4.4852,-4.5442,-4.5545,-4.5765,-4.627,-4.6413,-4.6448,-4.6424,-4.7214,-4.7694,-4.7904,-4.8598,-4.9326,-5.009,-4.9402,-4.9402,-4.9976,-4.9316,-4.9018,-4.9052,-4.983,-5.0574,-5.1285,-5.2196,-5.2567,-5.2632,-5.4212,-5.4409,-5.3938,-5.5305,-5.6349,-5.7232,-5.8021,-5.875,-5.9522,-6.0267,-6.0572,-6.0572,-6.0646,-6.0682,-6.0932,-6.2252,-6.2934,-6.3568,-6.4839,-6.5542,-6.5897,-6.5897,-6.5897,-6.5897,-6.5897,-6.5897,-6.5897,-6.5897,-6.5897,-6.5897,-6.5923,-6.5532,-6.5182,-6.5194,-6.5388,-6.5833,-6.6548,-6.7202,-6.7597,-6.7631,-6.8961,-7.0179,-7.0937,-7.208,-7.3097,-7.3882,-7.5154,-7.6195,-7.6993,-7.6289,-7.6358,-7.7371,-7.8004,-7.8723,-7.9492,-8.0179,-8.039,-8.0254,-8.1016,-8.1246,-4.0321,-4.0151,-4.012,-4.0174,-4.06,-4.1235,-4.2115,-4.1622,-4.1401,-4.2706,-4.1882,-4.078,-4.0319,-4.0303,-4.0303,-4.0303,-4.0368,-4.0622,-4.1086,-4.1784,-4.2426,-4.2846,-4.3732,-4.4328,-4.4293,-4.4497,-4.4852,-4.5442,-4.5915,-4.6063,-4.5699,-4.6635,-4.7013,-4.6586,-4.7301,-4.824,-4.9414,-4.9677,-5.0136,-5.0876,-5.0146,-4.9861,-4.9976,-4.9316,-4.9018,-4.9086,-5.0405,-5.1082,-5.1417,-5.3965,-5.4667,-5.4247,-5.5799,-5.6319,-5.6206,-5.6491,-5.7514,-5.8773,-5.9398,-6.0098,-6.0864,-6.1389,-6.1581,-6.1693,-6.2332,-6.2519,-6.2786,-6.413,-6.46,-6.4839,-6.5531,-6.5808,-6.5897,-6.5897,-6.5897,-6.5897,-6.5897,-6.5897,-6.5897,-6.5897,-6.5897,-6.5974,-6.617,-6.6122,-6.5977,-6.582,-6.558,-6.5411,-6.5595,-6.6648,-6.7556,-6.7959,-6.9839,-7.1267,-7.1871,-7.3504,-7.459,-7.4977,-7.6659,-7.7785,-7.8139,-7.8001,-7.8219,-7.8912,-7.9741,-8.0138,-8.0177,-8.0858,-8.1157,-8.1131,-8.1131,-8.1131,-4.0358,-4.0374,-4.0561,-4.0965,-4.154,-4.1962,-4.1831,-4.134,-4.1116,-4.1705,-4.116,-4.0466,-4.0154,-4.0087,-4.0087,-4.0087,-4.0392,-4.0764,-4.117,-4.2151,-4.2963,-4.3369,-4.4113,-4.4587,-4.4587,-4.4852,-4.5267,-4.5865,-4.6542,-4.6864,-4.6864,-4.7212,-4.7483,-4.7581,-4.797,-4.8799,-4.9953,-5.0307,-5.0901,-5.1544,-5.0876,-5.0764,-5.106,-5.0009,-4.9526,-4.9627,-5.193,-5.3049,-5.3592,-5.6342,-5.6965,-5.6395,-5.7569,-5.7568,-5.7,-5.7738,-5.8673,-5.9708,-6.0795,-6.1566,-6.2257,-6.2899,-6.3124,-6.3199,-6.3614,-6.3728,-6.3914,-6.4851,-6.5099,-6.523,-6.5781,-6.5897,-6.5897,-6.5897,-6.5897,-6.5897,-6.5897,-6.5897,-6.6013,-6.6397,-6.6266,-6.6268,-6.6815,-6.648,-6.6203,-6.6245,-6.6022,-6.6103,-6.6753,-6.8045,-6.9068,-6.9626,-7.1307,-7.2732,-7.3476,-7.4889,-7.6044,-7.6626,-7.8104,-7.9105,-7.9558,-7.9543,-7.9698,-8.0023,-8.0292,-8.0561,-8.09,-8.1131,-8.1246,-8.1246,-8.1131,-8.1093,-4.073,-4.1033,-4.142,-4.2062,-4.2486,-4.2619,-4.1853,-4.1251,-4.0733,-4.0204,-4.0087,-4.0087,-4.0087,-4.0087,-4.0121,-4.0257,-4.0798,-4.1305,-4.1542,-4.2658,-4.347,-4.3606,-4.4181,-4.4587,-4.4587,-4.5035,-4.5648,-4.6318,-4.6819,-4.7414,-4.8138,-4.7729,-4.7823,-4.8621,-4.8984,-4.955,-5.0332,-5.1073,-5.1777,-5.2289,-5.1593,-5.1667,-5.229,-5.1336,-5.0905,-5.1008,-5.3844,-5.5506,-5.6404,-5.8602,-5.9041,-5.8388,-5.897,-5.8507,-5.7569,-5.8867,-5.9869,-6.0743,-6.217,-6.3012,-6.3572,-6.4398,-6.4664,-6.4664,-6.4664,-6.4664,-6.4769,-6.513,-6.5261,-6.5321,-6.5781,-6.5897,-6.5936,-6.6051,-6.609,-6.609,-6.609,-6.6154,-6.637,-6.7088,-6.6796,-6.6698,-6.742,-6.6838,-6.6308,-6.6507,-6.6801,-6.7442,-6.8389,-6.9928,-7.1104,-7.1547,-7.274,-7.3899,-7.4928,-7.5837,-7.6905,-7.8113,-7.9105,-7.9961,-8.0669,-8.0785,-8.0823,-8.0823,-8.0484,-8.0669,-8.1323,-8.117,-8.1093,-8.1093,-8.1093,-8.1093,-4.0213,-4.1079,-4.1975,-4.2041,-4.2582,-4.2777,-4.1349,-4.0932,-4.0733,-4.0204,-4.0087,-4.0087,-4.0087,-4.0087,-4.029,-4.0933,-4.1136,-4.1644,-4.2929,-4.3301,-4.3673,-4.435,-4.4519,-4.4587,-4.4587,-4.4665,-4.5196,-4.6353,-4.6014,-4.633,-4.7631,-4.7666,-4.8049,-4.8835,-5.0053,-5.1045,-5.179,-5.2563,-5.2937,-5.306,-5.2335,-5.2072,-5.2378,-5.347,-5.4014,-5.4176,-5.5857,-5.7117,-5.8025,-5.9609,-5.978,-5.9042,-5.9187,-5.9366,-5.9589,-5.9822,-6.1085,-6.2785,-6.347,-6.4203,-6.4946,-6.5503,-6.569,-6.569,-6.569,-6.569,-6.569,-6.5781,-6.5808,-6.5808,-6.5897,-6.5897,-6.609,-6.6782,-6.6936,-6.6936,-6.6936,-6.719,-6.7414,-6.7528,-6.7276,-6.7128,-6.724,-6.7383,-6.7242,-6.6586,-6.8148,-6.9134,-6.8595,-7.0756,-7.2386,-7.2421,-7.3085,-7.3899,-7.4928,-7.527,-7.6245,-7.8094,-7.8977,-7.9831,-8.0669,-8.1093,-8.1285,-8.1285,-8.1246,-8.1208,-8.1131,-8.1093,-8.1093,-8.1093,-8.1093,-8.1093,-4.0702,-4.1393,-4.2006,-4.2885,-4.3483,-4.3652,-4.2792,-4.2679,-4.259,-4.1995,-4.1881,-4.1644,-4.0866,-4.1035,-4.1441,-4.1745,-4.2185,-4.2658,-4.3335,-4.3809,-4.4181,-4.4553,-4.4587,-4.4587,-4.4587,-4.4906,-4.532,-4.5865,-4.6385,-4.692,-4.7568,-4.8378,-4.9174,-4.9983,-5.1049,-5.193,-5.2725,-5.306,-5.3225,-5.3225,-5.3332,-5.3644,-5.417,-5.5328,-5.5646,-5.5411,-5.783,-5.8856,-5.8912,-6.0445,-6.0468,-5.9595,-5.9575,-5.9942,-6.0417,-6.0905,-6.2142,-6.3655,-6.4343,-6.4985,-6.5569,-6.5808,-6.5897,-6.5897,-6.5897,-6.5897,-6.5897,-6.5897,-6.5897,-6.5897,-6.5897,-6.6244,-6.6667,-6.7013,-6.7859,-6.846,-6.8118,-6.7821,-6.7563,-6.7386,-6.7673,-6.7699,-6.6951,-6.731,-6.7553,-6.7025,-6.8182,-6.9312,-7.0032,-7.1559,-7.2868,-7.3705,-7.4542,-7.5313,-7.5841,-7.6533,-7.7485,-7.8815,-7.9638,-8.0407,-8.1054,-8.1285,-8.1323,-8.1208,-8.1208,-8.117,-8.1093,-8.1093,-8.1093,-8.1093,-8.1554,-8.1785,-4.1128,-4.1769,-4.2284,-4.3642,-4.4339,-4.4626,-4.4123,-4.4263,-4.4245,-4.364,-4.3672,-4.3492,-4.2446,-4.2433,-4.2688,-4.3014,-4.3494,-4.3886,-4.3912,-4.4456,-4.4776,-4.4643,-4.4756,-4.4857,-4.4857,-4.546,-4.5906,-4.603,-4.6864,-4.7643,-4.8169,-4.9222,-5.0232,-5.1164,-5.1937,-5.2601,-5.3188,-5.3225,-5.3225,-5.3225,-5.4032,-5.4803,-5.5611,-5.6638,-5.6928,-5.6815,-5.9184,-5.9973,-5.9662,-6.075,-6.0663,-5.9905,-5.9804,-6.0342,-6.1258,-6.183,-6.3079,-6.4479,-6.51,-6.5569,-6.5936,-6.6128,-6.6051,-6.5936,-6.6128,-6.6051,-6.5897,-6.5897,-6.6051,-6.6205,-6.6205,-6.6821,-6.7475,-6.7705,-6.8744,-6.9568,-6.9036,-6.837,-6.7731,-6.7374,-6.7863,-6.7975,-6.6985,-6.7405,-6.7788,-6.7384,-6.8414,-6.9758,-7.1207,-7.2635,-7.3948,-7.5216,-7.5861,-7.6409,-7.6842,-7.7241,-7.8014,-7.9235,-7.9952,-8.0631,-8.1362,-8.1323,-8.1246,-8.1093,-8.1285,-8.1285,-8.1093,-8.1323,-8.14,-8.14,-8.2247,-8.2631,-4.1071,-4.2144,-4.3174,-4.3666,-4.4776,-4.549,-4.4589,-4.4742,-4.488,-4.4245,-4.4678,-4.5174,-4.5092,-4.4095,-4.3645,-4.4929,-4.5198,-4.5246,-4.5372,-4.5442,-4.5214,-4.4665,-4.5196,-4.5635,-4.5635,-4.6336,-4.6965,-4.7533,-4.7079,-4.7705,-4.9674,-4.9933,-5.0588,-5.1957,-5.274,-5.3188,-5.3225,-5.3225,-5.3225,-5.3225,-5.4032,-5.4803,-5.5647,-5.7226,-5.8317,-5.904,-5.9187,-5.9711,-6.0309,-6.0092,-5.9976,-5.9872,-5.9552,-6.0719,-6.2506,-6.2552,-6.3925,-6.5795,-6.5833,-6.5897,-6.6013,-6.6782,-6.6513,-6.6051,-6.6821,-6.6513,-6.5897,-6.5897,-6.6436,-6.7051,-6.7051,-6.7667,-6.8552,-6.936,-6.9629,-6.9625,-6.9323,-6.886,-6.8304,-6.7789,-6.7704,-6.7704,-6.7614,-6.8111,-6.8166,-6.7431,-6.9544,-7.1281,-7.1422,-7.3967,-7.6178,-7.7053,-7.6476,-7.6442,-7.7447,-7.6255,-7.649,-7.8948,-7.916,-7.9869,-8.1323,-8.1208,-8.1093,-8.1093,-8.1862,-8.1862,-8.1093,-8.1862,-8.2247,-8.2247,-8.3131,-8.3516,-4.0466,-4.1169,-4.1977,-4.3194,-4.4369,-4.5395,-4.5948,-4.6594,-4.7073,-4.7022,-4.7046,-4.7021,-4.7021,-4.607,-4.547,-4.5906,-4.6023,-4.6,-4.6077,-4.6534,-4.6835,-4.6618,-4.7282,-4.7736,-4.7736,-4.7588,-4.7507,-4.7781,-4.801,-4.8446,-4.9237,-5.0616,-5.1587,-5.2076,-5.2813,-5.3318,-5.3565,-5.387,-5.387,-5.3604,-5.442,-5.5069,-5.5611,-5.6748,-5.7666,-5.8437,-5.8437,-5.9071,-6.0092,-5.9929,-5.9927,-6.0085,-6.0513,-6.1649,-6.3077,-6.3282,-6.4237,-6.5321,-6.5035,-6.5137,-6.5427,-6.5694,-6.5827,-6.5936,-6.6244,-6.6474,-6.6667,-6.6667,-6.7282,-6.7936,-6.7936,-6.859,-6.959,-7.0975,-7.1044,-7.091,-7.1329,-6.9901,-6.8613,-6.8927,-6.8581,-6.8171,-6.7995,-6.8553,-6.9035,-6.9171,-7.0454,-7.2138,-7.4113,-7.5311,-7.6322,-7.7207,-7.7207,-7.7064,-7.6791,-7.6996,-7.764,-7.8799,-7.9442,-8.0177,-8.117,-8.1131,-8.1323,-8.1862,-8.2131,-8.217,-8.1862,-8.2708,-8.3131,-8.317,-8.4016,-8.4439,-3.9658,-4.0491,-4.1503,-4.3398,-4.4463,-4.5483,-4.7188,-4.77,-4.7918,-4.8353,-4.8248,-4.8155,-4.8451,-4.7819,-4.7191,-4.7052,-4.7044,-4.7071,-4.713,-4.7629,-4.8045,-4.8103,-4.8813,-4.9274,-4.9274,-4.9029,-4.8888,-4.8888,-4.9342,-4.973,-4.9996,-5.1307,-5.2299,-5.2667,-5.3289,-5.3758,-5.4013,-5.4618,-5.4668,-5.4243,-5.5323,-5.5903,-5.6014,-5.6859,-5.7483,-5.7997,-5.7997,-5.8534,-5.9533,-5.9657,-6.0068,-6.0628,-6.1343,-6.241,-6.3499,-6.3741,-6.4242,-6.4799,-6.4481,-6.459,-6.4942,-6.541,-6.5779,-6.6162,-6.6602,-6.7128,-6.7552,-6.7552,-6.8167,-6.8859,-6.8859,-6.9667,-7.0898,-7.2283,-7.2051,-7.1823,-7.2805,-7.102,-6.9357,-6.9918,-6.9357,-6.8816,-6.8895,-6.951,-7.0232,-7.0896,-7.1603,-7.3061,-7.5678,-7.6245,-7.6746,-7.7592,-7.79,-7.7669,-7.6707,-7.7447,-7.8146,-7.8669,-7.9869,-8.083,-8.1477,-8.1785,-8.217,-8.2708,-8.3016,-8.317,-8.317,-8.3747,-8.4055,-8.4055,-8.4901,-8.5478,0.0,0.0,0.0,-4.4395,-4.4963,-4.5589,-4.8128,-4.7782,-4.7202,-4.8032,-4.8221,-4.8485,-4.9353,-4.9202,-4.8779,-4.8383,-4.8306,-4.8367,-4.8634,-4.8656,-4.8722,-4.8994,-4.9643,-5.009,-5.009,-5.0712,-5.1138,-5.1138,-5.1138,-5.1393,-5.2065,-5.2159,-5.2667,-5.3758,-5.4255,-5.4554,-5.4554,-5.5346,-5.5529,-5.5099,-5.6739,-5.7274,-5.6859,-5.7629,-5.7997,-5.7997,-5.7997,-5.8282,-5.8753,-5.925,-6.0221,-6.1488,-6.1966,-6.282,-6.3802,-6.3809,-6.401,-6.437,-6.4332,-6.437,-6.4632,-6.5927,-6.6396,-6.6681,-6.7983,-6.8436,-6.8436,-6.8436,-6.909,-6.9783,-6.9821,-7.1014,-7.2437,-7.3293,-7.2688,-7.2233,-7.3609,-7.2205,-7.0674,-7.0637,-6.9957,-6.9655,-7.0526,-7.1104,-7.1731,-7.2532,-7.3162,-7.413,-7.5822,-7.6784,-7.7592,-7.8361,-7.8477,-7.813,-7.7323,-7.7476,-7.79,-7.8477,-8.0369,-8.1676,-8.2285,-8.3131,-8.3593,-8.3593,-8.4478,-8.4901,-8.4939,-8.4939,-8.4939,-8.4939,-8.5747,-8.6555,-3.8867,0.0,0.0,0.0,0.0,0.0,-4.5899,-4.6224,-4.6546,-4.8635,-4.8838,-4.8897,-4.9772,-4.9589,-4.9295,-4.9171,-4.8676,-4.8561,-4.9208,-4.983,-5.0404,-5.1042,-5.1843,-5.2308,-5.2308,-5.2004,-5.179,-5.179,-5.179,-5.1886,-5.2112,-5.2883,-5.3646,-5.4288,-5.4731,-5.5237,-5.5884,-5.6616,-5.7056,-5.7258,-5.7976,-5.8085,-5.7666,-5.7886,-5.7997,-5.7997,-5.7997,-5.857,-5.9611,-6.0115,-6.095,-6.1979,-6.2968,-6.3512,-6.3785,-6.3691,-6.3709,-6.3766,-6.3363,-6.3766,-6.4558,-6.5538,-6.6325,-6.7072,-6.8102,-6.8859,-6.936,-6.936,-7.0398,-7.1629,-7.2283,-7.2783,-7.3236,-7.3686,-7.3565,-7.3458,-7.3796,-7.3419,-7.2812,-7.2167,-7.1368,-7.1017,-7.1657,-7.2395,-7.3185,-7.4021,-7.4264,-7.4976,-7.6707,-7.713,-7.74,-7.7592,-7.7746,-7.7438,-7.6438,-7.7669,-7.8746,-7.94,-8.1093,-8.2131,-8.2285,-8.3131,-8.3593,-8.3593,-8.4478,-8.5209,-8.5786,-8.5786,-8.5786,-8.5786,-8.6017,-8.6247,-3.8877,-3.9364,-4.0163,-4.2557,0.0,0.0,-4.547,-4.5586,-4.5778,-4.8317,-4.8373,-4.8499,-5.0068,-4.9733,-4.9349,-4.969,-4.9075,-4.8938,-5.012,-5.0591,-5.1206,-5.238,-5.2931,-5.3225,-5.3225,-5.2813,-5.2554,-5.2554,-5.2704,-5.2889,-5.3101,-5.3903,-5.4446,-5.4731,-5.5504,-5.6218,-5.6834,-5.7987,-5.8635,-5.884,-5.9054,-5.89,-5.851,-5.8143,-5.7997,-5.8033,-5.8364,-5.9013,-5.998,-6.1014,-6.1833,-6.2566,-6.3231,-6.36,-6.3728,-6.3621,-6.3453,-6.3215,-6.2904,-6.3585,-6.47,-6.5388,-6.6612,-6.7975,-6.8729,-6.9552,-7.0283,-7.0629,-7.1706,-7.2937,-7.3783,-7.4014,-7.3974,-7.39,-7.4137,-7.429,-7.3947,-7.3908,-7.3715,-7.3117,-7.2576,-7.2479,-7.314,-7.3668,-7.4284,-7.513,-7.5245,-7.5745,-7.713,-7.7284,-7.7284,-7.7284,-7.74,-7.7053,-7.6092,-7.763,-7.8861,-7.9246,-8.117,-8.2285,-8.2285,-8.3131,-8.3747,-8.4132,-8.4632,-8.5478,-8.6632,-8.6286,-8.6094,-8.6094,-8.6478,-8.6492,-3.9016,-3.9489,-4.0344,-4.3132,-4.2851,0.0,-4.5645,-4.5278,-4.4932,-4.7201,-4.7201,-4.7471,-4.9702,-4.9269,-4.8861,-4.9625,-4.9344,-4.9571,-5.1183,-5.1082,-5.1474,-5.3134,-5.3314,-5.3314,-5.3355,-5.3314,-5.3314,-5.3355,-5.3682,-5.4083,-5.4547,-5.4905,-5.5134,-5.516,-5.6314,-5.7148,-5.7644,-5.9193,-6.0025,-6.0045,-5.9966,-5.9708,-5.9171,-5.8364,-5.8033,-5.818,-5.8914,-5.9522,-6.0189,-6.172,-6.262,-6.3088,-6.3163,-6.3341,-6.3587,-6.3543,-6.3215,-6.2805,-6.3015,-6.3854,-6.5079,-6.5765,-6.7344,-6.9075,-6.9662,-7.0321,-7.1091,-7.2052,-7.2976,-7.3822,-7.463,-7.4755,-7.452,-7.4056,-7.4371,-7.4562,-7.3839,-7.3838,-7.3903,-7.3599,-7.3601,-7.386,-7.4591,-7.4784,-7.513,-7.5861,-7.6015,-7.6284,-7.7053,-7.7169,-7.7169,-7.7169,-7.7246,-7.6976,-7.6207,-7.7669,-7.8669,-7.8784,-8.0977,-8.2285,-8.2285,-8.3208,-8.4055,-8.4747,-8.4873,-8.5681,-8.7141,-8.6522,-8.6247,-8.6247,-8.6834,-8.6851,-4.0178,-4.034,-4.0666,-4.2757,-4.2833,0.0,-4.2727,-4.3585,-4.4432,-4.4932,-4.547,-4.6009,-4.6509,-4.6972,-4.7319,-4.7511,-4.8823,-5.0334,-5.1706,-5.1548,-5.2043,-5.3999,-5.3906,-5.3833,-5.4225,-5.3906,-5.3833,-5.4225,-5.4322,-5.4547,-5.496,-5.508,-5.5237,-5.5577,-5.6154,-5.7118,-5.852,-5.9436,-6.0214,-6.0869,-6.0461,-5.9926,-5.9171,-5.8364,-5.8364,-5.8988,-5.9134,-5.9989,-6.1308,-6.1603,-6.2278,-6.3126,-6.3409,-6.3531,-6.3543,-6.3158,-6.2904,-6.2928,-6.4095,-6.4935,-6.5765,-6.7645,-6.8839,-6.9701,-7.0448,-7.0783,-7.1245,-7.2822,-7.386,-7.4668,-7.5515,-7.4887,-7.4059,-7.4172,-7.3477,-7.2698,-7.2464,-7.3364,-7.4136,-7.3868,-7.4159,-7.4514,-7.4668,-7.5284,-7.5784,-7.5976,-7.6015,-7.6053,-7.6245,-7.6245,-7.6245,-7.6245,-7.6861,-7.7207,-7.7053,-7.8592,-7.9862,-8.0554,-8.167,-8.2285,-8.2285,-8.3824,-8.4401,-8.3862,-8.4632,-8.5244,-8.555,-8.6614,-8.7132,-8.7132,-8.6049,-8.5469,-4.0741,-4.1029,-4.1493,-4.2793,-4.2616,0.0,0.0,-4.2777,-4.3278,-4.4124,-4.4316,-4.4624,-4.5432,-4.5586,-4.6009,-4.7278,-4.8613,-4.9921,-5.1179,-5.1895,-5.2827,-5.4301,-5.4288,-5.4221,-5.4452,-5.4288,-5.4322,-5.476,-5.479,-5.496,-5.5375,-5.5399,-5.57,-5.6319,-5.6716,-5.7596,-5.9014,-5.9626,-6.0178,-6.0728,-6.012,-5.9612,-5.9208,-5.8804,-5.8841,-5.9245,-6.0052,-6.086,-6.163,-6.2034,-6.253,-6.2991,-6.3123,-6.3215,-6.3215,-6.3215,-6.3474,-6.3975,-6.4935,-6.6143,-6.742,-6.8536,-6.9536,-7.036,-7.0783,-7.1514,-7.2476,-7.3745,-7.4482,-7.49,-7.497,-7.4555,-7.3869,-7.2898,-7.2941,-7.3035,-7.2286,-7.3288,-7.4266,-7.4139,-7.4555,-7.5002,-7.5293,-7.5707,-7.6015,-7.6015,-7.6015,-7.6015,-7.6015,-7.6015,-7.6169,-7.6592,-7.7053,-7.7438,-7.7861,-7.9054,-7.9977,-8.0439,-8.1246,-8.1862,-8.2285,-8.3131,-8.3648,-8.375,-8.4767,-8.5258,-8.5258,-8.6023,-8.6188,-8.5807,-8.5393,-8.5073,-4.1456,-4.1917,-4.2503,-4.3156,-4.2744,-4.2288,0.0,0.0,0.0,-4.3355,-4.3201,-4.3201,-4.4393,-4.4128,-4.4418,-4.6529,-4.7695,-4.8739,-4.9817,-5.1433,-5.2845,-5.3867,-5.4337,-5.4602,-5.4511,-5.4352,-5.4506,-5.5148,-5.4906,-5.503,-5.5665,-5.5857,-5.622,-5.6844,-5.7412,-5.8142,-5.9174,-5.9577,-5.9886,-6.0162,-5.9538,-5.9134,-5.8988,-5.9134,-5.9281,-5.9538,-6.1077,-6.1813,-6.1887,-6.2659,-6.2904,-6.2805,-6.2805,-6.2855,-6.3051,-6.3639,-6.4352,-6.5165,-6.5954,-6.742,-6.894,-6.9196,-7.0133,-7.1168,-7.1168,-7.236,-7.3832,-7.4388,-7.4681,-7.4747,-7.4141,-7.3831,-7.3312,-7.1824,-7.2651,-7.3419,-7.2484,-7.325,-7.4161,-7.4293,-7.4711,-7.5271,-7.5718,-7.5917,-7.6015,-7.6015,-7.6015,-7.6015,-7.6015,-7.613,-7.6515,-7.7207,-7.7592,-7.8054,-7.8707,-7.9554,-8.0054,-8.0054,-8.0862,-8.1631,-8.2285,-8.2529,-8.3096,-8.4091,-8.4675,-8.5009,-8.5009,-8.4854,-8.4642,-8.4443,-8.4984,-8.4904,-4.3399,-4.3392,-4.3298,-4.4018,-4.3886,-4.3291,-4.2189,0.0,-4.2585,-4.12,0.0,-4.1777,-4.12,0.0,0.0,-4.2437,-4.4844,-4.6811,-4.728,-4.876,-5.041,-5.2022,-5.3874,-5.4893,-5.4534,-5.3788,-5.3964,-5.5544,-5.4276,-5.4084,-5.5626,-5.6434,-5.6706,-5.6382,-5.746,-5.8236,-5.8679,-5.9058,-5.9291,-5.9355,-5.9245,-5.8841,-5.8143,-5.8877,-5.9612,-6.0357,-6.1723,-6.2447,-6.2708,-6.3317,-6.3215,-6.2805,-6.2805,-6.3073,-6.3617,-6.445,-6.5057,-6.5804,-6.7832,-6.8684,-6.9088,-7.0268,-7.1294,-7.2052,-7.2052,-7.3245,-7.4465,-7.4083,-7.4017,-7.4065,-7.4244,-7.2816,-7.1664,-7.2882,-7.2347,-7.1803,-7.2372,-7.3029,-7.3651,-7.4206,-7.4711,-7.5127,-7.5163,-7.5654,-7.6015,-7.6015,-7.6015,-7.6015,-7.6015,-7.6669,-7.7169,-7.7284,-7.8631,-7.9554,-7.9631,-8.0439,-8.0939,-8.0939,-8.1708,-8.2208,-8.2285,-8.3179,-8.4093,-8.4968,-8.3965,-8.3471,-8.3415,-8.288,-8.3499,-8.5235,-8.4758,-8.4477,-4.3907,-4.4843,-4.5544,-4.4536,-4.4592,-4.4307,-4.2244,-4.17,-4.1393,-4.0662,0.0,0.0,0.0,0.0,0.0,0.0,-4.4054,-4.5208,-4.5376,-4.7278,-4.9279,-5.101,-5.1561,-5.2308,-5.3605,-5.3395,-5.3895,-5.5549,-5.4626,-5.4703,-5.6357,-5.728,-5.7757,-5.7739,-5.7964,-5.8313,-5.8635,-5.8526,-5.851,-5.851,-5.851,-5.8584,-5.8731,-5.9833,-6.0789,-6.1649,-6.2953,-6.3638,-6.3723,-6.3637,-6.3453,-6.3262,-6.3262,-6.3408,-6.3749,-6.4874,-6.5917,-6.6996,-6.8786,-6.9672,-7.0239,-7.1304,-7.1898,-7.236,-7.336,-7.3822,-7.4004,-7.3896,-7.3649,-7.3219,-7.2545,-7.2149,-7.1911,-7.2096,-7.2097,-7.2092,-7.2422,-7.2997,-7.3492,-7.3699,-7.4509,-7.5091,-7.5091,-7.5584,-7.6015,-7.6015,-7.6015,-7.6169,-7.6669,-7.7053,-7.7669,-7.8669,-7.94,-8.0015,-8.0516,-8.1323,-8.1785,-8.1785,-8.2706,-8.3066,-8.2672,-8.32,-8.3653,-8.3992,-8.3074,-8.2585,-8.2585,-8.2822,-8.3382,-8.4243,-8.3954,-8.4321,-4.5239,-4.6373,-4.718,-4.4897,-4.4624,-4.4355,-4.2277,-4.1508,-4.1123,-4.0893,-4.12,0.0,0.0,0.0,-4.1443,-4.2569,0.0,-4.3862,-4.397,-4.5355,-4.7086,-4.9048,-4.9548,-5.0664,-5.2972,-5.2587,-5.3126,-5.5511,-5.4511,-5.4818,-5.7242,-5.8165,-5.8629,-5.8593,-5.8505,-5.8465,-5.8508,-5.8186,-5.7997,-5.7997,-5.8217,-5.8713,-5.9485,-6.089,-6.1931,-6.2694,-6.3992,-6.4518,-6.437,-6.4099,-6.3813,-6.3593,-6.3766,-6.392,-6.4304,-6.5653,-6.703,-6.8334,-6.9624,-7.0552,-7.1321,-7.1706,-7.2168,-7.2783,-7.4014,-7.3976,-7.3513,-7.3642,-7.3189,-7.2498,-7.1628,-7.1783,-7.2092,-7.1725,-7.2225,-7.2705,-7.2705,-7.3066,-7.3454,-7.3804,-7.4299,-7.4827,-7.5359,-7.5737,-7.6024,-7.6094,-7.6063,-7.6338,-7.705,-7.7356,-7.7931,-7.9156,-7.9501,-7.9999,-8.0841,-8.1454,-8.199,-8.2449,-8.3214,-8.3512,-8.3273,-8.3206,-8.3189,-8.3189,-8.256,-8.2296,-8.2517,-8.3141,-8.3654,-8.4058,-8.4058,-8.451,-4.8318,-4.8029,-4.7452,-4.4932,-4.3739,-4.2931,-4.2008,-4.2431,-4.2777,-4.1931,-4.3047,-4.3932,-4.3162,-4.2756,-4.2374,-4.1937,-4.2296,0.0,0.0,-4.247,-4.2931,-4.547,-4.8663,-5.1318,-5.3049,-5.0971,-5.1241,-5.5395,-5.3395,-5.3818,-5.805,-5.9011,-5.9063,-5.8178,-5.8936,-5.8914,-5.8042,-5.7997,-5.7997,-5.7997,-5.8804,-5.9456,-6.0021,-6.1661,-6.2623,-6.3161,-6.4486,-6.4799,-6.4407,-6.4866,-6.4481,-6.3637,-6.4138,-6.486,-6.5729,-6.703,-6.8403,-6.9756,-7.0591,-7.1437,-7.2014,-7.1206,-7.2091,-7.3476,-7.3514,-7.3514,-7.3415,-7.3111,-7.2444,-7.1921,-7.2337,-7.1908,-7.1541,-7.2275,-7.2943,-7.3391,-7.3391,-7.3391,-7.3747,-7.4828,-7.4174,-7.4066,-7.5932,-7.612,-7.6056,-7.627,-7.6311,-7.6388,-7.6684,-7.7387,-7.7923,-7.7961,-7.8716,-7.9546,-8.0377,-8.0443,-8.117,-8.2793,-8.2896,-8.3273,-8.4103,-8.3505,-8.3189,-8.3189,-8.256,-8.259,-8.3361,-8.3398,-8.4205,-8.571,-8.571,-8.5151,-4.9952,-5.0625,-5.0587,-4.6932,-4.624,-4.5586,-4.2508,-4.247,-4.2854,-4.197,-4.3124,-4.4047,-4.3239,-4.3457,-4.3652,-4.3492,-4.411,-4.4438,0.0,-4.3624,-4.4201,-4.624,-4.8471,-4.9856,-4.9817,-5.0801,-5.2294,-5.4282,-5.4351,-5.5607,-5.8475,-5.9458,-5.9616,-5.8974,-5.9238,-5.8951,-5.7997,-5.7997,-5.7997,-5.7997,-5.9183,-6.0115,-6.0882,-6.2597,-6.3782,-6.4448,-6.5303,-6.5359,-6.4866,-6.5035,-6.4731,-6.4253,-6.5305,-6.6235,-6.6958,-6.7431,-6.8127,-6.8975,-6.9821,-7.0667,-7.1475,-7.236,-7.2629,-7.2937,-7.463,-7.4106,-7.2945,-7.2992,-7.2515,-7.1962,-7.1729,-7.1908,-7.2165,-7.2459,-7.263,-7.2816,-7.2816,-7.3119,-7.3691,-7.4563,-7.4769,-7.5171,-7.6355,-7.649,-7.6496,-7.6554,-7.6549,-7.6809,-7.7425,-7.7719,-7.8096,-7.8708,-7.95,-8.0094,-8.0358,-8.1414,-8.236,-8.3056,-8.3131,-8.3061,-8.2876,-8.2647,-8.2818,-8.3335,-8.3088,-8.3398,-8.4205,-8.3988,-8.4101,-8.4645,-8.4937,-8.5247,-5.1741,-5.2395,-5.2241,-4.8317,-4.7971,-4.7548,-4.3585,-4.3816,-4.4624,-4.3778,-4.447,-4.5355,-4.574,-4.547,-4.5316,-4.5586,-4.5893,-4.5663,0.0,-4.4816,-4.5547,-4.6355,-4.7932,-4.9125,-4.9618,-5.016,-5.1825,-5.4928,-5.46,-5.5741,-5.9083,-5.9977,-6.0074,-5.9424,-5.9389,-5.9028,-5.8238,-5.8051,-5.8051,-5.8238,-5.9743,-6.0858,-6.1733,-6.3503,-6.4696,-6.5417,-6.5755,-6.569,-6.5388,-6.5388,-6.4915,-6.4355,-6.5696,-6.6407,-6.6809,-6.7615,-6.8321,-6.8936,-6.9513,-7.0437,-7.1514,-7.2322,-7.2629,-7.2909,-7.4336,-7.3767,-7.2621,-7.266,-7.2379,-7.2035,-7.1784,-7.2129,-7.2496,-7.2496,-7.2686,-7.2816,-7.2816,-7.3342,-7.4038,-7.4773,-7.5109,-7.5645,-7.6627,-7.663,-7.6531,-7.6777,-7.6777,-7.7029,-7.7615,-7.7676,-7.8013,-7.8925,-7.9433,-7.9994,-8.0555,-8.1863,-8.2706,-8.2876,-8.3113,-8.309,-8.2627,-8.2884,-8.3287,-8.3838,-8.3427,-8.3654,-8.4457,-8.3795,-8.3846,-8.4556,-8.4373,-8.4989]}]]